GFSSGP_925_spd_000.txt.gz
Wind_Speed
12 10 6 3 4 5 2 3 2 5 4 6 9 13 9 5 4 5 5 9 13 8 8 10 12 14 14 17 16 16 14 13 9 8 9 9 8 9 8 8 8 6 13 14 6 6 11 7 14
11 7 2 3 5 4 4 4 3 4 8 12 10 8 7 4 4 8 6 9 6 9 7 10 10 13 13 14 14 14 13 11 9 8 8 8 9 8 8 11 14 14 8 5 2 3 13 8 5
7 2 4 4 4 5 1 4 4 8 6 1 5 4 4 4 6 11 14 11 8 8 9 10 10 12 12 12 11 11 10 9 7 8 8 7 8 7 8 11 10 4 3 2 1 1 7 12 16
3 6 4 5 3 0 1 6 4 2 8 7 4 7 4 3 6 13 19 13 8 8 9 9 10 11 12 11 10 10 10 9 8 7 7 7 6 5 4 5 4 6 3 2 4 2 4 10 8
5 3 4 4 3 2 3 6 7 6 4 5 3 3 4 6 17 22 21 17 12 12 10 11 10 11 10 9 9 8 8 8 8 8 7 6 5 3 2 2 3 5 5 6 7 9 13 14 15
4 3 5 3 3 4 4 7 8 4 3 3 6 4 3 15 20 20 21 18 11 14 12 10 9 10 10 8 8 7 6 6 6 5 5 6 5 5 4 3 3 4 3 4 5 8 15 16 14
6 4 5 5 4 3 3 3 6 5 4 4 9 5 1 3 16 21 21 19 16 13 12 13 12 11 9 9 6 5 5 5 5 5 5 5 5 5 4 3 3 3 2 2 3 3 4 6 6
5 4 4 4 4 3 6 3 7 5 2 5 3 5 4 9 13 12 20 20 16 15 13 12 11 9 8 8 7 5 5 4 3 4 5 4 5 6 5 5 4 4 3 4 4 3 2 4 4
4 5 4 3 3 2 6 4 3 3 3 2 0 6 3 21 14 12 16 17 18 15 14 13 10 7 7 6 7 6 7 7 5 5 7 6 5 3 4 4 6 6 6 6 5 6 6 6 4
6 4 2 3 5 1 3 3 1 3 5 5 4 5 17 20 14 9 12 16 17 21 17 11 8 7 7 7 7 7 6 5 6 6 7 7 5 2 4 3 3 5 5 5 6 6 6 9 8
2 3 3 2 2 2 2 4 3 3 3 5 9 8 9 13 16 17 13 17 23 17 14 10 5 5 9 6 11 10 7 8 8 7 8 7 6 5 7 6 4 4 2 3 2 4 7 9 12
5 4 4 4 1 1 2 1 4 2 5 6 11 13 9 9 12 17 8 20 23 18 13 10 5 6 6 6 7 8 10 11 10 7 7 6 6 5 6 6 5 5 4 4 5 5 6 8 10
3 2 3 4 5 4 2 3 5 4 5 6 10 10 10 8 11 15 19 26 20 17 15 10 3 5 8 6 9 10 12 14 14 11 10 8 9 7 7 7 5 4 4 5 7 9 8 9 12
1 2 4 7 5 4 4 3 2 8 4 7 9 11 10 9 10 11 20 22 22 21 18 12 7 4 7 7 6 7 9 10 9 10 9 8 9 8 9 9 8 6 5 6 6 7 8 9 11
2 3 6 7 3 4 4 2 6 9 8 11 10 9 9 9 12 16 22 23 20 17 16 13 9 6 6 6 8 8 9 11 11 11 9 8 10 10 9 9 10 9 6 6 5 7 6 9 10
4 3 4 6 7 4 4 7 8 6 8 11 11 8 8 9 17 19 20 21 17 15 17 13 8 7 6 5 7 8 10 11 11 13 13 11 11 10 12 11 11 8 7 6 5 4 7 9 10
6 4 3 8 5 3 3 7 8 5 9 10 9 7 6 5 7 13 15 14 15 15 17 12 8 6 4 5 7 9 10 14 14 15 16 15 13 13 12 12 11 8 8 8 7 5 7 9 11
4 5 5 2 6 5 6 8 9 7 7 11 8 7 6 6 1 6 11 11 16 17 12 9 6 4 8 9 9 12 16 14 16 16 20 20 17 14 14 13 14 11 11 11 11 8 7 8 11
1 2 3 4 3 7 6 8 13 4 5 8 8 9 7 7 1 14 22 25 22 16 10 5 5 7 10 11 14 15 18 20 20 20 18 23 21 20 17 17 14 16 14 14 12 8 8 9 9
6 3 4 6 6 3 8 10 7 6 3 7 10 9 8 6 6 12 15 13 10 11 8 7 6 8 12 15 19 20 23 25 24 24 24 26 27 27 25 22 20 18 17 16 12 8 5 5 7
3 2 3 6 7 3 5 6 6 4 3 5 4 6 6 8 8 6 8 10 9 10 8 8 9 12 14 18 21 24 25 25 28 29 27 29 30 31 30 29 24 22 20 19 14 9 6 2 2
4 3 4 6 4 2 4 3 3 3 2 2 4 6 6 7 4 1 5 9 13 12 12 13 13 15 18 20 24 28 32 28 36 38 36 32 26 34 33 31 27 22 20 15 11 8 4 2 4
7 7 8 4 4 3 9 3 6 4 4 6 4 6 5 4 5 3 2 2 9 10 11 15 15 19 18 21 24 26 30 37 41 40 36 35 31 32 34 31 28 21 20 15 8 1 3 7 10
6 6 5 4 3 3 3 2 4 5 5 5 3 3 6 4 3 5 6 5 6 8 5 7 10 13 16 20 23 28 32 38 37 39 40 35 28 24 27 28 22 18 14 13 7 4 6 12 16
8 6 4 5 5 4 5 4 3 1 8 9 8 5 3 6 4 4 3 8 11 12 13 13 15 18 22 24 27 31 34 30 32 35 33 26 21 16 18 19 13 13 10 10 8 9 13 25 24
4 4 4 1 0 5 7 1 2 4 2 5 6 9 5 2 2 2 8 11 12 13 14 15 16 23 28 27 29 30 25 22 21 22 24 21 18 19 18 17 11 7 8 11 16 22 26 24 21
4 4 1 5 2 3 5 5 7 4 9 5 3 1 6 8 8 8 7 10 12 14 18 23 25 31 31 26 23 20 23 23 18 11 7 17 26 22 16 11 8 10 16 28 24 17 19 22 27
3 1 5 4 2 3 5 6 5 7 11 10 5 3 8 6 8 6 7 8 7 12 16 23 29 30 25 25 19 18 16 10 6 9 19 22 17 9 1 8 17 16 8 10 15 19 24 26 29
5 4 4 1 4 3 2 6 4 9 8 9 6 6 4 4 5 5 8 12 17 16 13 19 22 21 21 25 18 15 11 10 16 20 16 11 6 1 9 3 4 9 11 15 20 22 23 23 24
2 3 5 3 5 3 3 11 11 6 14 8 5 3 4 3 3 4 4 10 16 17 15 28 22 19 24 31 23 19 14 15 17 16 12 9 9 7 5 4 8 13 17 17 19 21 24 27 29

GFSSGP_925_spd_003.txt.gz
Wind_Speed
10 7 3 4 4 5 2 3 5 3 4 4 2 8 7 2 1 3 8 14 14 14 15 12 14 10 13 14 13 13 12 11 8 7 7 7 9 11 13 12 5 7 13 12 12 7 12 15 13
10 4 3 2 5 5 3 3 7 3 7 7 7 3 5 3 3 6 10 15 14 14 12 11 12 11 9 14 13 12 11 9 7 6 6 6 7 7 7 8 11 14 14 10 9 4 8 8 9
5 3 4 5 4 3 1 1 3 2 2 0 4 4 3 2 4 10 13 17 13 12 12 11 12 12 11 12 11 10 9 7 7 6 5 5 5 5 8 10 11 11 6 6 6 5 11 16 12
2 6 5 5 5 1 2 0 4 1 3 6 2 6 2 2 9 11 20 15 13 13 12 12 11 11 10 10 9 8 8 6 7 6 7 6 5 5 5 5 3 3 3 5 9 8 9 8 9
4 3 5 4 2 3 3 5 4 4 2 5 1 3 2 3 16 22 18 13 13 14 13 12 10 9 8 7 6 6 6 5 5 5 6 6 4 4 4 4 3 4 4 7 10 11 12 13 12
4 4 5 2 3 3 1 1 5 4 1 1 6 4 1 8 21 18 15 13 13 15 13 12 11 9 7 6 5 5 6 5 4 3 2 3 4 3 3 3 3 4 5 7 7 10 13 17 14
6 4 3 3 2 6 1 0 5 4 3 1 7 5 1 5 20 18 16 14 16 13 12 12 11 9 8 6 6 6 6 6 6 5 5 4 4 3 2 2 2 2 3 6 7 8 8 7 8
5 4 3 2 1 3 4 1 3 4 1 1 3 5 5 8 17 20 18 17 15 14 13 12 10 9 7 6 4 5 5 5 5 5 4 4 2 1 2 2 2 3 4 6 6 5 3 2 4
4 5 3 2 2 4 4 2 5 2 5 2 3 5 4 20 17 22 19 15 15 14 14 12 9 7 7 7 6 5 5 5 4 4 4 3 2 1 3 3 4 5 6 6 7 6 6 6 6
5 5 6 3 3 3 3 2 2 4 2 3 2 4 14 20 21 21 18 19 21 19 15 13 10 8 9 8 6 6 8 7 5 5 6 5 4 3 3 5 5 5 6 6 7 8 8 7 8
2 4 3 3 4 5 3 1 2 6 2 5 8 6 8 11 16 18 21 26 26 19 15 13 10 11 12 12 11 11 10 9 8 8 8 8 8 7 8 8 7 6 6 6 6 5 4 4 6
5 1 5 3 4 3 3 1 1 2 6 9 12 13 8 8 11 16 19 23 22 22 18 15 11 11 10 8 11 12 12 12 12 10 10 10 10 10 9 10 9 9 9 8 8 8 9 10 9
3 2 2 1 2 1 2 4 3 5 5 4 6 7 10 9 15 13 13 16 27 24 20 16 11 11 8 7 9 11 12 14 13 12 11 11 12 11 10 10 10 9 8 7 7 9 10 11 11
1 2 5 3 3 2 2 3 1 5 2 8 9 11 9 9 16 10 14 18 28 24 20 16 13 10 8 8 7 7 9 11 13 13 12 11 12 14 13 12 12 10 8 6 6 6 7 7 9
3 5 6 3 3 4 5 5 6 3 4 9 10 8 9 11 14 18 22 28 28 24 22 19 13 8 6 7 7 8 9 11 13 13 14 13 12 13 13 14 14 13 10 9 8 7 5 5 6
5 5 6 6 1 3 4 9 9 2 5 10 10 9 9 9 8 11 19 24 24 23 22 16 11 7 7 6 6 8 9 11 12 13 14 14 14 14 14 14 14 13 12 12 10 7 6 7 8
7 1 3 5 5 3 4 8 10 3 6 10 9 8 6 5 6 8 10 16 17 18 20 15 9 7 6 6 7 9 11 12 14 16 18 18 17 16 16 16 16 14 13 13 12 10 9 9 9
3 3 4 4 5 7 4 9 10 6 6 9 3 5 2 4 3 9 7 9 14 17 17 11 9 8 7 7 9 11 14 16 17 19 21 20 21 21 19 19 19 19 17 17 16 15 12 11 10
1 2 2 4 3 7 4 8 12 8 5 6 6 8 7 7 3 10 9 12 17 16 14 11 8 6 9 8 10 13 17 20 20 21 23 24 26 27 26 25 23 23 23 22 20 19 16 14 10
2 2 4 5 5 3 7 9 8 8 4 4 8 7 8 6 5 8 15 15 13 12 11 10 9 8 10 10 11 15 18 22 25 26 27 28 29 29 33 32 31 29 29 27 24 24 19 14 9
4 2 3 5 7 1 6 6 5 5 4 5 4 5 4 7 8 5 7 9 8 12 12 11 10 11 13 14 16 20 23 26 28 32 34 36 34 35 39 40 38 35 33 33 31 29 24 17 10
4 2 2 6 4 2 5 3 5 3 2 3 6 4 5 6 4 4 6 8 10 10 8 12 14 15 16 16 17 22 27 26 35 37 37 40 39 38 40 42 44 41 33 32 30 26 24 17 12
7 7 4 2 3 2 8 4 6 5 2 1 2 3 4 4 4 3 3 3 4 7 8 9 10 11 13 16 19 22 24 28 31 34 37 38 37 37 38 40 44 40 29 27 23 19 14 11 11
8 4 6 4 2 2 1 2 6 4 4 1 3 1 1 5 3 5 9 7 12 12 13 12 10 11 15 19 23 27 31 35 33 31 31 33 32 31 30 36 33 25 16 12 8 8 7 6 7
8 6 3 5 5 4 1 2 6 4 4 1 3 5 5 4 3 2 4 9 10 10 8 8 12 19 26 30 30 30 31 31 28 27 27 27 26 18 13 17 20 18 16 15 5 12 16 16 23
3 3 4 3 1 5 6 2 4 1 4 3 5 4 3 6 6 5 7 7 5 6 11 15 20 26 29 28 26 26 27 29 29 30 24 19 9 13 18 18 15 13 7 13 18 19 20 23 25
4 4 2 6 2 3 4 5 5 4 6 4 3 2 7 7 5 3 2 4 6 14 17 17 22 27 24 21 26 29 31 31 31 29 16 7 13 19 16 11 9 12 12 24 24 16 11 15 18
6 2 4 4 2 3 5 5 5 4 5 5 3 6 4 4 4 4 3 5 15 17 20 18 23 22 19 22 25 32 33 31 26 22 11 15 17 10 3 3 11 17 17 9 10 12 14 19 20
5 4 5 3 3 3 2 6 5 5 7 5 6 2 4 3 1 4 5 11 19 19 19 16 19 19 17 20 28 31 35 28 16 15 14 17 8 3 5 7 6 2 8 11 14 15 15 17 19
4 6 4 3 5 3 3 6 3 5 4 6 3 6 7 6 5 5 10 16 18 20 20 21 19 17 19 26 30 33 36 23 14 15 12 9 6 5 2 3 3 5 10 12 13 16 18 19 21

GFSSGP_925_spd_006.txt.gz
Wind_Speed
9 5 2 3 4 6 2 1 2 1 3 2 2 6 7 3 3 2 2 8 7 9 8 7 6 7 13 11 10 10 7 7 8 7 8 8 8 10 9 6 3 7 13 16 14 10 8 11 11
8 2 3 2 5 5 3 4 3 0 4 4 6 4 7 4 2 7 8 12 9 9 10 9 9 10 12 12 12 10 9 7 6 6 6 6 7 8 8 9 10 14 16 16 13 5 4 6 7
3 4 4 5 4 4 3 1 3 3 2 3 3 4 3 2 2 8 12 15 12 11 11 10 10 11 11 12 11 9 7 6 5 5 4 5 6 6 8 9 12 12 10 7 6 4 5 10 10
2 6 4 6 4 3 3 2 5 4 1 5 3 5 3 1 12 10 20 15 14 13 12 11 11 12 10 9 9 8 8 7 6 5 5 5 5 6 7 6 6 5 6 7 9 9 9 9 9
5 3 5 5 4 3 3 2 6 6 5 2 2 2 3 2 12 22 18 16 17 16 14 13 11 9 8 7 7 6 5 4 4 5 5 4 4 4 4 4 4 6 7 9 9 9 10 13 13
4 3 5 4 1 3 2 1 2 3 3 4 6 4 2 10 23 22 18 16 16 18 16 12 10 7 5 4 4 3 2 1 1 2 1 2 3 4 4 4 5 5 7 7 8 8 9 11 8
6 5 4 4 3 2 2 6 3 3 3 3 7 5 1 9 19 21 17 16 16 15 12 12 9 7 5 3 2 1 1 1 1 1 1 2 2 3 4 4 4 4 6 7 7 8 8 8 7
5 4 3 3 2 1 3 3 2 3 2 4 4 6 5 10 20 19 16 15 14 13 11 10 8 6 5 4 2 1 1 2 2 2 3 4 4 5 5 5 6 6 7 8 9 9 8 7 7
3 5 2 3 4 2 3 1 1 2 5 1 3 6 3 23 21 19 15 14 12 12 11 10 9 7 4 2 2 1 1 2 3 4 5 5 5 5 6 7 7 7 7 7 8 8 8 8 9
5 5 4 4 4 1 3 1 1 3 3 2 1 3 10 25 24 22 19 19 17 15 15 13 10 6 5 5 5 4 3 5 6 6 7 7 6 6 6 7 8 9 9 7 7 7 9 10 9
2 4 3 2 2 2 1 2 1 7 2 6 8 6 8 12 18 21 23 22 24 19 16 14 10 8 8 9 9 9 8 9 9 8 9 10 10 10 10 10 9 10 10 8 8 7 6 6 7
6 4 3 1 3 4 3 1 2 5 7 8 9 10 9 8 13 18 21 25 25 23 18 14 11 9 9 10 13 12 12 12 11 11 11 12 12 12 12 12 12 12 11 11 10 9 8 9 10
4 2 4 2 6 3 2 3 3 7 8 2 8 7 9 9 16 17 21 23 22 22 20 16 13 10 9 9 10 12 12 13 13 13 13 13 13 14 14 15 15 14 13 11 10 9 9 7 5
1 1 1 1 3 1 1 3 1 4 1 3 7 11 9 9 19 11 14 18 23 24 22 17 14 10 9 7 7 7 9 11 12 15 14 15 15 16 16 15 15 15 14 13 10 9 9 8 6
3 5 6 6 5 2 3 5 6 3 3 5 7 8 9 11 12 16 16 19 20 27 22 19 13 9 7 6 7 8 8 10 12 14 15 16 16 17 17 16 16 17 16 14 12 11 10 7 7
6 6 5 6 3 3 4 8 11 1 0 8 8 8 8 6 6 14 13 14 17 23 18 15 11 9 7 6 7 8 9 10 12 14 15 17 18 17 17 18 17 16 17 16 15 13 11 9 8
8 1 2 7 5 5 1 8 9 4 6 10 6 7 5 4 3 5 10 11 14 16 15 15 12 9 6 6 7 10 11 12 12 15 18 20 21 21 22 22 20 18 18 19 18 17 15 13 11
2 2 2 3 5 7 4 8 8 7 7 7 5 5 6 4 2 5 3 8 11 13 14 13 11 9 6 6 8 10 12 13 14 16 19 21 23 25 26 27 25 23 23 24 22 21 19 19 15
0 1 2 3 1 5 4 6 9 9 7 8 5 6 7 5 3 7 10 9 10 12 14 13 11 10 7 7 10 13 14 15 16 18 21 24 27 29 30 32 31 29 29 29 27 25 23 22 17
3 2 4 5 3 0 6 7 6 7 5 5 6 7 6 5 4 9 13 13 13 15 13 11 10 8 10 12 12 12 15 19 24 27 29 30 30 33 37 38 38 37 36 35 33 31 29 26 21
4 2 2 5 6 1 5 4 6 4 5 7 7 3 3 5 6 2 5 9 8 9 8 8 9 10 10 12 15 18 20 23 26 30 29 29 35 36 34 38 44 45 43 41 40 37 34 30 23
4 2 2 4 2 2 4 2 5 6 3 5 4 0 3 3 4 4 5 5 5 4 5 8 9 7 9 12 15 17 20 24 28 30 32 31 29 31 30 30 35 45 48 45 45 40 37 30 21
6 4 2 1 2 3 8 4 6 5 3 1 3 4 3 6 5 0 1 5 6 5 9 13 13 14 17 20 22 22 23 24 28 30 29 27 30 29 30 30 28 34 40 42 38 29 23 19 10
6 3 5 4 2 3 3 3 5 3 3 2 2 2 6 3 7 6 7 10 13 14 15 17 18 20 22 22 22 21 23 27 31 33 33 34 33 29 27 26 23 21 18 17 14 17 16 12 10
9 6 3 5 5 4 3 1 6 5 3 3 4 4 5 7 6 3 8 11 15 17 17 17 17 21 22 19 18 21 25 29 34 36 38 37 33 26 21 14 3 12 17 16 14 12 11 8 11
3 4 4 2 1 5 5 3 2 4 5 6 6 6 7 8 6 6 8 9 11 15 17 18 17 24 24 21 21 22 25 29 34 37 38 36 24 11 2 11 15 13 10 8 9 9 11 13 12
2 4 2 5 2 3 3 4 5 4 8 9 8 8 7 7 7 6 5 6 12 18 19 18 16 19 22 19 20 26 32 36 38 39 35 29 14 10 11 8 5 4 3 5 13 17 14 11 8
6 4 4 4 2 3 5 6 3 7 10 8 5 6 8 8 8 7 7 7 12 15 16 17 19 20 22 19 22 28 34 36 37 38 28 16 11 10 4 2 4 8 10 7 9 8 9 12 13
4 3 4 3 3 3 2 6 4 4 2 5 3 6 7 8 7 7 13 14 14 16 18 18 20 20 23 19 25 32 35 34 35 23 14 12 7 0 3 6 11 14 11 10 8 10 11 11 12
2 3 3 4 4 2 3 6 2 5 4 5 2 5 6 6 8 10 18 18 18 25 25 22 22 23 18 22 29 31 30 30 22 7 4 3 3 5 8 11 9 13 14 12 12 12 12 13 15

GFSSGP_925_spd_009.txt.gz
Wind_Speed
3 2 4 3 2 3 4 2 2 4 3 3 4 4 7 4 1 3 2 7 7 9 9 7 7 8 8 9 7 6 7 8 9 9 11 10 10 10 7 3 0 6 11 14 15 10 7 7 6
2 4 3 2 4 8 4 2 3 3 9 6 7 5 3 4 3 5 6 11 9 10 11 10 9 9 10 10 8 8 7 7 7 7 8 9 9 8 4 4 7 12 14 13 10 8 6 7 7
3 4 2 4 3 5 5 1 8 7 3 2 4 3 3 4 4 10 8 14 11 12 12 11 11 11 10 9 7 7 6 5 4 3 4 4 5 5 5 7 9 9 8 6 5 5 5 7 7
2 3 3 7 7 2 2 6 6 5 3 3 6 7 2 2 10 8 17 14 12 13 13 12 10 9 7 7 6 4 4 3 2 1 2 1 2 4 5 6 7 5 4 5 6 5 6 8 8
6 2 5 7 6 3 2 2 3 3 2 3 1 4 3 1 4 18 15 14 13 13 12 11 10 8 7 5 4 3 3 2 2 2 1 1 2 4 4 3 3 5 6 7 7 6 6 7 7
3 2 6 9 6 2 4 2 3 2 4 3 5 4 3 1 16 18 15 14 14 13 12 11 9 7 5 4 3 2 1 1 2 2 1 1 2 3 2 3 3 4 5 6 7 7 7 7 6
5 4 3 5 5 3 3 1 5 4 4 2 7 4 2 5 12 16 14 14 13 12 12 10 8 6 4 2 1 0 1 1 1 2 2 3 4 4 5 4 4 5 7 8 8 7 6 6 5
4 4 4 2 5 3 0 2 2 2 2 2 1 5 6 11 17 17 13 13 14 14 12 10 8 5 4 3 2 1 0 1 1 2 3 4 5 6 6 6 6 6 7 9 9 8 8 7 6
2 4 3 4 6 3 1 3 1 1 5 1 2 4 2 20 19 15 11 11 13 13 11 11 8 6 4 4 3 2 1 2 2 3 4 4 5 6 6 7 7 8 7 8 9 9 9 8 8
4 3 4 3 2 2 2 1 2 3 2 3 2 2 7 21 21 19 16 15 14 15 15 13 9 7 4 3 4 3 3 4 4 5 6 7 7 8 9 9 10 10 10 10 11 10 10 9 7
2 3 4 2 4 3 2 2 1 6 1 4 7 8 14 18 19 19 17 17 19 14 14 13 11 9 7 7 6 6 6 6 7 7 8 9 10 10 11 12 11 11 11 12 12 11 11 10 10
6 3 2 4 3 3 3 2 1 3 3 3 4 13 17 16 17 18 19 20 17 17 15 14 13 11 8 7 9 10 10 9 9 10 10 11 13 13 12 14 14 14 13 13 12 12 11 11 10
5 2 2 2 5 2 4 3 2 6 8 2 6 13 16 16 17 20 21 17 15 17 17 15 14 11 8 7 8 10 11 11 11 12 13 14 14 14 15 16 16 16 15 13 12 10 11 9 8
3 4 3 4 1 1 1 0 1 1 2 4 7 13 14 15 20 14 15 17 18 19 17 16 14 10 7 6 6 6 8 9 11 11 12 14 15 16 17 18 17 17 16 15 14 12 10 10 9
3 5 3 8 4 3 2 2 4 3 2 3 7 9 11 15 12 16 12 14 16 19 17 18 14 9 8 7 6 6 7 8 9 10 11 13 15 17 19 20 19 19 18 18 17 15 13 12 11
5 5 3 5 6 3 2 5 5 4 5 5 4 7 9 11 10 8 12 12 13 17 19 19 15 11 9 8 7 7 7 8 10 12 13 14 16 18 20 21 22 21 20 19 18 16 15 14 12
8 3 3 4 4 5 4 6 4 11 9 10 5 5 8 8 6 4 6 7 8 12 18 18 15 11 10 9 8 7 7 8 10 13 15 17 17 19 22 25 26 25 24 24 22 20 20 15 14
1 1 1 3 5 6 3 7 11 11 3 3 3 2 6 6 1 5 6 6 8 12 14 14 13 11 10 10 9 9 8 10 13 15 18 20 22 23 25 28 31 30 29 29 27 26 22 21 17
3 2 2 3 2 5 3 6 9 10 9 8 6 6 7 6 3 3 4 4 8 10 12 13 12 8 9 7 8 8 9 13 18 19 22 23 24 24 26 29 31 33 32 36 34 30 26 21 20
2 3 2 3 1 1 5 4 4 9 6 5 7 8 7 6 4 3 5 6 6 8 6 3 1 4 7 9 10 11 14 14 17 19 23 25 27 28 26 24 27 28 26 29 37 32 25 20 20
1 2 2 3 6 2 4 2 6 4 5 5 6 4 4 6 6 4 5 7 9 8 6 6 6 7 9 10 11 11 12 13 14 19 23 25 23 22 25 27 26 26 25 27 31 32 31 29 21
2 2 4 3 1 1 4 3 4 5 3 2 2 3 3 4 5 8 8 10 8 9 11 16 16 14 14 14 14 15 10 12 14 18 21 28 28 29 29 30 29 27 25 25 27 27 29 27 27
2 1 1 1 3 2 5 0 2 3 2 2 3 3 4 6 7 8 10 12 15 16 17 15 14 16 17 18 17 15 13 12 16 20 26 29 29 30 29 27 27 27 24 23 22 21 20 23 26
4 2 3 2 2 2 1 2 2 3 5 4 2 5 8 8 6 8 10 10 12 13 13 13 13 14 17 17 16 16 17 19 21 27 31 33 33 31 31 26 21 17 14 8 3 2 3 1 6
8 3 1 2 3 1 1 1 2 7 7 5 6 7 8 8 9 8 8 8 9 11 13 15 17 16 19 19 18 19 21 23 27 30 30 32 31 28 24 15 6 3 9 12 12 12 11 12 10
4 2 2 1 2 4 2 0 3 5 6 6 9 7 8 8 6 5 2 1 4 8 13 15 16 18 21 22 21 20 23 27 28 27 30 31 27 19 9 2 5 6 7 6 6 7 9 13 10
1 5 1 5 1 2 3 1 5 5 11 10 8 8 8 8 6 3 2 5 7 12 20 21 19 18 18 20 18 19 23 27 26 29 29 25 19 6 4 2 2 2 3 6 9 12 10 9 9
4 4 1 3 2 3 4 4 3 2 4 2 4 6 6 6 9 10 13 15 12 13 16 16 14 14 15 16 15 18 23 24 26 28 25 18 7 3 2 5 4 6 7 8 10 8 5 3 4
2 2 5 3 1 2 3 5 5 5 3 1 3 0 3 6 8 9 14 16 13 11 14 14 13 14 15 14 20 23 23 23 23 18 15 7 2 4 3 5 7 10 8 9 11 7 5 5 5
1 3 3 2 2 1 0 7 3 6 3 2 5 3 4 6 8 11 13 12 8 12 15 16 14 15 14 19 19 16 17 19 15 11 8 7 7 6 6 7 11 13 14 14 10 9 8 9 9

GFSSGP_925_spd_012.txt.gz
Wind_Speed
1 3 3 5 5 3 10 8 7 10 6 3 1 4 9 9 6 5 9 8 9 10 8 6 9 9 9 8 7 6 6 6 5 6 6 5 4 4 3 4 1 3 7 10 11 10 5 4 6
2 3 4 3 5 11 9 9 9 9 11 10 7 4 4 7 6 11 11 9 9 10 9 7 8 10 9 8 6 6 5 5 5 4 5 3 2 2 3 4 6 8 9 9 7 5 3 5 5
3 5 4 4 4 11 12 9 14 13 6 4 4 5 2 6 7 11 11 11 11 9 9 7 9 9 9 8 7 6 4 3 3 3 3 3 3 2 4 6 7 7 6 6 6 6 6 6 6
4 6 4 5 14 7 14 13 13 9 5 3 6 8 7 4 9 7 12 10 10 9 9 9 9 8 7 6 5 3 3 3 2 2 1 0 0 2 3 5 6 6 7 8 8 8 8 7 8
3 4 8 11 15 13 9 10 6 6 7 7 2 6 6 6 7 14 12 10 10 10 9 8 9 7 5 4 4 3 3 2 2 1 1 1 2 2 3 3 3 4 5 6 7 7 6 6 5
4 4 12 13 14 10 7 6 5 4 6 6 6 8 7 7 14 12 11 11 10 10 9 8 8 7 5 3 3 2 2 2 1 1 1 1 2 2 2 2 3 4 5 5 5 5 5 5 5
4 5 13 15 14 11 10 4 7 6 8 6 6 7 6 11 14 13 13 11 9 8 8 7 6 5 3 2 1 1 1 1 2 2 2 3 3 4 4 5 5 6 6 6 6 6 6 6 6
2 5 13 13 10 12 7 6 5 4 6 5 1 5 8 15 16 13 11 9 8 7 6 5 4 4 3 1 1 1 1 1 2 3 3 4 6 6 5 6 6 5 6 7 7 7 7 8 8
2 6 8 8 8 10 8 7 4 1 7 3 3 4 8 21 17 14 11 10 10 8 6 6 4 3 2 1 2 1 3 2 3 5 5 5 3 4 5 7 7 8 9 10 10 9 9 9 10
2 5 6 4 5 10 7 4 7 6 7 5 6 6 12 21 19 17 15 14 12 11 10 9 8 5 2 2 2 2 2 1 2 3 4 5 5 5 7 7 10 11 11 11 11 12 11 8 6
2 8 9 7 7 6 8 6 4 5 7 7 8 10 16 20 18 15 12 11 12 11 11 9 7 5 3 3 2 3 3 3 4 5 5 6 7 8 8 8 9 9 11 9 11 10 9 8 8
10 7 4 6 5 6 7 5 4 5 7 5 2 11 17 16 16 14 13 12 11 10 10 9 8 6 5 4 3 4 4 5 5 6 7 7 8 9 9 10 11 11 11 12 11 11 10 9 8
13 9 7 6 7 3 3 3 1 3 3 4 7 10 12 13 13 13 13 13 12 11 11 11 9 8 6 5 4 4 5 5 5 7 8 8 8 9 10 11 12 12 12 12 12 13 12 11 9
6 8 6 4 4 3 4 4 3 7 2 6 7 10 12 11 13 13 14 13 12 11 12 11 11 11 8 5 4 3 3 4 5 5 7 8 8 9 10 11 12 12 12 12 12 13 13 12 11
8 9 6 5 4 3 3 7 4 4 0 2 7 9 12 13 14 13 11 11 10 12 12 12 12 11 8 5 4 3 3 3 4 4 6 8 9 10 12 12 13 13 13 14 13 13 13 13 13
6 4 5 6 2 2 6 10 8 4 4 7 4 8 12 15 13 9 7 10 12 12 12 12 13 10 7 5 4 4 4 3 4 5 7 8 10 12 14 15 15 15 16 16 16 16 16 16 15
2 3 2 7 3 4 3 2 6 7 7 11 9 8 12 13 11 9 8 10 11 10 10 12 11 9 6 4 4 5 5 4 5 6 8 10 12 13 15 18 19 17 18 18 18 19 19 19 18
3 3 2 1 5 6 3 5 6 8 5 5 5 5 8 10 9 6 5 6 5 3 4 8 7 4 2 3 4 5 5 6 6 7 8 10 12 13 14 17 20 19 20 22 22 22 22 23 23
1 1 3 3 4 9 1 2 8 8 6 6 4 5 8 9 6 5 7 7 5 5 4 4 4 3 1 2 4 5 5 8 9 9 10 13 13 15 16 18 19 20 21 23 24 25 26 26 26
2 3 2 1 1 5 2 3 7 9 9 8 9 10 10 11 11 12 12 13 13 11 8 6 5 5 4 3 4 5 8 7 10 8 13 13 16 16 16 17 19 21 22 22 23 24 26 28 27
2 2 4 5 6 3 3 6 6 6 8 9 10 11 11 10 10 9 11 11 10 9 8 8 9 9 9 7 6 6 7 9 9 14 15 17 18 18 18 19 20 21 22 24 24 24 26 27 28
2 2 8 7 6 3 3 4 4 4 7 7 8 9 8 8 8 8 7 8 10 12 12 11 10 9 9 10 8 8 8 10 11 13 15 20 20 21 22 22 21 21 22 23 23 23 24 25 29
5 8 5 3 6 4 3 6 8 4 6 5 6 6 8 8 7 8 9 11 12 11 10 8 8 9 8 7 9 10 10 11 13 16 19 21 21 22 23 22 21 21 19 19 18 18 20 22 24
5 3 2 1 2 4 2 5 6 2 4 5 7 7 7 7 6 8 8 8 8 8 6 5 7 6 8 9 8 7 10 14 17 21 24 24 27 26 24 22 19 15 12 9 7 6 6 7 7
8 3 2 2 3 1 1 6 7 5 7 7 6 7 8 8 7 5 4 4 5 6 8 9 10 10 10 8 8 10 13 16 19 23 25 29 29 27 25 20 13 9 4 2 2 5 6 7 8
6 6 3 3 2 3 4 3 7 6 6 7 7 7 7 7 6 5 5 5 6 7 8 9 10 12 11 11 13 13 15 18 22 24 28 28 27 24 18 10 7 5 4 4 4 6 4 8 9
3 4 1 2 1 3 1 4 8 6 6 6 6 5 5 4 3 5 6 7 9 9 8 10 13 16 15 13 13 14 16 19 22 24 24 23 21 18 10 7 8 6 5 6 8 7 7 6 7
4 3 1 2 2 4 3 7 6 10 4 3 3 1 1 2 4 7 10 10 11 10 10 13 14 14 11 12 11 13 16 17 18 20 20 18 14 9 7 7 5 6 8 10 9 9 9 8 7
3 2 2 1 2 3 4 6 4 3 2 2 5 5 4 5 8 10 12 12 10 8 12 15 13 11 11 10 13 15 15 14 15 15 14 13 11 9 7 6 7 8 11 11 9 12 11 9 9
2 1 0 2 2 2 4 7 3 2 3 3 10 3 5 7 10 9 10 10 9 11 13 12 13 13 14 15 17 15 13 14 15 14 13 12 11 9 8 9 10 14 13 13 11 11 12 12 13

GFSSGP_925_spd_015.txt.gz
Wind_Speed
6 6 8 9 7 9 9 6 11 11 9 8 5 10 15 14 13 6 15 13 14 14 11 10 9 9 8 7 6 6 6 6 7 6 4 5 5 4 3 3 3 4 6 8 8 9 7 9 9
8 7 10 8 9 8 9 9 13 13 13 10 8 6 9 14 16 14 15 13 14 14 13 11 11 10 8 8 6 6 5 6 5 5 4 3 2 2 4 6 8 8 8 8 7 5 6 6 7
7 9 9 6 13 6 8 9 14 12 8 4 7 11 5 9 10 15 18 14 14 13 12 12 12 11 9 7 6 4 5 5 4 3 2 1 1 3 5 6 7 7 7 8 7 6 7 7 8
8 7 6 9 12 11 10 12 14 10 6 1 9 12 8 12 8 18 16 15 15 14 12 12 11 10 8 6 5 4 4 3 2 3 2 2 2 4 5 7 7 8 9 9 9 9 8 8 8
14 10 9 6 13 10 11 11 10 12 11 7 3 8 12 11 15 17 15 14 14 14 12 10 10 9 6 5 5 4 4 4 4 3 3 3 4 5 5 5 6 7 8 9 9 9 9 9 8
9 11 6 9 11 9 7 6 1 5 6 7 3 12 13 12 16 15 14 14 13 13 11 9 8 8 6 5 5 4 5 5 5 4 3 3 4 4 4 5 5 6 6 7 8 8 7 7 7
16 10 9 15 11 10 8 3 5 6 7 4 6 10 9 14 15 15 14 13 12 11 10 9 7 4 5 5 4 3 4 4 4 3 4 4 5 5 5 5 5 6 7 8 8 7 7 7 7
7 1 10 10 11 13 7 4 4 3 12 8 5 8 13 17 16 15 13 13 12 11 10 9 6 6 3 3 4 4 4 3 3 4 5 6 5 10 8 6 8 8 8 8 8 8 9 9 9
8 5 7 7 7 8 7 8 2 3 7 1 3 10 20 20 16 15 13 13 11 10 8 6 6 4 3 3 4 4 5 5 5 6 8 6 4 6 5 7 9 9 9 10 11 11 11 10 7
9 4 12 7 5 9 8 4 7 7 8 9 8 7 20 19 17 15 15 13 13 10 9 8 5 3 2 2 2 1 1 2 2 4 5 6 7 6 9 7 13 11 11 14 9 12 13 7 10
4 7 8 4 1 7 8 5 4 6 8 9 12 11 17 17 17 15 14 14 13 12 10 8 6 2 1 4 4 2 2 2 3 4 6 8 8 7 9 9 9 10 13 10 11 12 11 10 11
4 7 5 6 4 1 5 7 4 4 10 7 8 13 15 15 15 15 13 13 12 12 10 8 6 5 3 2 3 3 2 2 4 5 7 8 9 10 10 11 12 12 12 13 12 13 12 12 11
10 8 9 7 5 1 4 4 2 5 9 5 6 11 12 13 14 14 13 10 10 9 8 7 8 7 4 2 3 3 2 2 2 3 5 6 7 9 10 11 12 12 13 13 14 14 14 14 13
7 9 8 7 6 4 6 5 8 6 6 10 9 11 13 12 13 13 11 10 10 10 8 10 8 7 5 3 2 2 1 2 2 1 3 4 5 8 10 12 12 13 14 14 15 16 16 16 15
8 8 9 8 8 5 7 10 11 8 5 10 12 11 10 10 11 11 10 8 8 9 9 6 8 8 8 4 3 2 1 2 2 2 2 3 5 8 11 13 15 16 17 17 18 18 18 18 17
11 9 11 9 8 5 12 13 11 6 6 10 10 12 10 11 11 11 10 10 8 7 6 7 7 9 9 4 3 3 2 3 5 5 5 6 7 9 11 14 16 17 18 19 20 21 21 21 21
9 11 3 9 4 2 8 3 15 2 7 11 11 11 10 10 11 9 6 6 7 8 6 6 8 9 7 4 4 3 4 6 7 6 8 7 9 10 12 14 17 17 20 21 22 23 22 23 23
7 4 9 2 7 6 9 10 5 5 7 11 12 10 8 10 12 8 4 3 3 2 2 4 7 5 3 2 3 6 6 7 7 8 9 9 11 10 13 15 17 18 20 21 22 22 25 25 26
5 4 5 5 5 6 5 7 3 4 4 5 6 5 5 7 12 10 6 8 9 6 5 5 6 3 1 2 4 5 6 9 11 10 9 11 11 13 14 16 16 17 19 20 22 23 23 24 25
4 5 1 1 2 6 5 5 5 6 6 6 7 8 10 11 12 12 14 15 13 10 8 7 5 4 3 3 4 4 7 9 10 10 10 13 12 16 17 16 18 19 20 22 23 24 25 25 24
3 7 6 10 8 10 9 9 10 8 10 10 11 12 12 13 11 10 12 12 11 10 8 8 7 6 7 6 5 7 10 11 15 14 18 16 18 19 20 20 21 22 22 24 23 23 24 25 26
8 4 8 10 8 6 11 3 9 12 10 10 11 10 9 9 8 8 9 10 10 10 9 8 6 5 6 7 5 6 9 13 15 16 17 19 21 21 22 24 23 22 22 25 24 24 23 23 25
6 8 8 8 9 9 10 8 10 10 11 10 8 8 8 7 7 8 9 9 9 8 7 5 4 5 6 7 7 9 11 13 15 16 18 21 20 21 23 23 23 23 23 21 20 19 17 17 20
7 8 6 6 4 5 3 7 9 7 9 5 8 6 5 6 6 7 6 5 6 5 5 5 7 8 8 9 9 10 12 14 17 18 20 20 22 24 23 23 23 22 19 16 15 8 8 8 8
8 7 4 3 4 1 4 7 9 8 7 7 6 6 6 6 5 3 2 3 3 5 6 8 10 13 12 10 13 14 14 16 17 20 21 25 25 24 23 22 19 16 14 12 9 6 5 6 8
5 7 3 4 3 5 8 5 8 10 9 6 6 5 5 5 4 4 4 6 8 8 10 10 13 16 17 17 16 16 16 16 18 19 22 22 24 25 23 20 15 13 9 9 11 10 10 10 6
3 4 3 1 1 3 5 6 9 10 9 6 4 1 3 3 3 4 7 7 10 11 10 10 13 17 19 17 17 16 17 18 19 20 21 22 22 22 21 16 13 10 7 8 10 13 16 13 10
7 3 3 1 3 4 3 10 7 10 8 6 4 2 5 6 7 7 10 12 11 11 10 12 16 17 16 14 15 16 19 19 20 20 21 22 21 21 19 16 11 11 10 13 17 17 15 14 14
2 1 3 5 3 4 5 5 8 5 4 4 6 8 8 8 8 9 11 11 11 11 12 16 16 16 16 15 17 18 18 17 17 19 19 18 19 18 17 14 13 10 14 16 16 16 17 12 13
3 4 4 2 3 3 4 8 7 5 2 5 9 10 5 8 10 9 11 12 14 15 17 20 16 14 15 17 19 21 19 18 20 17 16 16 18 19 18 15 13 19 18 14 13 15 14 14 17

GFSSGP_925_spd_018.txt.gz
Wind_Speed
10 9 9 12 6 6 15 7 13 9 10 12 15 15 20 16 10 9 17 16 23 20 17 15 15 14 13 12 12 12 12 12 12 11 10 10 9 7 7 8 8 8 9 9 10 9 10 11 12
9 11 10 5 7 11 4 10 13 16 15 9 9 8 21 18 19 17 18 18 20 26 19 17 16 14 13 12 12 12 12 10 10 9 8 8 6 6 7 7 8 9 9 9 8 8 9 10 10
8 6 3 4 9 14 11 11 15 12 8 9 5 19 14 14 15 18 20 19 20 22 19 19 16 15 13 12 11 11 10 9 9 8 7 7 6 6 7 7 7 8 8 8 8 9 9 9 9
6 4 4 7 12 12 16 16 14 9 3 4 15 13 15 18 19 21 20 20 24 20 19 18 17 15 13 12 10 10 9 9 8 7 7 6 6 6 6 7 8 8 9 10 10 10 10 11 11
13 4 8 11 9 12 13 13 8 6 7 8 5 18 16 23 23 20 20 20 26 18 16 16 15 14 12 10 10 9 8 8 7 6 6 6 6 6 7 7 8 8 8 9 9 9 10 10 11
5 3 8 8 12 11 10 6 3 18 10 9 12 17 14 20 20 19 19 20 19 19 13 15 13 12 11 10 9 9 8 8 8 7 6 6 6 6 7 7 7 7 8 9 8 9 9 9 10
10 8 17 12 11 9 6 2 3 4 8 6 8 16 12 18 18 17 18 18 17 16 14 12 11 11 10 10 8 8 7 8 7 7 7 6 7 10 10 7 9 9 9 9 9 10 10 10 10
11 10 15 9 9 12 6 3 8 5 13 9 9 7 14 19 17 17 16 15 16 15 14 14 6 7 6 8 8 8 7 8 8 9 11 7 5 7 8 8 12 13 12 12 12 12 13 12 10
18 11 6 7 9 11 7 5 3 7 8 5 6 8 23 22 19 16 16 14 14 14 10 12 11 9 6 5 8 7 7 7 6 7 10 7 8 7 5 10 10 11 13 16 10 11 15 11 9
9 8 11 11 10 11 8 5 8 5 9 8 9 20 24 20 18 15 14 12 15 13 11 10 10 7 5 6 1 5 3 6 5 5 6 10 9 3 8 7 9 8 14 14 8 15 13 12 12
6 9 9 8 8 6 7 11 5 6 7 12 13 14 16 18 16 14 15 16 14 12 11 16 10 6 2 6 4 6 5 6 3 8 5 6 7 7 8 11 11 15 15 11 15 15 15 9 17
2 5 8 12 3 2 6 10 3 2 10 8 15 14 17 13 13 13 13 17 15 16 17 17 14 8 5 3 6 7 7 6 4 7 5 5 5 5 7 8 9 10 11 12 11 13 13 16 13
7 5 10 8 6 3 6 6 4 1 8 3 12 12 14 12 14 14 14 15 17 18 18 18 18 13 7 3 4 3 3 4 3 3 3 2 3 5 5 7 9 11 13 13 12 14 16 16 15
9 8 9 8 7 4 5 7 6 8 13 8 7 12 11 13 16 17 13 12 15 15 16 15 19 15 12 4 3 2 4 2 3 2 2 3 3 5 6 8 10 12 14 15 17 19 19 18 17
6 7 6 6 7 7 6 7 11 10 8 11 10 7 12 12 14 15 13 10 11 12 9 16 10 18 12 6 4 2 3 3 0 1 2 3 3 6 8 9 11 13 15 17 19 20 19 21 21
9 8 9 11 10 6 8 10 14 11 10 9 13 11 9 11 12 15 12 6 6 11 5 3 12 10 10 5 5 3 2 2 3 7 6 7 4 6 9 11 14 16 18 19 20 22 22 21 22
8 9 8 9 9 2 11 12 14 12 7 8 7 9 9 7 12 15 15 7 2 4 6 4 9 8 8 8 2 4 4 4 7 6 7 1 5 8 10 15 17 20 21 20 22 22 22 21 22
13 10 4 5 9 6 9 10 9 7 3 8 10 10 11 9 9 15 18 13 12 10 6 4 12 10 7 6 1 3 6 6 7 6 4 7 10 7 11 15 19 21 21 22 22 23 24 24 25
10 7 7 12 7 3 9 10 3 9 6 3 4 3 6 18 21 23 18 16 11 9 17 15 13 10 4 3 4 8 11 11 11 9 11 8 11 12 14 17 17 21 22 23 25 26 28 27 25
6 6 6 5 6 3 10 9 10 6 6 5 6 6 15 15 14 18 19 18 16 14 13 13 12 10 9 8 5 4 7 6 7 10 6 11 13 14 18 20 21 20 22 23 23 25 27 24 22
5 5 9 8 11 10 12 11 12 9 4 9 11 11 14 12 12 12 16 14 14 15 13 13 11 10 10 9 8 8 9 10 11 12 17 14 15 20 20 19 23 22 20 20 22 28 26 23 22
7 6 6 9 9 8 12 7 13 13 10 11 12 11 10 11 10 11 14 12 14 13 11 9 7 8 8 9 9 11 14 16 17 15 17 18 19 17 21 23 24 23 22 23 24 20 23 19 16
5 5 7 9 10 10 12 7 14 16 13 12 11 11 9 10 9 9 11 13 13 10 8 6 6 4 3 6 7 8 10 13 16 18 18 20 16 22 23 24 25 24 26 24 19 11 13 14 15
7 9 11 8 9 3 12 1 4 3 13 13 12 10 8 8 7 8 8 11 12 8 5 6 8 10 10 2 7 9 11 13 16 17 18 19 22 22 21 22 24 23 16 12 12 11 10 7 8
6 9 4 2 3 1 4 3 8 9 8 11 11 10 9 6 7 5 6 9 7 4 5 5 11 14 15 15 12 13 13 15 15 17 18 21 21 20 23 21 18 18 12 13 11 9 10 12 19
4 6 2 4 4 4 4 3 9 12 9 10 11 9 8 7 4 4 5 3 6 10 11 9 10 14 16 14 15 13 12 12 13 15 17 17 18 19 21 24 19 11 9 10 11 12 15 16 18
5 5 3 1 2 2 5 12 13 11 9 8 8 4 5 3 3 4 6 6 8 9 11 9 9 14 15 16 12 11 12 13 12 15 16 17 15 18 22 22 12 10 9 11 15 20 21 23 20
4 1 2 2 2 3 8 7 6 7 6 6 5 4 5 4 6 6 9 15 13 11 9 10 12 13 13 14 15 15 16 15 14 16 15 13 19 20 22 22 17 14 13 15 19 17 19 17 18
1 2 2 3 0 2 3 1 8 6 5 3 5 7 7 7 7 8 14 11 13 14 13 13 16 14 13 13 14 16 18 16 16 10 15 15 19 19 22 22 20 16 18 19 16 16 14 12 14
3 4 3 1 3 1 1 7 8 4 6 10 10 11 7 9 11 11 12 12 12 13 12 15 11 11 14 15 19 20 19 17 13 14 14 17 17 17 20 24 22 22 20 18 19 19 18 16 16

GFSSGP_925_spd_024.txt.gz
Wind_Speed
8 6 5 2 3 3 4 5 5 6 6 8 10 12 10 6 2 6 16 22 28 27 22 20 20 19 19 19 19 19 18 17 16 15 13 13 12 11 11 10 10 10 10 10 10 10 9 10 10
6 3 3 1 4 3 4 1 11 16 14 16 16 16 15 7 6 12 14 24 27 27 24 22 21 20 19 19 18 18 17 16 14 13 13 12 11 11 11 11 11 11 12 11 11 11 11 12 11
3 2 3 2 2 5 4 2 13 7 12 9 6 7 6 7 9 8 23 27 27 27 25 22 20 20 19 19 18 16 15 14 13 12 12 11 11 11 11 11 11 10 11 11 11 11 11 11 11
2 4 4 2 6 7 7 6 17 16 10 12 12 7 5 10 7 21 28 29 29 27 24 22 21 20 18 17 15 15 14 13 12 12 11 11 11 11 10 11 10 10 10 10 11 11 11 11 12
4 2 1 3 5 6 5 3 11 10 9 10 10 4 5 9 33 35 31 30 30 26 24 21 19 18 16 16 15 15 14 13 12 11 11 12 11 10 11 12 10 10 9 9 10 11 11 11 11
3 3 1 1 5 7 9 3 17 18 20 16 17 11 5 25 34 32 32 29 27 27 23 20 18 17 16 16 15 14 13 13 13 13 13 12 13 13 13 12 11 11 10 10 11 12 13 12 12
5 3 3 4 6 15 6 2 8 14 9 5 10 11 5 14 32 32 30 26 25 24 23 21 20 17 15 14 14 15 15 14 13 13 13 11 11 11 11 11 11 13 10 11 12 14 14 13 12
4 3 2 3 4 11 4 3 7 9 4 8 16 7 12 14 34 32 28 25 24 24 23 21 18 16 14 15 15 16 16 16 15 12 10 9 8 8 8 6 7 9 8 8 10 11 11 12 11
5 2 4 6 3 11 7 9 6 4 8 0 1 8 22 38 35 32 29 28 27 25 23 21 17 15 14 15 15 15 14 13 12 9 8 5 5 4 4 3 5 6 6 5 9 9 9 10 9
4 2 3 5 9 5 6 9 7 6 7 6 10 14 27 36 32 25 23 24 29 27 25 21 18 15 13 14 12 12 12 12 10 10 7 5 3 2 2 2 3 4 5 6 8 8 9 10 13
5 4 2 8 4 7 8 5 4 11 2 14 20 14 17 23 25 24 26 34 33 30 28 24 20 16 12 9 12 12 11 12 11 8 7 5 3 4 3 1 2 3 6 9 10 10 9 13 17
4 1 5 2 3 5 8 7 5 4 7 20 23 22 12 11 17 23 24 26 27 31 30 25 21 18 15 13 10 13 11 12 13 11 9 7 7 4 3 1 2 5 8 11 12 12 15 19 21
7 3 6 5 7 3 4 6 4 4 11 14 16 17 16 15 22 28 31 30 31 35 32 27 22 16 14 15 14 13 13 16 13 13 6 6 6 3 2 2 4 7 10 12 13 16 20 22 23
6 7 6 6 3 3 5 3 5 1 16 16 18 16 16 16 24 26 27 30 30 28 32 27 24 18 14 12 10 11 16 13 14 10 8 6 3 3 3 4 6 7 10 13 16 19 20 21 22
8 6 5 0 3 3 5 3 5 7 18 18 18 17 15 16 24 23 31 31 31 34 34 31 27 13 11 13 7 8 8 8 9 10 9 7 4 2 4 5 6 10 12 15 18 19 19 20 22
5 5 3 3 3 1 5 6 5 9 15 18 16 13 13 13 17 17 6 15 32 39 37 33 24 10 15 10 8 6 10 7 4 5 9 6 5 4 2 5 8 11 14 17 20 22 24 26 28
5 3 4 2 8 3 3 6 6 9 12 14 12 4 5 8 15 16 20 22 29 36 36 29 19 10 13 12 7 9 7 1 2 4 6 6 4 6 8 11 12 13 15 17 18 20 24 26 30
5 5 3 7 5 2 4 6 5 4 7 6 9 9 13 16 11 22 30 31 26 24 25 18 15 16 10 9 10 9 14 14 13 12 12 11 10 10 10 11 12 14 16 17 19 20 22 25 30
5 5 7 2 1 4 5 3 3 3 9 11 15 14 16 15 16 26 34 36 36 34 31 25 22 16 13 11 15 15 19 23 19 16 12 11 10 12 14 16 18 19 20 20 21 24 26 30 26
5 8 4 5 7 4 6 5 5 7 7 16 19 15 15 13 13 20 29 31 32 27 25 22 20 18 17 16 15 13 10 14 15 10 10 11 12 14 16 19 20 21 23 25 26 24 21 17 15
5 5 3 2 3 3 8 5 6 7 14 11 9 10 13 14 13 11 21 27 25 22 19 19 17 15 12 10 9 8 7 7 8 10 11 14 15 17 20 22 21 24 24 21 18 15 13 11 10
2 3 3 2 4 2 3 1 5 6 9 7 8 8 10 12 10 13 19 22 21 17 16 13 11 10 10 8 7 7 7 6 6 6 8 12 17 20 21 18 19 20 20 20 16 12 12 12 9
3 2 1 1 3 4 6 6 4 6 10 9 7 9 8 9 11 9 17 19 15 13 12 12 12 9 6 6 7 7 9 8 4 4 9 14 17 18 16 15 19 19 16 15 14 15 11 12 13
1 2 7 4 3 3 5 5 4 4 7 8 5 7 9 7 7 12 19 17 14 10 10 10 12 11 7 6 6 5 6 5 5 8 12 14 14 12 11 15 19 14 11 13 13 12 17 21 20
8 5 3 4 4 3 5 5 1 6 8 9 9 7 7 7 8 8 11 12 9 6 7 8 9 13 10 9 7 5 4 3 5 8 9 9 7 4 9 13 13 11 14 17 19 18 19 21 19
3 5 5 4 2 3 5 3 1 5 14 10 9 7 6 7 6 5 6 9 10 9 7 8 9 9 7 6 7 5 4 4 5 4 5 5 4 4 7 8 8 10 13 15 14 14 16 16 17
3 4 4 6 3 3 1 3 2 6 9 9 8 7 4 7 7 9 17 17 14 13 10 7 4 3 4 5 4 2 4 6 5 8 10 10 8 8 7 5 9 11 12 14 12 13 14 14 17
5 2 4 4 2 1 3 2 4 5 6 6 7 8 9 9 9 8 14 14 12 10 9 7 3 6 5 3 3 9 11 11 13 13 14 13 12 9 7 7 8 9 9 9 11 13 15 14 13
4 3 5 4 3 4 2 4 4 7 5 8 8 9 7 7 7 6 12 13 12 9 9 7 6 3 3 9 10 11 14 12 14 17 19 18 15 11 8 8 6 7 7 8 9 10 9 5 6
2 3 4 4 2 2 3 4 4 10 9 9 11 9 7 7 6 10 10 10 11 9 10 7 4 8 11 12 14 16 10 12 15 17 22 19 14 13 12 8 8 8 7 9 10 9 4 7 10

GFSSGP_925_spd_027.txt.gz
Wind_Speed
8 1 4 4 1 4 3 5 2 1 4 5 4 4 7 4 2 2 7 10 28 26 23 21 21 20 20 19 19 18 18 17 16 14 13 12 11 11 11 11 11 11 11 11 12 12 12 11 12
4 2 4 2 3 2 3 4 7 7 11 10 9 5 9 5 4 12 12 23 27 27 24 22 21 20 20 19 18 17 16 15 14 13 12 12 11 11 11 11 10 10 12 12 13 13 12 12 12
4 1 4 3 2 4 3 1 8 13 12 7 5 5 4 2 10 11 15 27 26 25 25 22 21 20 20 18 17 16 15 14 14 13 12 12 11 11 10 10 10 11 12 12 12 12 12 11 12
5 4 4 4 6 7 4 2 11 8 5 7 14 5 4 3 5 13 31 28 27 25 24 22 20 19 18 17 16 15 14 13 13 13 12 12 11 10 10 10 10 10 11 12 12 13 12 12 12
0 3 3 1 3 4 4 4 9 5 6 9 7 7 3 2 18 31 28 28 29 26 23 21 19 18 17 16 15 14 14 12 13 13 12 12 11 11 11 10 11 11 11 12 13 13 14 13 12
3 2 4 3 5 6 5 9 4 4 6 12 10 7 3 13 29 27 29 28 28 26 23 20 17 16 15 15 14 14 13 13 13 12 12 12 13 11 12 13 13 12 12 14 14 14 15 16 15
4 3 3 4 2 6 4 4 2 11 6 5 10 5 4 5 24 30 30 28 26 24 22 19 17 16 15 15 15 15 14 13 13 13 12 12 10 10 10 11 10 10 10 12 13 13 14 15 15
4 3 2 3 8 4 5 3 4 4 2 8 10 7 7 10 27 31 29 27 26 23 22 20 17 16 16 16 15 15 15 14 13 11 9 8 7 7 6 7 6 6 7 8 8 9 10 11 13
2 4 2 3 14 10 8 6 2 2 8 1 1 6 18 32 32 31 29 26 24 23 23 20 18 18 17 17 17 16 14 13 11 9 6 5 4 3 2 3 3 4 4 5 6 7 8 10 12
3 4 8 7 7 9 5 9 9 5 2 5 7 13 29 28 29 25 21 22 26 26 24 22 21 19 19 19 17 15 14 12 9 7 5 5 4 3 2 0 1 4 6 7 9 10 10 11 15
5 3 2 3 5 10 9 5 3 12 2 7 15 16 19 24 21 23 22 32 34 29 26 24 20 19 18 18 17 15 13 12 10 7 5 5 5 5 3 2 3 5 8 10 10 10 11 14 17
3 3 5 3 6 7 8 8 7 1 9 12 21 22 19 14 17 21 23 26 28 28 28 24 23 21 19 16 15 15 15 14 12 9 7 6 3 2 1 2 5 7 9 10 10 11 14 16 18
5 5 3 6 8 5 6 5 7 4 8 10 15 19 18 14 18 25 32 32 28 29 28 26 24 20 17 14 15 15 14 15 12 10 8 6 6 5 3 2 5 7 9 11 13 14 16 18 20
6 3 4 4 5 2 6 3 2 4 8 12 18 16 14 15 23 23 22 29 30 31 32 29 25 19 18 15 12 13 14 12 13 12 9 7 7 5 3 3 4 6 10 11 13 15 16 17 19
6 6 5 3 1 3 5 3 4 6 11 17 17 16 12 15 18 17 21 26 33 36 35 29 26 19 16 13 9 9 11 10 9 11 8 6 4 2 1 3 5 9 11 13 15 18 20 21 21
4 5 3 3 4 4 5 7 2 9 14 15 13 9 4 6 6 2 8 20 31 33 33 27 22 11 10 11 7 6 7 5 5 8 5 2 4 6 4 5 9 11 13 16 19 22 24 26 27
7 2 2 3 3 2 3 4 3 9 13 12 5 7 7 7 13 10 5 17 27 29 30 24 15 5 3 4 10 12 10 10 11 12 11 9 9 10 10 13 14 15 18 20 22 23 24 26 29
4 1 2 5 5 4 1 9 2 8 6 7 7 8 8 9 7 13 19 19 23 21 20 20 11 12 10 15 17 17 19 18 15 14 12 10 11 11 13 15 17 20 22 24 25 26 27 26 22
2 2 3 3 1 5 3 6 8 3 9 9 8 11 10 11 7 17 24 27 26 20 16 10 11 12 15 18 16 16 20 16 15 13 10 10 10 12 14 16 18 20 22 21 21 22 21 22 23
5 6 3 1 5 6 6 8 11 8 5 6 12 12 11 8 9 17 29 31 27 23 22 19 18 16 14 13 14 11 11 11 9 7 6 7 8 11 14 18 19 20 23 23 23 21 19 15 18
4 4 3 3 4 6 5 5 7 6 10 10 8 8 8 11 11 9 18 24 23 23 21 20 18 14 11 9 8 10 9 5 4 4 6 8 10 14 17 15 13 17 22 19 16 15 16 15 15
2 1 3 3 4 3 3 2 4 4 7 7 6 6 8 9 9 13 14 21 22 22 20 18 16 13 10 7 5 5 5 7 6 5 5 6 11 15 14 12 13 17 15 9 9 11 12 12 14
3 2 3 3 3 3 4 5 2 5 2 4 5 5 7 8 11 9 16 23 20 17 16 14 14 12 10 8 4 5 7 6 5 2 4 10 12 13 12 11 14 16 9 7 9 10 11 12 12
1 4 6 4 3 3 3 4 4 6 6 6 4 4 5 6 6 9 13 16 15 13 14 13 11 9 7 6 6 7 8 8 4 1 8 14 15 14 12 10 12 11 8 9 10 11 11 12 12
5 5 2 3 3 4 5 3 5 5 5 6 7 7 7 6 5 4 7 11 11 13 13 9 8 9 7 6 6 5 4 3 3 8 12 14 15 16 14 12 11 8 8 8 10 11 12 12 12
3 4 4 5 3 3 5 2 4 1 10 11 8 9 6 6 5 3 7 12 14 13 8 7 9 7 7 7 7 5 2 6 9 12 14 15 16 17 14 13 9 7 8 9 11 12 14 13 13
1 3 3 6 3 3 2 2 6 2 11 10 12 9 7 6 7 7 13 13 14 10 5 2 2 6 8 6 3 4 9 11 14 14 15 17 18 17 17 13 11 10 10 9 12 13 15 14 13
4 4 3 4 2 1 3 3 4 8 7 8 5 8 7 7 7 6 12 11 8 6 4 3 3 4 2 4 10 11 12 14 16 17 19 20 20 21 18 14 12 13 12 10 10 10 11 13 13
4 2 6 5 3 4 1 5 5 10 8 8 6 7 10 9 7 6 10 9 6 5 4 1 5 3 5 8 11 14 16 18 16 18 21 22 23 17 13 10 11 18 15 11 9 9 13 11 9
1 3 4 4 2 1 3 5 3 6 9 10 11 8 6 7 6 6 7 7 5 3 1 7 1 4 7 10 12 13 11 14 18 21 22 24 20 16 16 16 16 15 16 11 11 13 11 9 11

GFSSGP_925_spd_030.txt.gz
Wind_Speed
6 6 6 3 4 4 4 6 1 3 3 2 7 10 8 3 1 1 6 7 21 22 21 21 21 22 21 21 20 19 17 16 15 14 13 13 13 13 14 13 13 14 14 14 14 14 14 14 14
5 1 1 2 4 3 5 3 2 3 10 12 10 7 8 6 4 6 12 19 25 23 21 21 21 21 21 20 19 17 16 15 14 13 12 13 13 14 14 14 14 13 14 14 13 14 14 15 15
2 2 3 4 3 4 4 2 8 9 4 5 5 5 4 7 3 5 14 25 25 23 22 21 20 21 20 19 17 16 16 15 14 12 12 12 13 13 14 14 13 13 14 14 14 14 14 15 15
2 5 4 4 3 5 3 5 8 4 2 6 7 6 4 1 6 8 24 23 23 21 21 20 20 19 18 17 16 16 15 14 13 12 12 12 13 14 14 14 13 14 15 15 15 16 16 15 17
3 2 4 2 4 5 2 11 2 2 3 4 3 7 6 3 8 24 24 23 23 22 21 19 18 18 17 16 16 15 14 13 13 13 12 12 14 14 14 14 14 15 15 15 16 17 18 18 18
3 2 5 1 4 6 3 9 4 6 5 3 4 7 2 9 22 21 21 22 22 23 22 20 18 16 16 16 15 15 14 14 14 13 13 14 13 14 14 14 15 15 15 16 16 16 16 16 16
4 3 6 5 3 6 2 6 8 1 5 5 4 5 2 6 16 22 22 21 23 23 22 19 18 17 15 15 15 14 14 13 13 13 13 12 12 12 12 12 12 12 12 13 13 14 14 15 16
4 4 5 4 6 7 3 6 10 15 9 3 5 6 7 8 20 25 24 24 24 21 20 19 18 16 16 15 14 13 13 13 13 12 10 10 10 9 8 9 8 8 8 8 9 9 11 13 15
3 3 3 5 9 15 5 7 4 2 4 3 4 5 9 27 26 27 26 23 22 21 20 18 17 17 16 16 15 14 13 13 12 10 8 7 6 5 5 4 4 6 5 6 7 8 9 10 13
4 2 3 7 8 11 4 8 8 5 2 4 4 9 25 28 27 22 20 22 23 23 22 19 18 18 18 18 17 16 15 13 10 9 7 6 4 2 2 2 3 4 5 7 7 7 7 8 12
3 5 5 6 6 6 7 4 4 9 2 6 11 12 16 19 18 19 23 28 31 26 23 20 19 19 18 18 17 16 14 12 10 8 6 5 3 2 1 1 2 4 5 6 6 7 9 12 14
1 7 4 2 6 8 9 8 5 3 5 9 16 20 16 12 16 20 22 27 27 27 23 21 20 18 18 18 17 15 14 12 9 7 4 3 3 2 3 2 2 4 5 7 9 10 12 13 15
3 3 3 5 8 8 8 4 7 2 3 12 15 17 17 16 18 22 30 29 26 26 25 23 20 18 16 14 14 15 14 12 8 7 5 3 2 1 3 3 4 6 8 9 11 12 14 15 17
5 4 2 4 4 5 7 4 4 1 7 12 16 15 13 13 20 18 15 27 29 27 25 20 18 14 12 10 10 14 12 10 9 8 6 3 1 1 3 4 6 8 11 12 13 15 15 16 16
3 4 5 5 2 4 4 3 2 4 8 13 13 13 9 4 9 10 18 23 27 24 21 19 14 8 5 4 4 2 5 6 6 6 3 2 4 6 7 8 10 12 12 14 15 16 17 19 20
5 5 4 3 1 1 5 6 0 7 14 10 7 6 6 4 2 3 9 20 21 21 20 16 13 8 8 5 4 6 3 5 7 7 8 10 11 9 10 10 11 11 13 16 18 20 21 21 21
7 3 1 1 2 3 3 0 8 2 6 7 6 7 6 4 5 3 7 13 19 20 21 21 15 8 6 4 7 10 11 14 16 15 13 11 11 10 10 10 12 15 18 21 20 19 19 18 18
5 4 1 3 2 2 4 5 7 2 6 6 6 6 6 6 6 7 3 8 15 22 26 25 17 13 8 15 17 20 19 16 14 12 10 8 8 9 10 13 16 20 22 21 21 20 19 17 20
4 3 3 2 2 7 6 5 8 4 7 6 6 7 7 7 6 11 14 19 23 22 25 20 16 16 20 22 20 18 17 14 11 8 6 5 5 8 12 16 18 17 18 19 20 20 19 18 22
6 5 2 2 6 6 6 8 8 8 3 4 7 7 7 7 6 14 22 24 26 25 24 21 21 21 19 17 14 10 12 9 6 5 3 4 8 12 16 18 16 15 18 20 18 16 15 11 16
4 4 1 2 3 7 4 4 5 5 6 8 7 5 5 8 8 6 16 23 23 25 27 27 25 22 16 10 9 9 9 8 6 4 2 6 11 13 15 16 13 14 16 14 11 13 16 13 15
3 0 2 4 3 3 3 3 2 3 4 4 5 5 6 6 4 5 8 14 20 18 17 16 14 12 11 9 7 7 5 7 4 3 2 6 10 13 16 16 12 12 13 11 10 9 11 9 10
1 5 4 3 5 4 4 4 3 6 3 5 5 5 5 7 6 7 5 12 13 12 10 11 8 8 6 5 3 2 2 3 5 1 4 7 9 13 13 13 11 10 8 6 4 6 8 9 10
4 5 8 5 3 2 1 4 3 5 6 6 4 5 7 5 2 7 10 10 9 11 11 10 9 7 5 4 2 2 2 3 1 4 7 10 11 14 15 15 13 12 10 8 7 7 9 11 11
6 5 3 3 3 4 3 3 6 5 5 9 9 8 7 6 7 7 13 17 15 9 11 12 10 6 4 3 3 3 1 2 6 9 13 14 15 18 19 18 17 15 12 10 9 10 9 11 13
3 5 5 5 3 3 3 3 4 4 7 9 9 8 6 6 4 5 9 10 14 13 10 8 6 5 5 3 3 1 5 8 10 14 14 16 19 21 21 22 18 15 12 12 13 15 14 14 14
2 3 3 6 2 3 2 3 4 5 4 7 9 7 7 6 6 6 10 12 14 12 8 7 4 6 5 3 3 6 9 13 15 16 18 20 22 25 24 21 17 13 13 14 16 20 18 16 16
2 5 3 3 2 3 4 4 5 5 7 8 8 8 7 5 6 6 12 12 10 9 5 2 5 6 4 4 7 9 11 14 15 16 18 20 24 25 24 20 16 17 18 15 13 16 18 15 14
2 2 6 4 3 4 1 5 5 12 12 12 8 7 8 8 7 6 9 8 7 6 3 5 6 3 3 7 9 10 12 11 14 15 15 16 17 19 21 22 19 19 16 15 16 18 16 15 12
2 3 5 4 3 1 3 5 2 6 9 7 7 7 5 6 6 6 7 7 5 3 5 7 1 3 5 6 6 6 9 10 10 12 13 16 20 22 23 20 17 13 17 14 14 15 18 12 11

GFSSGP_925_spd_033.txt.gz
Wind_Speed
4 4 1 1 2 1 2 2 1 7 4 2 6 10 11 7 3 1 6 9 21 23 18 19 20 22 22 22 21 20 19 19 18 16 15 14 14 14 13 14 15 15 15 14 15 15 15 15 16
2 2 3 0 2 2 4 3 3 6 11 10 10 9 7 5 2 5 8 14 22 21 20 19 20 21 21 20 19 19 18 17 16 15 15 15 14 14 15 15 15 15 15 14 15 16 17 17 18
2 1 1 2 2 4 3 7 16 14 13 2 4 5 7 1 3 7 3 18 22 19 19 20 21 20 19 19 18 17 17 16 16 15 16 15 15 15 15 15 15 15 15 16 17 17 17 19 19
2 1 2 1 1 1 2 13 18 4 4 4 6 3 5 5 13 13 19 21 21 20 19 21 20 19 19 18 16 16 16 16 16 16 15 15 15 15 15 15 15 16 17 18 20 21 19 19 19
3 1 2 2 2 2 2 12 10 9 8 6 6 7 5 2 13 20 22 20 20 20 19 20 19 18 17 16 16 16 15 15 15 15 15 15 16 16 16 16 17 16 17 17 18 17 17 17 18
1 1 2 4 4 4 6 9 12 16 10 3 2 2 3 8 17 21 21 20 18 21 20 19 18 17 16 16 15 15 15 16 15 15 16 16 17 16 16 16 15 15 15 15 15 16 16 16 16
2 2 3 6 4 10 6 9 7 9 11 9 7 4 3 9 17 18 21 20 21 19 20 19 17 16 14 14 14 14 14 15 15 15 15 16 15 13 13 13 12 10 11 11 12 12 13 14 14
3 3 4 4 8 8 5 4 12 9 3 3 5 5 6 12 18 20 18 18 18 19 18 17 16 16 15 15 14 14 14 15 15 13 13 12 12 11 9 10 9 8 8 8 9 8 9 10 12
2 1 3 7 10 11 10 7 8 4 6 2 1 1 12 21 22 22 20 17 18 19 18 17 16 16 15 15 14 14 14 15 14 12 11 10 9 8 6 6 6 6 7 8 7 7 7 8 11
2 3 7 7 9 9 8 11 10 4 8 3 5 11 22 20 19 17 16 15 16 18 18 18 17 16 16 15 15 14 13 13 12 9 9 7 6 5 4 4 4 4 6 6 7 6 7 9 11
5 4 6 8 11 11 10 8 6 11 10 5 9 16 17 18 16 16 17 19 21 18 19 19 17 16 15 14 14 13 12 10 8 6 5 5 3 2 2 3 5 5 6 7 6 8 10 11 12
3 4 2 3 9 9 12 6 5 6 1 4 17 21 19 18 18 20 21 20 18 20 20 18 16 14 13 12 11 10 9 8 5 4 2 3 2 4 6 5 6 6 7 7 8 9 10 11 13
3 1 2 5 7 8 8 4 5 6 2 13 19 18 18 18 19 19 16 15 17 16 18 17 14 11 9 7 6 8 8 6 5 4 3 1 4 6 7 7 7 7 7 7 8 9 11 12 14
2 3 4 4 7 5 7 4 3 1 11 15 18 17 17 19 20 15 15 16 16 16 17 14 12 8 5 5 4 8 8 10 9 5 4 4 4 6 8 9 8 8 8 8 9 12 13 13 15
4 5 5 5 2 4 8 4 2 4 13 17 16 13 12 13 13 16 15 14 15 12 14 12 9 7 5 3 3 3 3 6 7 6 6 5 7 8 8 7 6 7 9 11 13 15 14 11 11
4 4 4 2 3 1 3 3 7 5 14 15 14 12 12 11 11 5 7 11 12 12 13 14 14 15 18 15 13 12 10 1 5 8 9 10 10 7 6 6 7 9 12 15 15 14 12 11 12
6 3 3 4 4 4 3 3 8 1 7 9 9 10 10 8 4 2 2 5 10 14 20 21 20 19 14 13 8 10 4 6 11 13 12 11 9 8 8 10 12 14 15 15 14 11 11 10 13
4 4 2 3 2 9 7 4 7 5 7 7 7 7 7 5 2 4 3 5 12 15 20 24 22 14 6 12 11 9 15 14 13 11 11 9 8 9 12 14 16 16 15 14 13 11 10 7 12
4 3 3 2 2 6 4 4 6 3 6 8 7 7 6 5 4 5 9 12 18 19 20 20 22 11 13 13 23 19 15 13 11 10 8 7 9 11 13 16 15 14 14 14 13 11 12 12 15
4 7 3 3 3 4 4 6 7 5 2 2 7 8 7 7 8 11 12 14 15 24 25 19 16 12 17 22 19 13 14 10 10 8 6 7 9 12 14 15 13 12 11 11 11 11 9 8 10
4 5 2 3 4 6 3 3 2 4 5 4 4 6 8 12 13 13 15 14 14 17 16 16 18 21 22 17 14 15 9 10 6 5 5 6 11 14 14 14 13 11 12 9 10 7 6 8 7
4 1 4 4 2 2 3 3 2 1 3 4 7 9 12 13 12 14 15 15 16 19 20 20 20 19 18 14 9 6 2 3 3 3 4 8 8 10 11 12 13 12 12 10 7 5 5 6 7
3 3 4 3 4 2 2 2 1 0 4 8 10 11 10 9 9 11 16 18 16 22 22 21 19 16 13 8 6 3 2 4 5 3 5 9 10 10 12 13 14 14 14 12 8 5 6 5 6
8 4 5 3 2 1 1 3 3 5 5 11 11 10 9 8 8 11 13 15 14 12 16 17 13 10 7 4 3 3 5 5 3 4 8 10 11 13 16 16 17 18 15 9 6 7 8 9 8
4 4 2 1 1 3 1 2 5 4 6 15 16 13 11 10 10 10 10 8 9 11 10 12 10 7 5 4 4 5 4 3 5 7 9 12 12 14 19 20 19 14 11 10 8 8 12 13 11
2 3 4 4 3 1 1 4 1 2 4 14 14 14 12 11 10 9 10 10 9 8 7 9 8 6 5 4 5 3 3 5 8 12 15 16 17 19 22 22 21 18 16 14 11 12 13 14 13
3 2 2 6 1 1 2 3 5 1 5 11 15 12 14 12 10 10 10 8 8 8 6 7 6 5 5 6 3 1 5 8 11 11 11 12 15 17 19 22 23 22 19 13 12 12 14 14 16
1 7 3 2 3 3 2 4 5 4 8 12 15 16 14 11 10 9 9 9 9 7 6 5 5 7 7 3 2 4 6 5 5 9 10 12 16 19 21 24 24 20 16 13 13 14 12 13 14
2 2 5 4 1 2 1 4 4 8 11 16 17 16 13 11 9 9 11 10 9 7 5 7 9 7 4 1 2 2 3 5 8 8 11 14 18 22 24 22 20 14 11 10 12 11 10 9 12
1 3 4 3 4 1 0 5 2 5 8 9 12 8 8 9 10 11 11 10 9 7 10 12 7 4 2 3 5 3 5 6 8 10 13 18 21 21 19 17 13 8 10 13 11 4 5 11 11

GFSSGP_925_spd_036.txt.gz
Wind_Speed
3 3 3 4 6 6 10 5 2 8 9 7 8 6 9 13 5 3 16 14 22 21 20 21 21 19 21 21 20 18 17 16 16 15 14 14 14 13 14 15 15 14 14 14 13 14 16 17 18
3 2 5 3 7 8 4 4 4 13 16 11 10 7 9 7 7 11 12 15 22 22 21 20 21 20 21 20 19 17 16 15 15 15 15 14 14 15 15 15 15 14 13 13 14 16 18 18 18
4 5 5 4 8 9 2 2 17 20 13 11 4 7 4 3 8 8 9 17 19 20 20 20 22 21 20 19 17 16 15 15 15 15 15 15 15 16 16 15 15 15 15 15 16 17 18 19 19
6 7 4 8 5 3 5 12 22 19 13 5 12 4 6 2 6 7 18 16 17 17 18 20 21 20 19 18 16 15 14 14 15 15 14 15 15 15 15 16 16 16 17 18 17 17 16 17 17
7 3 7 8 3 3 5 16 12 11 12 6 6 8 8 4 9 15 21 20 19 17 16 18 19 19 18 16 16 15 14 14 15 15 15 16 15 15 16 16 16 16 16 16 16 15 15 15 15
6 3 7 9 4 5 9 8 11 11 11 7 3 6 4 11 17 20 25 20 18 17 16 16 17 17 16 15 15 14 14 14 15 16 16 16 16 16 15 14 14 14 14 14 13 13 13 13 14
7 6 4 4 8 11 12 7 10 12 11 9 3 6 3 10 15 16 17 18 15 15 15 15 14 14 14 13 13 14 14 14 15 16 16 15 14 14 13 11 10 10 10 10 9 10 10 12 13
4 4 8 8 9 13 10 11 9 10 3 1 4 5 6 12 16 16 17 16 15 15 15 15 14 14 12 11 13 13 13 13 14 14 13 12 11 10 9 9 8 7 6 6 6 6 7 8 10
3 7 9 11 15 15 9 10 8 13 11 1 2 1 12 21 19 18 16 13 12 15 15 14 14 12 12 11 11 11 12 12 12 11 11 8 6 6 5 6 5 4 4 5 5 5 5 7 10
8 8 7 4 7 14 19 10 14 9 13 7 5 9 22 20 20 18 16 14 16 17 15 13 12 12 11 9 10 9 9 8 7 7 5 5 4 3 3 3 2 3 3 4 3 4 7 7 7
9 8 5 6 10 8 13 13 11 16 10 9 12 17 19 19 17 18 18 20 20 16 14 12 11 11 10 9 9 8 8 7 5 4 3 3 3 3 2 2 1 2 3 2 4 5 6 8 8
8 11 4 1 9 8 6 7 6 13 6 2 7 21 21 18 19 22 22 20 18 15 13 12 10 10 9 9 7 7 6 5 3 2 2 3 3 3 4 3 1 2 3 3 5 6 6 8 9
14 4 5 6 10 13 5 10 8 6 7 9 16 20 18 18 20 19 17 15 13 13 13 12 11 10 9 8 5 4 3 2 1 1 1 1 3 4 4 3 2 3 3 4 6 7 9 11 13
4 3 5 3 11 10 10 7 11 4 11 13 19 18 17 18 19 17 14 13 12 12 12 11 10 10 9 8 6 4 2 0 1 5 6 5 4 5 5 4 4 3 4 6 8 10 12 13 14
8 11 10 6 11 5 10 11 6 4 11 15 16 14 14 15 15 13 11 10 11 12 12 12 10 10 11 11 10 7 3 3 6 6 3 5 5 6 6 5 4 5 6 9 10 11 11 12 12
4 9 8 6 8 4 11 11 6 6 11 14 15 13 13 14 14 11 9 10 11 13 15 14 12 15 18 14 11 10 11 10 5 2 6 7 8 8 8 6 6 6 8 9 10 11 12 12 13
7 8 9 9 2 7 7 9 3 9 11 12 13 14 13 13 10 8 6 8 12 14 17 18 18 15 12 13 7 6 11 4 5 8 7 8 9 9 8 6 6 7 8 9 11 12 11 14 14
8 6 11 12 7 13 9 8 7 8 12 13 14 13 13 13 11 6 6 7 12 16 19 21 20 15 14 17 6 7 8 11 10 8 7 7 7 7 6 6 7 8 8 9 10 10 12 13 14
3 4 10 8 5 7 4 7 5 7 12 13 12 12 11 10 7 7 8 11 15 19 22 22 23 19 4 12 13 10 11 10 8 7 7 6 6 5 7 6 6 7 7 7 9 11 14 15 14
5 8 6 5 4 5 8 6 4 5 10 10 11 11 11 10 9 9 11 14 16 19 19 19 18 17 14 12 13 11 9 6 7 7 6 5 4 5 5 5 6 6 9 10 11 12 14 16 14
4 3 7 5 7 2 9 8 8 4 6 7 7 7 8 10 10 10 12 13 15 18 19 17 17 16 16 16 11 10 9 8 7 6 5 2 2 1 3 5 6 8 10 13 13 13 13 15 16
6 3 6 10 10 7 8 8 11 8 8 8 9 10 10 10 10 12 14 16 19 20 20 20 19 18 16 12 11 11 5 6 5 6 5 2 2 3 6 8 8 10 12 14 14 13 11 12 16
4 4 4 4 6 5 9 7 8 8 10 11 11 11 12 13 13 13 16 20 19 16 16 16 16 14 13 13 9 6 4 5 6 5 3 4 6 7 8 10 12 14 16 16 14 12 13 12 14
10 7 6 3 3 7 4 7 9 5 4 11 12 14 15 14 13 15 17 17 16 14 14 14 15 13 11 9 8 7 6 5 4 2 5 8 10 11 12 13 14 16 17 17 17 15 13 15 16
6 6 3 3 4 6 2 6 11 3 3 9 17 18 16 14 14 15 17 16 15 14 14 13 12 11 10 9 8 7 5 3 1 3 7 10 13 15 16 16 17 18 19 20 19 17 16 17 17
3 4 3 4 3 1 3 5 2 1 1 6 16 17 16 14 14 15 17 15 15 14 13 12 11 10 9 9 8 5 3 0 3 5 8 11 12 13 14 15 18 20 20 19 19 17 17 16 17
5 4 3 2 1 3 4 4 8 3 5 10 15 17 17 16 15 15 16 15 14 12 12 11 9 9 9 9 5 3 1 2 4 5 5 7 9 13 16 19 22 23 21 19 19 19 18 17 17
4 9 3 3 3 4 4 5 2 6 9 12 16 17 17 16 14 13 15 14 12 12 11 10 8 10 9 6 3 2 1 1 2 4 5 8 12 16 20 23 24 23 20 18 17 17 16 16 14
4 4 0 1 2 2 3 1 3 2 5 13 16 17 18 16 14 13 13 13 13 12 11 11 10 9 8 6 4 3 2 1 2 4 6 10 15 19 21 21 21 19 17 13 11 14 15 13 12
3 6 9 4 4 1 2 3 3 1 3 8 13 15 16 13 13 12 15 15 15 14 12 13 11 9 7 6 7 4 1 3 3 5 8 13 17 18 18 17 16 14 12 12 12 12 9 10 13

GFSSGP_925_spd_039.txt.gz
Wind_Speed
7 7 10 11 7 8 17 17 4 7 7 11 5 6 13 18 11 5 19 20 25 24 23 21 22 23 22 21 19 17 15 14 13 12 12 12 13 14 15 15 15 14 14 14 14 15 16 16 17
9 7 11 9 9 14 13 6 11 21 9 9 10 10 14 13 14 14 11 21 25 24 23 22 21 21 21 20 18 16 14 14 12 12 12 12 13 14 15 15 14 13 13 14 14 16 16 16 16
8 10 9 10 14 15 8 16 18 15 11 8 6 11 6 5 10 5 10 15 20 23 21 20 23 22 20 19 16 15 14 13 13 12 12 12 13 14 15 15 14 14 14 14 14 15 16 16 17
7 8 9 10 18 4 10 19 8 12 10 11 11 6 6 5 2 5 15 18 16 20 23 21 20 22 20 17 15 14 14 13 14 13 12 13 13 14 14 15 15 15 14 14 14 15 15 16 17
14 9 12 14 18 3 6 14 12 11 9 4 6 8 6 5 4 6 11 15 16 20 21 23 20 20 18 16 15 14 14 14 13 13 13 13 13 14 14 15 14 14 14 13 12 12 13 13 15
9 11 13 14 12 4 5 11 10 8 6 8 4 12 5 6 11 10 6 9 15 21 20 20 19 16 16 15 14 14 14 14 13 13 13 14 14 14 14 14 13 12 11 10 9 11 12 13 13
15 11 16 16 8 7 12 9 14 10 11 5 6 5 3 12 15 18 15 8 14 23 21 20 17 15 14 13 14 14 14 13 13 13 14 14 13 12 11 10 9 8 6 6 6 7 9 10 12
13 12 20 10 11 6 8 4 4 5 12 3 5 4 5 12 16 20 23 23 18 21 20 19 16 13 13 13 14 14 13 13 13 13 12 12 11 10 9 8 5 5 3 4 4 4 6 9 10
13 11 14 7 14 11 15 10 5 3 6 5 6 5 12 18 21 21 16 14 14 16 19 18 16 14 15 13 13 13 13 12 12 11 10 8 6 6 5 3 3 3 3 3 4 5 7 8 6
11 12 16 15 8 2 14 5 10 9 11 6 3 7 17 18 18 19 17 16 16 16 15 13 13 12 12 13 13 10 10 9 9 8 5 4 3 2 5 1 2 2 3 6 7 8 8 10 9
14 15 4 3 12 28 2 10 12 12 14 17 16 14 15 17 16 15 16 17 18 17 14 14 13 13 12 12 12 11 10 8 6 5 4 3 1 1 2 1 2 2 5 4 7 8 8 10 11
15 15 4 6 4 13 12 12 7 8 21 10 13 18 17 16 15 17 18 18 18 16 14 14 13 14 11 11 11 10 10 8 7 6 2 1 2 1 2 3 3 3 5 6 7 9 10 12 13
15 4 3 2 6 7 11 7 5 1 8 4 20 19 18 16 19 18 18 17 17 16 16 15 14 13 12 10 8 8 6 5 3 3 3 2 1 1 3 1 2 4 5 6 8 11 13 14 16
11 13 3 6 10 15 7 4 3 9 8 11 17 18 15 17 19 20 18 16 17 18 17 16 14 12 11 9 7 6 3 4 6 3 4 3 3 3 3 1 1 3 5 7 9 12 15 16 16
4 7 9 6 11 6 11 3 17 4 11 15 16 16 17 18 20 19 17 17 17 18 18 17 15 14 12 11 11 10 11 9 5 4 3 2 3 5 3 3 4 4 5 8 10 12 14 16 17
8 6 12 7 13 6 14 12 7 9 11 15 17 15 16 17 18 18 16 17 16 18 18 17 17 18 17 15 13 8 7 8 10 4 5 5 6 6 6 5 3 4 6 7 9 12 15 17 18
10 8 11 11 12 11 12 15 11 13 12 16 15 16 15 16 16 15 14 14 16 19 20 18 20 21 20 15 14 11 13 12 4 5 6 9 7 7 6 4 3 4 6 8 11 13 15 16 19
13 14 14 11 11 10 10 9 10 14 14 13 14 14 13 15 15 15 13 13 16 19 21 20 19 18 15 12 4 6 12 13 7 6 7 8 6 5 2 2 3 6 8 10 10 13 15 16 19
4 7 11 14 11 13 12 10 13 14 13 14 14 15 15 15 15 12 12 12 14 19 20 20 19 17 15 7 10 10 9 11 9 7 8 7 5 2 2 2 4 6 9 9 11 13 17 18 20
6 6 7 10 11 9 10 12 12 14 16 16 15 15 16 15 12 13 13 14 16 18 20 22 19 17 11 8 9 8 13 10 9 8 9 7 5 2 1 3 6 8 11 13 13 16 18 19 19
7 2 8 7 11 14 9 14 15 12 12 11 14 16 15 15 14 13 15 16 16 19 21 21 18 16 13 13 14 13 11 9 9 9 8 7 3 1 3 6 8 10 12 14 16 16 18 20 22
10 2 1 4 12 13 17 13 19 18 16 14 14 13 14 14 14 13 16 16 18 20 20 19 18 17 16 16 14 13 13 11 9 8 7 5 3 4 6 8 10 12 14 16 18 19 20 21 22
8 3 4 6 12 7 13 8 18 15 15 15 15 15 14 14 13 14 15 20 21 21 20 20 18 18 18 13 11 11 6 3 4 4 4 6 7 7 8 10 11 14 18 19 21 21 18 21 21
4 4 6 7 10 8 15 13 5 12 14 17 13 13 14 13 14 15 19 23 22 19 17 17 18 16 15 13 9 7 4 4 5 7 5 7 7 11 11 13 14 17 20 21 23 23 22 21 20
8 9 8 5 4 8 4 5 12 7 4 5 13 14 15 15 15 16 18 21 20 19 17 17 17 15 14 12 10 7 6 3 1 4 6 7 11 12 13 13 16 18 20 21 22 23 24 20 19
9 11 5 6 7 7 8 7 3 9 2 3 12 15 15 15 14 16 19 20 19 18 18 17 17 15 13 12 10 8 7 3 6 4 6 8 9 10 11 15 17 20 22 23 23 23 22 18 18
6 7 5 4 1 5 10 9 9 5 6 6 13 15 16 16 16 17 19 18 19 19 18 17 17 15 14 12 11 9 7 6 4 4 4 6 7 10 13 15 19 21 21 21 21 22 22 17 17
8 3 3 4 3 7 4 6 5 7 7 8 13 15 16 16 17 16 18 18 18 17 15 16 15 15 14 12 9 8 6 6 4 4 4 5 8 11 14 17 18 19 19 19 19 17 16 18 18
7 8 6 4 3 4 4 2 8 3 6 9 12 15 16 16 17 15 17 19 17 17 16 17 17 18 14 11 9 6 7 6 5 4 4 7 9 13 15 16 17 17 17 14 14 16 17 15 12
10 8 9 5 6 4 4 5 4 5 3 7 10 13 14 15 17 15 18 18 18 19 20 19 18 16 12 11 7 8 9 6 5 5 6 8 12 14 15 15 15 15 15 14 12 11 10 11 11

GFSSGP_925_spd_042.txt.gz
Wind_Speed
9 10 12 16 6 8 16 19 7 14 5 10 14 17 17 17 8 7 16 28 36 31 27 24 24 24 23 22 21 20 18 18 17 16 16 16 17 17 16 17 16 18 18 18 19 19 19 19 19
9 17 14 6 10 13 13 10 16 13 8 10 13 14 13 10 14 12 14 27 29 29 27 26 24 24 23 20 19 18 18 17 16 16 17 17 17 16 16 16 16 17 18 18 18 19 20 21 21
10 12 7 7 12 15 11 9 10 6 9 9 7 13 7 4 8 3 14 22 28 29 25 25 23 22 22 20 17 17 17 17 16 16 17 16 16 16 16 16 17 17 17 17 18 19 20 21 22
9 10 6 8 19 21 7 20 20 12 12 6 12 12 8 10 4 7 14 19 24 28 25 25 21 22 20 18 16 16 17 17 17 16 16 15 15 15 16 17 16 16 17 17 17 18 18 19 19
16 7 10 15 18 19 5 12 13 9 5 8 10 6 9 6 18 11 13 15 20 24 26 24 21 22 20 19 16 17 17 17 16 16 16 14 15 16 16 15 15 16 16 15 15 15 16 16 18
9 10 13 15 22 11 2 10 13 11 12 15 1 12 9 19 15 14 12 13 19 23 21 22 19 20 19 19 17 16 17 16 15 16 15 14 15 15 15 13 13 13 13 12 11 12 13 14 16
13 12 16 19 16 11 3 12 15 2 1 18 9 6 8 16 19 16 17 24 29 24 23 22 20 19 19 18 18 17 16 16 16 15 15 15 14 13 11 10 9 9 9 8 8 8 10 12 13
12 13 21 19 17 6 21 23 19 18 12 12 7 6 8 18 23 20 17 23 26 25 19 22 22 20 20 19 18 17 16 17 16 16 14 14 13 11 10 7 6 6 6 6 7 7 9 9 8
17 12 14 19 10 5 18 18 26 6 7 6 7 13 21 23 26 24 24 17 24 22 25 24 22 20 16 18 18 17 17 16 16 14 13 14 9 8 6 4 4 5 5 7 7 9 8 13 10
11 12 20 3 11 6 8 12 31 4 4 10 12 20 24 26 26 22 18 21 27 22 21 22 20 24 21 17 17 16 16 15 14 11 9 6 7 9 2 2 3 4 6 5 8 8 10 11 11
15 15 16 3 15 16 11 20 28 4 8 10 7 18 17 22 20 20 20 28 29 24 20 20 22 22 19 20 16 16 14 11 10 6 5 8 4 4 4 3 2 4 7 7 9 9 9 12 12
14 15 17 4 12 15 14 16 9 10 4 8 7 16 16 18 17 19 20 23 24 20 21 16 17 19 15 17 17 15 15 12 10 8 3 3 2 2 1 2 5 5 7 7 8 11 9 13 15
14 17 7 7 5 8 10 7 6 12 15 24 22 18 17 13 19 24 24 26 25 22 24 22 20 17 18 14 18 16 14 13 8 5 4 6 5 5 2 4 5 3 4 7 7 13 14 15 16
9 14 4 3 3 2 9 7 9 5 5 20 18 18 15 14 16 20 21 23 22 24 23 21 20 19 16 18 15 17 16 13 8 3 3 0 1 1 5 5 6 6 6 9 10 12 15 15 16
5 7 4 2 3 3 13 9 2 5 11 12 14 14 12 13 18 15 19 20 25 25 24 23 22 19 20 19 17 19 18 12 9 7 5 1 2 5 5 4 4 5 6 8 9 12 13 15 16
8 6 5 6 11 9 12 9 8 7 13 15 16 13 12 13 17 19 23 20 25 27 24 21 20 21 21 22 20 19 16 13 6 6 5 3 3 5 7 5 3 7 5 7 9 12 15 17 18
1 6 9 15 13 6 11 14 14 10 12 15 14 14 13 14 16 19 20 20 25 27 26 23 22 21 20 19 15 12 9 9 7 3 2 6 8 9 8 6 2 5 6 6 8 13 14 17 19
8 14 16 12 13 11 16 14 14 14 14 14 13 13 14 13 14 22 22 21 24 30 29 24 21 21 21 18 14 11 9 6 4 7 6 9 8 8 4 1 0 4 5 6 11 10 12 15 18
11 15 15 11 13 8 8 10 12 14 12 15 13 13 12 13 12 19 14 15 23 31 28 30 27 20 18 14 11 7 10 11 12 9 11 9 8 6 5 4 3 3 6 8 11 10 13 15 18
16 1 10 13 9 10 13 11 14 15 14 14 13 14 14 14 15 16 14 14 22 28 25 26 26 21 16 12 10 13 12 10 11 12 12 11 8 6 3 2 1 5 7 11 10 13 16 17 13
8 12 7 9 7 11 11 13 15 15 14 15 16 17 17 18 16 13 16 16 15 27 25 24 23 16 19 13 13 14 14 12 15 15 14 12 9 5 2 1 3 6 8 11 14 15 16 14 17
2 11 8 16 15 7 9 9 17 13 13 15 16 15 15 17 18 14 17 16 14 20 20 23 23 21 18 17 18 19 16 16 16 18 16 15 9 5 4 5 7 7 9 13 15 16 22 21 18
3 9 16 16 6 4 7 6 12 12 18 16 11 10 11 14 14 15 18 22 19 20 22 27 25 22 20 19 17 16 11 14 13 11 16 10 8 9 9 8 7 7 8 12 16 17 18 19 20
13 10 15 9 9 7 16 11 14 13 11 19 10 13 12 9 11 13 21 22 21 24 25 22 24 23 22 16 15 15 8 10 10 7 8 5 6 2 5 5 7 11 14 16 19 21 22 24 24
8 10 3 7 7 4 9 5 5 19 19 17 19 12 11 10 10 11 14 19 22 23 23 21 21 22 20 15 12 11 8 7 8 7 5 8 3 4 6 8 11 12 15 18 20 21 22 23 24
15 7 3 2 5 7 5 5 5 12 9 6 12 10 10 10 9 11 14 19 21 19 18 17 17 19 18 16 13 12 11 9 6 7 4 1 4 4 7 8 9 14 17 19 20 21 21 23 16
9 4 4 7 3 2 6 17 7 8 8 7 11 12 12 12 12 13 17 19 19 18 18 20 20 20 21 17 16 14 11 7 6 5 4 5 2 3 6 9 12 15 16 17 19 19 17 15 15
5 6 4 2 2 4 8 10 9 6 8 6 10 11 12 12 13 12 16 20 22 22 23 21 20 22 21 19 16 12 11 9 6 4 7 4 3 4 8 10 12 13 15 15 13 16 17 17 17
6 7 5 6 4 1 4 3 7 6 8 6 8 12 13 14 14 13 15 20 21 22 22 20 20 22 19 17 15 14 14 9 9 9 5 5 4 5 8 10 12 12 12 14 15 14 14 11 12
9 11 9 3 6 2 1 6 4 5 6 5 7 10 13 14 13 14 17 20 19 19 19 17 16 19 19 15 15 15 11 13 12 8 7 5 5 7 9 11 13 12 11 10 13 14 11 12 10

GFSSGP_925_spd_045.txt.gz
Wind_Speed
9 8 7 4 2 3 5 5 4 3 4 6 14 13 16 9 3 5 12 28 37 37 33 28 30 29 27 25 23 22 22 22 22 22 22 22 21 21 21 20 22 23 22 22 24 25 26 25 23
10 7 7 3 2 1 6 5 5 0 5 6 10 9 7 6 6 11 15 28 33 35 32 31 30 29 27 25 22 22 22 21 21 22 22 22 21 20 21 22 22 23 22 22 24 25 26 27 25
9 7 2 4 3 7 5 3 6 7 6 3 5 7 5 2 7 3 28 31 35 34 33 32 31 29 26 24 23 23 23 21 21 23 22 22 21 20 21 23 22 22 22 21 23 23 24 25 26
2 4 4 1 10 14 9 7 6 6 6 11 12 8 5 10 5 13 25 28 35 36 36 32 30 29 26 24 23 23 24 21 22 22 21 22 21 21 21 22 22 21 21 21 21 21 22 24 25
5 2 3 4 9 12 4 5 8 8 5 6 2 4 4 6 20 23 24 21 33 35 35 32 28 25 24 24 23 23 23 21 21 21 21 22 21 20 20 21 21 19 19 18 18 18 19 21 23
3 2 2 5 12 5 12 12 6 9 3 2 9 7 4 13 22 19 20 18 33 31 31 29 24 22 19 22 22 23 22 22 21 21 21 21 21 19 19 18 17 16 14 14 15 15 16 18 20
5 2 7 10 16 5 5 5 15 7 2 3 3 6 6 15 21 24 25 26 32 28 24 22 20 17 19 22 23 22 21 21 21 21 22 20 20 18 15 14 13 12 11 12 12 13 13 13 16
4 4 8 10 12 4 0 6 3 10 7 6 8 7 6 15 29 35 36 34 31 31 27 23 16 20 21 22 21 21 21 21 22 22 20 18 17 14 12 10 9 9 10 11 11 11 11 14 10
2 1 11 10 0 4 5 3 2 6 14 8 5 6 21 31 34 33 30 27 31 26 25 23 21 22 21 22 21 21 20 22 21 20 19 18 14 12 10 8 7 8 9 12 12 10 11 12 14
1 4 7 3 6 6 5 11 13 9 11 3 12 17 27 29 31 30 28 20 21 23 22 25 26 25 25 23 22 22 22 21 20 18 16 12 11 9 7 7 8 10 9 9 10 11 11 12 12
7 10 9 3 6 8 8 5 3 4 1 3 6 7 16 25 25 30 27 36 30 25 22 26 27 26 24 24 23 24 23 21 17 11 8 10 11 9 3 6 9 7 11 12 13 8 7 9 11
6 9 10 7 7 6 7 2 2 5 4 11 11 4 11 14 25 29 28 24 29 25 28 28 27 26 24 24 26 23 21 18 16 14 14 12 8 5 5 7 7 15 13 9 6 8 11 12 12
7 8 4 9 10 6 15 8 3 3 3 11 15 10 9 11 16 34 35 35 32 27 30 32 30 25 26 27 22 19 20 22 20 14 11 11 12 12 11 11 10 8 6 6 6 9 11 11 12
7 9 3 5 7 5 15 5 9 7 7 6 8 6 11 10 23 24 29 31 33 32 27 27 22 23 22 24 27 26 25 21 16 12 11 10 9 10 10 9 8 5 5 6 7 8 9 10 12
9 6 5 4 4 4 10 5 5 9 13 10 11 13 12 10 34 33 29 30 35 36 32 24 26 21 24 27 25 23 19 15 15 14 11 10 9 12 12 9 7 6 6 6 6 6 8 11 11
7 3 2 2 8 4 9 5 9 16 17 15 16 13 9 12 22 31 32 34 38 37 31 26 22 23 25 23 22 20 17 15 14 13 12 10 12 11 8 5 6 7 6 4 6 7 10 11 13
4 3 3 2 1 8 5 5 12 10 16 13 10 8 8 9 18 28 36 37 39 36 34 28 28 26 24 22 21 20 17 14 11 10 11 15 15 12 7 7 6 6 4 4 7 10 10 12 14
1 3 3 6 7 12 6 7 6 9 15 15 13 10 9 10 14 27 33 33 37 36 37 34 31 27 25 24 22 18 12 10 9 10 12 15 14 12 6 4 3 4 4 5 9 7 8 14 12
5 6 8 9 8 6 9 9 11 10 10 11 13 12 9 10 14 27 32 36 33 41 40 37 33 29 27 24 18 12 12 12 12 10 13 13 14 10 7 7 5 5 4 7 7 9 14 16 15
6 11 10 13 5 4 7 8 11 11 10 14 11 10 10 7 12 16 26 31 36 40 38 36 31 29 25 20 16 13 16 14 12 13 13 14 11 9 7 6 2 2 6 5 8 12 15 14 15
3 6 2 2 5 5 3 5 6 7 6 10 14 13 13 15 15 12 18 31 31 30 34 33 31 28 23 17 14 13 13 17 16 15 14 16 14 9 6 5 4 1 2 5 10 12 14 19 20
4 5 5 3 5 2 2 3 1 5 10 12 13 13 14 11 13 13 16 26 31 29 33 31 30 27 22 20 22 21 23 23 21 19 19 19 13 11 7 6 6 8 5 5 6 9 12 16 18
6 7 10 8 7 10 4 5 6 2 5 6 3 10 14 16 18 16 16 26 31 36 33 31 28 22 23 25 25 24 23 22 25 23 22 19 15 11 7 7 5 5 1 5 10 14 17 19 21
3 2 4 4 1 1 5 5 4 6 8 5 3 9 6 10 15 15 24 29 34 36 34 30 27 24 24 29 27 25 20 20 22 25 24 18 14 12 10 8 4 1 6 9 12 15 16 18 20
7 3 3 5 6 5 8 3 8 11 12 8 15 21 7 11 9 11 14 19 23 28 31 29 29 27 31 27 26 19 21 21 22 24 21 16 15 11 4 1 4 7 10 13 15 16 17 19 20
3 3 4 4 2 6 8 6 5 14 7 11 13 9 7 8 11 14 15 19 22 27 27 27 28 31 32 25 22 19 19 19 17 13 14 12 6 2 2 4 8 11 14 14 16 16 14 10 12
2 4 4 6 2 2 4 4 5 7 4 6 8 8 8 9 8 11 14 21 24 28 28 26 29 33 30 24 21 21 19 16 13 13 12 10 5 5 4 5 8 11 11 12 10 8 10 14 12
7 7 1 3 3 3 4 3 3 6 3 8 8 8 8 8 8 8 12 22 26 26 23 18 19 28 26 24 25 24 20 14 14 11 4 4 9 9 6 7 8 8 9 7 8 11 11 9 7
1 3 2 3 5 4 1 4 1 7 8 9 10 11 11 10 9 8 11 24 29 26 23 20 16 25 25 26 22 19 15 15 12 5 5 11 7 6 5 6 8 9 9 11 13 15 11 11 13
6 6 6 5 4 3 5 5 2 7 9 9 9 12 13 14 11 10 16 23 27 31 30 28 22 27 26 24 19 17 16 11 7 8 10 10 13 8 5 6 8 9 9 8 10 12 11 9 7

GFSSGP_925_spd_048.txt.gz
Wind_Speed
6 3 1 3 4 4 5 7 2 2 2 6 3 11 10 5 2 2 14 22 34 34 35 34 33 33 30 28 26 25 24 25 25 26 26 27 26 25 26 26 24 24 23 26 28 29 29 31 36
5 2 1 3 4 1 6 4 6 4 6 9 7 6 6 5 2 9 13 28 38 36 36 35 34 32 30 27 25 24 25 25 26 26 25 27 24 25 25 25 26 25 24 27 28 30 29 30 37
4 3 3 4 4 7 4 4 6 4 6 3 5 5 4 3 8 12 15 33 32 30 34 35 35 33 29 26 25 25 25 26 26 26 24 25 25 25 25 26 26 25 25 26 27 28 29 28 32
1 3 3 3 11 4 5 8 2 3 3 6 7 7 4 6 4 9 34 35 32 32 36 36 36 33 29 26 24 25 27 27 26 26 25 25 26 26 26 26 25 25 24 24 25 26 26 26 25
0 3 0 3 3 0 5 8 11 6 6 4 1 2 4 7 19 22 25 25 27 36 38 35 33 32 29 27 25 25 25 26 25 25 25 25 26 27 25 24 23 23 21 21 22 22 24 24 22
3 2 0 1 2 2 3 9 5 10 9 8 6 5 3 9 18 22 18 15 17 24 28 30 29 28 27 26 25 24 24 25 25 25 25 25 26 26 23 22 21 19 18 19 19 19 19 20 19
4 2 3 4 4 5 1 1 4 10 13 7 4 3 3 11 18 30 37 32 35 24 23 25 25 20 20 23 24 23 23 24 25 25 25 24 24 22 20 18 17 16 17 16 15 16 14 14 16
4 3 3 3 3 4 7 8 6 15 8 4 7 6 6 8 26 33 36 35 32 29 33 36 36 17 15 20 21 23 23 25 25 24 23 22 20 18 16 15 14 15 15 16 15 15 15 14 10
4 2 3 3 2 2 3 3 4 9 6 3 5 5 18 24 30 32 29 28 30 31 33 34 26 21 23 23 22 23 24 25 24 23 22 20 19 17 14 13 13 15 17 15 13 13 11 10 11
3 3 5 7 3 5 7 4 3 1 5 3 15 22 26 23 25 27 23 21 20 26 31 31 26 29 28 26 25 25 26 26 25 21 20 17 16 15 14 14 14 14 12 11 12 11 11 9 9
4 4 6 6 6 6 8 3 3 6 2 3 15 20 20 21 19 24 25 33 32 29 29 27 26 27 27 27 26 26 24 24 21 17 15 13 12 12 13 14 14 13 11 14 11 8 7 8 8
3 8 7 6 8 5 6 5 7 5 5 11 21 22 18 16 15 23 24 25 29 28 26 25 28 27 26 27 27 26 24 21 17 13 11 12 11 11 11 13 12 15 14 12 7 7 7 7 10
4 7 4 8 10 6 6 2 5 3 9 15 20 21 17 17 21 21 22 24 19 27 24 28 28 27 26 26 26 26 23 19 16 14 13 14 14 15 14 20 19 15 11 6 4 5 7 8 10
6 9 7 10 11 5 6 3 3 6 10 11 12 16 22 22 25 22 19 20 23 20 27 33 29 29 27 28 25 24 19 19 18 16 15 17 17 18 20 19 15 12 7 6 6 8 9 10 9
6 2 5 7 10 6 9 1 1 6 14 15 8 9 11 23 35 30 30 27 30 28 31 34 32 30 27 26 22 21 24 22 20 15 14 14 15 17 17 15 12 9 6 5 6 6 8 9 10
6 4 2 5 8 6 1 4 5 11 10 8 7 7 12 15 32 29 30 29 29 35 37 31 32 29 27 26 27 27 24 20 16 14 13 13 14 15 14 11 9 9 6 5 5 7 8 8 8
5 2 4 1 5 5 5 3 5 8 9 8 7 7 10 15 22 29 29 34 37 39 37 32 31 32 32 31 29 25 20 17 16 14 13 13 15 13 11 11 10 8 6 3 5 5 6 9 8
4 1 3 2 3 4 6 5 6 12 14 14 10 8 14 17 20 32 31 34 38 38 39 36 33 34 32 30 26 21 18 16 13 12 14 15 15 15 13 11 10 8 6 2 3 4 6 11 7
9 1 4 6 6 5 11 6 6 15 13 13 12 10 11 17 24 32 34 35 32 35 40 38 37 35 33 30 25 20 18 16 13 12 16 17 16 14 12 12 10 8 4 2 3 4 7 9 10
3 2 9 9 8 9 6 9 6 16 16 17 15 13 17 14 16 24 28 31 33 40 39 40 38 36 33 30 26 20 17 15 14 16 19 19 16 12 11 9 12 7 2 1 1 4 6 6 12
4 3 5 6 4 4 5 3 4 5 5 12 14 17 16 20 20 17 27 30 30 32 40 41 40 37 32 27 22 15 16 13 17 20 21 20 16 12 10 8 6 6 3 2 0 3 7 7 10
7 7 7 1 4 1 3 3 3 7 8 12 15 13 14 14 17 18 27 28 32 35 37 38 39 34 30 26 22 21 25 24 23 26 23 20 18 13 12 10 11 8 7 3 2 6 9 10 12
9 4 6 1 3 3 1 2 7 4 7 9 16 15 16 18 20 19 26 36 34 35 40 40 35 31 28 28 25 25 24 27 24 24 23 24 21 15 15 13 9 9 6 1 4 8 10 12 13
8 2 7 7 4 1 5 5 6 5 11 12 13 12 10 9 12 11 22 27 28 32 36 37 33 33 29 30 28 28 27 26 22 25 25 25 20 15 13 11 10 6 3 5 7 9 12 13 14
2 4 3 3 3 6 2 3 8 6 7 8 14 9 9 13 11 10 16 23 26 31 35 35 36 34 31 33 31 29 27 26 26 30 29 26 18 16 14 6 1 2 5 7 8 10 11 10 8
4 4 5 4 3 4 5 4 6 7 3 2 7 6 7 11 13 15 17 24 28 29 30 30 33 31 31 32 31 31 27 27 28 32 28 21 20 14 7 7 6 2 4 8 12 11 7 7 9
1 2 5 5 2 3 4 4 6 5 4 6 2 8 7 8 12 13 16 21 25 27 31 33 31 31 32 30 30 27 26 26 25 21 22 20 15 15 8 4 4 9 13 14 12 9 11 15 14
6 4 2 3 2 3 3 3 4 3 3 1 3 6 7 7 8 7 10 19 24 28 32 33 31 30 30 31 31 29 26 24 25 24 24 19 18 8 3 11 11 9 12 11 10 11 13 13 9
3 3 2 4 4 4 1 5 6 7 8 10 8 8 9 9 10 10 10 21 28 32 31 30 31 31 32 28 29 28 25 23 21 17 14 12 4 8 9 9 8 9 11 10 11 12 12 9 10
6 5 4 5 4 1 4 5 4 9 10 8 9 8 9 11 13 14 18 24 28 32 33 31 31 33 33 31 30 28 27 20 14 10 9 5 6 5 13 9 7 9 10 11 13 12 10 10 9

GFSSGP_925_spd_051.txt.gz
Wind_Speed
1 1 1 5 3 4 3 6 3 4 2 5 2 3 4 4 1 3 3 16 31 35 32 31 30 31 30 28 28 26 24 25 26 27 30 30 30 29 30 30 29 26 26 27 27 29 30 33 33
2 3 2 3 4 1 5 5 6 6 5 6 6 4 6 4 3 5 13 20 33 31 32 32 31 32 31 30 27 25 25 25 26 28 28 30 29 27 29 31 30 27 26 28 29 33 33 30 30
4 3 3 4 3 4 4 3 6 4 5 4 3 6 3 4 4 7 5 24 27 30 31 33 33 32 30 30 28 26 26 27 27 27 27 26 26 27 30 31 30 29 28 27 29 33 33 32 28
5 4 4 3 4 5 4 7 8 1 5 9 5 4 3 5 3 2 23 25 25 30 33 34 33 33 30 28 28 27 26 26 26 27 28 26 26 29 29 30 29 28 27 27 26 30 31 31 30
3 3 2 1 4 3 2 2 5 8 3 5 3 3 3 6 15 22 22 20 15 23 35 35 34 32 29 28 27 27 26 26 25 26 28 29 29 29 28 28 27 25 24 24 24 23 28 27 27
3 3 3 2 4 4 3 3 1 2 5 2 5 4 3 12 18 19 20 14 8 6 26 35 31 30 28 29 26 26 26 24 25 26 28 30 29 28 27 25 24 22 22 21 20 19 19 22 22
5 4 3 4 4 4 4 1 2 6 5 7 8 3 2 9 16 20 22 24 23 21 29 29 27 26 25 26 25 23 23 24 25 26 27 28 27 25 23 22 22 20 19 19 17 16 14 14 16
5 4 2 3 4 6 3 3 2 4 4 3 2 6 4 3 24 28 27 26 23 25 27 30 28 24 23 23 19 19 21 22 24 26 26 25 23 22 21 20 20 18 17 16 17 16 15 14 13
4 3 1 4 5 5 2 3 3 3 3 5 2 4 14 19 27 30 28 31 31 28 33 23 25 22 14 13 16 19 21 22 23 24 23 21 20 19 18 19 19 18 15 15 14 13 13 12 12
3 3 7 6 5 4 6 3 6 4 8 4 12 15 20 21 22 22 23 24 28 34 38 33 29 23 15 19 22 23 24 24 23 22 21 19 18 17 17 19 17 15 14 15 12 10 10 10 11
2 4 4 8 6 7 7 4 4 6 1 8 17 14 15 20 19 22 19 22 29 30 32 31 31 28 22 22 20 22 23 23 21 20 18 17 16 16 17 16 14 13 13 13 11 9 9 10 9
2 9 5 6 8 7 7 5 1 1 3 14 19 19 18 14 15 22 22 22 25 24 24 23 27 23 25 22 24 23 23 22 20 18 16 14 14 14 15 14 13 13 13 12 9 9 10 10 8
3 5 6 4 9 7 7 3 6 3 13 20 22 19 14 14 17 17 18 19 26 24 25 24 23 28 27 23 23 24 23 20 17 15 14 13 15 13 15 14 14 14 12 9 8 9 9 9 9
4 4 4 5 6 6 7 3 5 3 13 15 17 18 15 13 18 15 17 18 25 27 28 28 27 29 25 26 26 25 23 19 16 14 13 15 15 15 17 18 17 14 10 9 7 9 8 9 9
4 4 3 2 4 5 5 2 4 13 13 15 12 13 17 16 19 20 20 22 28 29 28 27 29 29 27 28 27 25 21 18 17 15 14 14 17 18 21 20 17 13 10 9 8 9 8 8 9
4 3 3 4 5 2 5 4 6 16 16 13 11 13 13 17 25 22 21 22 26 23 27 28 29 30 28 27 26 25 21 21 18 15 14 16 17 21 20 17 15 13 10 7 6 7 8 8 5
5 2 2 3 7 3 2 4 4 15 16 13 11 12 13 15 18 23 22 24 26 25 30 34 30 30 29 29 28 26 23 19 16 15 15 18 20 18 16 15 14 12 9 6 5 7 6 6 3
4 3 1 3 4 4 5 6 6 10 15 16 11 12 14 17 21 28 26 25 21 23 28 34 33 31 31 30 25 24 22 18 17 17 18 17 17 16 16 15 14 12 8 5 4 6 4 5 3
3 5 4 3 4 3 7 6 8 9 6 7 8 12 15 17 22 27 26 26 25 26 30 34 34 35 34 31 29 26 24 22 19 17 16 17 18 18 17 15 14 10 5 2 4 3 2 3 7
0 4 6 6 5 5 4 10 4 7 7 13 14 10 12 14 14 21 25 28 32 33 36 35 37 37 37 36 33 26 24 21 18 18 19 20 20 19 16 13 11 8 5 4 4 1 1 1 7
1 2 5 6 5 2 4 5 3 5 5 8 10 14 12 18 19 18 24 30 32 37 42 42 42 41 40 36 31 21 22 16 19 21 22 22 20 17 15 12 10 10 6 6 4 2 2 3 5
3 3 8 3 2 4 1 3 4 6 14 11 14 12 15 15 17 18 23 29 35 42 39 41 42 41 40 36 32 29 29 20 23 24 24 23 20 17 15 14 11 8 6 6 5 2 4 5 4
6 3 3 3 2 2 2 3 6 4 9 15 17 15 17 17 18 19 24 36 33 29 32 37 37 40 40 36 34 30 23 21 17 22 24 24 22 20 16 13 13 12 9 5 2 3 7 7 5
2 1 4 3 1 2 2 5 5 4 10 17 15 19 16 15 17 16 24 23 25 28 32 36 37 42 41 38 34 28 24 22 20 23 26 25 23 18 16 15 12 10 5 2 4 8 9 8 8
6 5 3 4 4 5 3 2 8 7 7 8 14 18 15 14 15 14 16 21 24 28 33 33 35 34 37 35 33 28 25 25 25 27 28 26 21 17 16 16 9 2 1 4 8 9 7 5 6
2 5 4 4 2 4 3 4 6 5 9 1 7 8 8 11 14 16 19 25 27 30 32 30 33 30 33 34 33 31 28 26 28 26 29 28 27 24 20 10 7 7 3 17 15 11 5 6 10
1 0 2 6 3 3 3 7 10 7 4 6 2 6 8 9 11 17 18 25 25 28 32 32 30 31 33 36 32 34 30 27 27 25 28 28 27 22 15 10 4 8 12 8 8 3 4 6 5
4 5 1 2 3 2 4 4 5 6 5 4 6 6 7 4 7 8 12 21 24 27 28 31 34 36 36 34 34 33 30 27 25 25 24 28 23 19 10 4 5 7 7 8 5 5 4 6 7
2 1 1 4 4 4 1 5 6 7 6 6 6 7 8 8 8 9 10 20 24 25 28 35 34 35 33 33 32 30 28 28 25 28 29 27 20 6 7 7 10 12 7 6 7 8 8 9 9
2 5 5 4 4 1 4 6 4 8 9 5 8 6 6 6 10 11 14 20 23 27 32 35 35 35 36 34 33 33 34 33 31 28 26 21 13 11 9 11 13 6 6 7 9 11 12 11 9

GFSSGP_925_spd_054.txt.gz
Wind_Speed
1 3 3 4 4 4 2 6 4 6 2 3 4 6 9 5 1 2 3 9 28 33 35 35 34 34 35 34 33 31 31 30 29 29 30 31 32 33 34 33 30 29 27 28 29 31 31 29 26
2 3 3 2 4 1 4 4 4 3 4 3 2 3 6 6 5 2 7 18 28 31 36 35 35 33 34 34 32 31 31 31 31 28 26 29 32 33 34 33 32 31 29 29 30 31 30 28 25
4 0 3 4 3 4 4 4 4 2 1 0 2 4 3 1 2 3 8 21 24 27 30 33 34 33 34 33 31 31 30 31 31 29 26 26 30 33 34 34 32 31 31 30 30 29 28 27 25
3 5 4 4 2 5 5 4 3 2 4 7 1 6 2 7 6 1 14 22 25 25 29 32 32 33 34 33 31 31 33 30 30 28 27 27 28 31 34 33 32 31 30 30 31 31 28 26 23
4 3 3 2 4 4 3 3 2 3 4 1 2 3 3 5 9 13 14 12 14 15 26 30 33 36 34 32 31 31 31 30 28 27 27 28 29 32 31 30 30 31 29 29 29 27 27 25 22
3 3 4 1 4 3 2 3 1 1 4 3 6 4 2 5 13 20 17 13 9 10 8 34 32 33 34 29 28 28 30 30 28 28 27 28 30 30 29 27 26 26 26 26 26 24 24 21 20
6 4 3 3 4 5 1 4 3 3 2 1 1 6 2 5 15 18 17 18 17 14 15 35 32 28 24 27 27 26 26 27 28 28 28 28 28 27 26 24 24 22 21 22 21 21 20 18 16
5 4 1 3 3 4 1 3 3 2 1 2 1 6 5 6 21 24 25 26 27 28 37 44 37 20 17 21 21 22 23 25 26 27 28 26 24 24 23 22 20 20 20 19 19 17 18 17 15
2 4 2 4 3 5 3 1 2 1 4 3 4 2 13 20 26 26 24 26 27 26 29 36 30 30 18 19 21 21 19 21 24 25 23 22 21 21 21 19 18 18 17 17 16 15 14 14 16
4 3 6 6 4 4 4 5 4 3 3 3 5 12 20 20 22 21 17 16 23 28 33 40 34 27 23 19 19 17 19 21 23 24 21 20 19 19 19 18 17 16 15 14 14 13 12 12 12
5 6 5 5 8 6 5 1 3 6 2 6 11 14 16 18 17 16 14 18 25 34 33 33 30 28 25 21 21 20 19 20 20 20 18 19 18 18 18 17 14 15 14 13 11 11 11 10 10
2 6 6 5 5 6 8 6 5 3 3 9 13 15 12 13 13 17 17 19 24 24 35 35 32 31 27 18 17 18 20 21 21 20 20 18 18 17 15 14 14 14 13 12 10 10 10 9 10
4 5 3 4 7 5 7 4 5 4 7 14 13 10 11 10 14 17 20 21 22 22 28 29 34 29 20 17 20 22 23 21 19 17 17 15 16 17 16 14 15 15 12 9 10 10 9 11 9
3 5 4 4 5 4 6 4 4 2 12 15 15 13 10 11 15 16 21 24 25 26 25 24 25 19 18 20 22 23 24 22 20 18 16 14 16 15 16 17 16 14 11 10 10 9 10 12 8
3 4 4 1 3 4 7 3 3 10 14 14 11 7 6 7 11 17 22 23 28 26 25 26 23 21 22 22 22 24 23 21 18 15 16 17 17 16 18 19 17 14 11 10 8 8 9 8 7
3 4 2 0 2 3 3 4 2 13 15 13 10 8 8 9 17 15 17 18 23 21 24 24 24 23 24 22 23 23 21 19 16 16 15 17 18 18 21 19 17 15 11 8 7 7 7 7 6
5 2 2 4 5 2 4 1 6 12 12 13 11 12 9 8 9 18 21 23 24 26 23 23 23 25 25 23 24 22 21 19 18 17 18 16 18 21 20 19 17 15 11 8 5 7 5 5 2
1 1 4 4 5 4 3 7 6 13 13 13 12 11 11 9 13 20 20 21 21 25 22 23 24 23 25 23 23 22 21 20 20 18 18 19 20 21 19 18 18 15 12 8 5 5 4 3 0
3 2 4 5 2 4 7 7 9 12 9 9 11 11 12 14 16 19 22 21 21 22 24 25 26 26 27 27 25 24 25 23 20 19 19 19 21 21 20 19 18 14 9 7 7 5 3 3 3
3 2 3 6 3 3 2 7 7 14 16 16 16 14 16 12 10 16 21 24 28 29 29 30 33 32 31 31 30 26 26 23 22 20 20 20 20 21 21 19 17 15 12 10 8 6 5 3 2
1 1 3 3 6 1 1 3 4 6 5 7 11 15 12 15 14 13 20 28 31 33 34 33 34 36 34 34 31 24 25 20 20 21 21 22 22 21 19 18 18 15 11 9 9 7 6 4 1
2 3 1 4 2 3 3 4 4 4 12 10 12 11 14 12 13 12 17 21 30 34 33 33 33 34 35 36 35 35 32 24 27 27 24 23 22 20 20 18 16 14 12 10 8 4 1 4 2
7 4 2 2 2 3 2 2 6 1 5 11 14 13 13 14 14 16 20 31 26 28 34 37 37 36 36 37 37 35 32 30 23 24 23 24 23 21 20 18 17 14 12 11 4 4 5 6 4
4 4 5 4 3 2 4 4 5 4 7 6 10 14 15 14 15 14 21 21 24 26 30 34 37 38 37 38 38 37 34 25 19 20 26 26 23 21 19 18 17 16 13 8 3 2 4 4 3
4 5 3 4 3 5 1 1 8 6 5 7 11 16 16 15 12 12 13 19 24 30 33 37 36 36 38 40 38 39 37 24 24 24 27 29 26 23 22 22 23 19 14 8 0 6 5 3 2
2 6 5 2 2 4 3 4 5 3 7 6 8 9 11 11 14 14 15 21 25 29 34 36 35 32 34 32 36 38 33 27 26 23 25 30 29 27 22 22 18 13 6 3 4 6 6 4 5
3 2 4 6 2 2 3 6 10 3 2 5 5 2 8 9 10 14 13 22 25 29 33 38 31 30 29 33 37 38 31 30 27 24 25 30 29 26 26 23 18 8 3 3 6 8 6 6 6
2 5 3 3 1 3 4 4 5 7 7 6 5 3 5 6 5 6 8 17 21 27 28 30 31 32 32 32 36 36 34 31 27 25 28 29 29 32 27 19 9 9 7 6 8 9 9 9 9
2 0 5 5 4 3 1 5 7 6 5 5 5 5 5 7 8 8 8 16 20 21 25 28 26 29 30 35 37 35 33 29 27 27 26 28 32 29 20 13 11 7 8 6 11 11 13 14 12
4 7 6 5 4 1 3 6 5 8 6 4 7 5 4 5 7 7 7 14 19 23 25 29 27 26 32 35 32 30 29 29 29 29 28 31 30 23 19 14 13 10 9 9 13 16 17 17 15

GFSSGP_925_spd_057.txt.gz
Wind_Speed
3 4 3 2 3 1 2 4 2 4 3 1 3 2 2 6 3 2 5 9 20 31 32 33 34 35 37 36 36 34 33 32 32 32 33 33 32 32 33 31 28 29 27 27 29 27 26 25 26
5 3 3 2 2 4 4 2 5 3 4 3 6 4 6 3 3 2 3 11 26 32 31 31 33 33 34 34 33 33 32 34 35 34 35 32 31 32 32 31 31 31 32 31 29 27 26 25 25
4 2 0 2 2 4 2 4 1 2 2 1 5 5 5 6 4 6 4 16 27 31 30 29 33 33 34 36 36 36 36 36 34 35 36 33 32 32 31 32 31 30 30 30 29 27 26 23 22
2 2 3 1 3 4 4 2 1 3 2 3 6 5 3 3 9 6 6 21 25 27 33 33 34 36 37 37 38 37 36 36 35 32 36 34 32 32 31 31 32 31 30 29 28 27 25 21 20
5 2 1 1 4 4 4 4 1 4 2 0 6 6 4 2 5 6 10 11 16 19 26 32 33 36 37 39 38 39 37 36 34 34 35 33 32 33 30 29 31 31 31 30 29 26 23 21 19
2 1 1 2 5 4 2 2 2 1 2 3 5 7 3 4 11 16 15 14 15 16 16 15 30 31 23 29 31 38 36 35 33 35 34 34 33 31 30 28 28 29 29 29 27 25 22 20 18
2 2 2 3 5 4 2 5 2 4 3 1 4 5 5 9 18 18 17 18 18 31 32 35 36 43 34 14 22 32 33 31 32 33 33 31 30 29 28 28 27 27 26 25 23 22 20 19 17
3 1 1 3 2 4 1 2 4 4 2 1 1 5 6 7 23 25 24 23 23 25 29 30 34 40 36 18 14 23 29 29 30 31 32 29 27 26 26 25 23 23 23 22 21 20 19 16 14
3 1 2 4 3 4 2 4 2 3 3 1 3 1 10 22 21 27 26 27 30 28 35 40 48 44 43 29 16 17 25 28 28 29 28 27 23 22 20 21 23 23 22 20 19 18 16 14 14
2 2 6 6 4 5 4 2 4 3 2 1 1 8 16 17 18 20 15 19 20 23 26 35 37 39 39 35 29 21 21 26 28 28 26 24 23 20 20 21 20 19 19 19 18 16 14 13 13
4 4 3 8 12 4 1 2 4 4 4 5 7 12 10 15 14 14 12 16 18 22 28 32 41 39 36 34 31 29 27 27 27 25 24 22 22 20 20 20 19 19 17 17 14 13 12 12 11
3 9 8 5 4 5 4 4 5 4 3 5 12 14 12 12 13 14 14 15 19 22 28 27 27 30 33 31 30 30 29 27 26 24 22 22 20 19 19 18 18 16 14 13 11 11 12 10 10
4 5 5 6 4 3 6 2 4 4 1 9 15 14 12 10 14 13 14 15 18 21 20 21 21 24 25 25 26 24 25 26 24 22 20 19 21 20 18 19 17 15 14 13 12 10 9 9 9
4 5 5 2 3 3 4 3 1 3 7 10 12 12 8 12 17 18 17 19 21 23 21 16 16 21 17 16 17 21 22 22 21 20 18 17 18 20 19 19 18 16 15 12 10 9 10 9 9
3 5 2 3 2 2 6 0 2 8 9 10 11 10 12 12 17 20 22 19 22 23 19 16 19 17 13 13 15 17 20 20 20 19 18 18 19 20 21 20 19 17 15 12 11 10 8 8 7
1 2 3 1 6 3 3 3 3 9 10 10 9 10 10 14 20 20 21 22 20 22 20 17 20 18 16 16 15 16 18 20 19 20 21 23 22 22 21 21 19 18 15 12 9 9 9 7 6
3 2 2 1 3 4 4 3 6 11 10 9 10 8 8 10 14 18 21 25 26 24 21 19 20 18 17 17 16 18 19 21 20 19 19 20 22 23 22 22 20 18 15 12 10 9 7 6 4
3 1 2 2 2 3 4 8 7 13 13 12 10 8 10 11 15 20 21 20 21 23 19 17 19 20 18 18 18 20 21 21 21 20 20 19 20 21 23 22 21 19 16 13 11 7 6 5 1
3 1 2 1 2 4 6 9 8 14 12 13 12 12 12 14 13 18 23 22 22 23 23 23 23 24 24 25 22 22 24 23 22 22 19 18 21 22 23 23 22 19 15 12 9 9 6 4 0
4 1 2 3 2 4 1 8 4 16 19 18 17 15 16 13 11 15 22 24 27 28 31 29 28 28 28 27 25 18 20 23 23 23 21 20 22 24 25 24 22 20 16 13 12 9 6 3 1
4 5 4 1 1 1 3 4 2 7 12 14 16 17 15 15 15 14 20 26 26 27 32 31 29 28 28 25 24 22 20 19 21 21 22 22 24 25 25 22 21 20 17 15 13 10 7 5 3
3 5 5 2 2 2 3 3 4 4 11 13 17 16 18 18 17 15 21 24 27 28 26 27 27 27 29 28 26 27 20 19 20 22 22 23 25 24 22 22 21 20 19 15 13 11 8 6 4
5 2 2 2 3 1 2 3 3 0 7 16 18 19 19 19 19 20 22 25 25 24 25 27 26 27 28 32 31 31 24 18 19 23 21 22 24 24 24 22 23 21 18 16 14 11 8 6 5
4 3 5 3 2 1 1 3 3 5 5 3 10 18 19 19 19 20 24 22 23 22 25 28 27 26 27 28 29 28 23 22 20 20 24 24 25 25 24 24 23 22 20 20 17 9 5 6 5
2 3 0 1 1 3 3 2 7 3 7 8 9 11 17 18 17 17 18 22 23 25 27 27 27 27 26 28 27 30 34 29 26 24 26 25 22 26 27 27 26 24 22 18 10 6 4 6 4
4 3 4 3 3 1 0 4 3 3 8 7 7 9 8 16 17 18 19 24 25 26 26 27 28 27 25 27 29 32 32 32 25 26 26 27 32 29 30 29 28 26 23 17 9 5 7 6 5
4 2 1 6 2 0 2 5 8 3 4 3 6 6 4 8 13 16 16 22 23 24 28 30 26 24 25 27 27 34 36 31 29 30 25 25 25 29 31 29 27 27 21 14 11 8 6 9 9
1 8 3 1 3 3 2 3 4 4 3 4 3 5 7 3 8 11 12 20 22 22 22 21 23 24 23 23 25 29 32 31 32 29 26 23 25 27 29 30 30 25 16 11 10 6 8 11 12
3 2 3 4 1 2 2 3 6 5 2 4 3 4 5 6 5 8 10 15 16 16 18 20 22 22 22 22 22 23 26 25 28 28 27 27 25 27 31 28 21 12 10 12 8 8 10 16 12
2 6 5 3 3 0 1 5 3 6 5 6 8 5 4 4 5 4 7 12 14 16 18 19 18 20 20 19 21 22 24 25 24 26 28 30 32 30 32 27 19 16 15 12 11 16 16 15 13

GFSSGP_925_spd_060.txt.gz
Wind_Speed
3 3 4 7 7 6 14 9 5 8 5 3 3 5 4 11 9 4 3 12 13 26 30 30 33 35 36 35 37 37 35 33 32 33 33 32 32 31 29 26 26 25 27 26 25 26 26 26 24
4 3 6 3 8 10 10 1 9 5 6 1 3 1 3 3 4 2 1 12 19 26 31 31 33 34 36 39 38 36 34 34 34 35 35 35 33 31 29 28 27 28 29 26 24 25 25 24 22
4 4 7 5 7 11 8 3 4 6 3 4 4 1 4 4 2 3 6 12 22 29 32 32 35 36 38 37 36 35 35 36 37 37 36 36 33 32 31 30 31 32 29 25 24 24 24 22 20
5 6 4 9 11 6 10 4 5 9 4 5 5 5 2 4 4 2 9 13 20 28 32 35 37 36 37 35 35 35 37 36 38 38 37 35 35 33 31 30 30 29 26 24 24 24 22 20 19
5 4 8 9 8 7 6 5 8 7 2 1 5 7 4 2 5 4 7 8 13 12 30 38 37 32 28 27 31 35 36 38 37 38 37 36 34 33 30 29 28 27 26 25 25 22 19 18 17
5 4 8 8 3 3 5 3 4 1 0 2 4 7 3 4 4 9 13 15 14 7 17 24 30 28 25 23 21 23 30 35 36 36 35 36 33 32 30 28 28 27 26 25 23 20 18 16 15
10 6 8 8 7 5 2 1 3 2 4 5 1 3 3 5 6 13 20 23 29 30 36 43 48 43 31 29 21 19 24 29 33 34 33 35 33 31 29 28 28 28 26 24 21 19 16 15 14
5 5 7 5 4 4 4 2 4 2 4 2 2 4 4 5 10 15 21 30 35 37 39 43 46 40 36 35 28 13 23 29 31 31 32 31 30 29 28 28 27 25 24 21 19 17 15 15 14
4 6 6 3 4 2 4 4 2 1 5 3 1 4 8 19 15 19 20 20 29 36 37 42 47 46 46 39 35 25 25 27 29 29 27 27 22 21 22 20 24 22 20 19 18 16 14 13 13
7 6 2 4 6 8 3 7 4 8 5 5 8 8 15 17 14 17 17 16 18 25 27 32 35 41 46 40 37 28 26 23 29 28 22 20 20 17 19 21 21 21 20 19 17 16 12 11 8
5 9 4 8 11 11 13 7 5 7 4 4 4 13 14 16 18 17 15 18 19 22 24 27 29 37 30 30 32 30 22 25 27 25 18 18 17 20 19 20 19 19 17 15 14 9 7 8 6
8 10 10 9 9 9 10 3 3 5 6 7 4 15 11 10 12 17 17 16 21 22 23 26 25 25 24 30 31 30 26 25 22 19 18 18 17 16 17 16 15 14 12 12 9 9 9 8 8
11 8 5 10 11 8 3 5 1 2 4 7 13 11 11 9 11 14 18 17 20 23 25 24 23 27 31 28 24 23 21 23 21 18 16 15 15 16 15 15 14 13 13 11 9 9 8 7 6
3 11 10 4 0 2 6 4 3 5 7 10 12 10 9 9 10 13 17 18 20 25 20 24 23 23 21 19 18 19 20 20 18 17 16 15 14 14 14 14 12 11 10 10 9 8 7 6 5
10 13 4 2 4 3 4 7 5 5 9 10 10 7 7 8 9 12 21 24 26 27 28 24 23 19 17 17 18 18 19 20 19 17 15 16 15 14 13 14 12 11 10 11 10 8 6 5 4
10 6 11 7 7 4 6 3 4 8 10 11 11 9 8 11 12 15 17 20 26 29 26 26 21 17 14 14 16 17 17 17 16 16 14 14 14 14 14 14 13 13 12 10 10 7 6 5 3
10 10 6 6 7 4 9 4 7 8 10 11 12 13 11 13 14 15 16 20 23 25 27 23 20 17 16 14 13 13 14 15 16 15 16 16 15 16 16 15 14 16 13 12 9 8 6 4 3
8 8 8 4 8 8 9 10 6 9 10 11 11 12 12 13 15 17 18 20 23 23 21 21 22 19 14 13 13 13 17 18 17 16 15 14 15 17 16 16 16 17 14 12 11 9 7 5 3
4 6 5 3 3 6 9 10 6 10 11 13 14 13 14 14 17 19 19 22 24 27 25 25 24 20 18 17 17 18 18 18 17 17 15 14 14 17 18 17 18 17 16 15 13 11 9 6 2
8 9 6 3 4 5 6 11 2 9 14 13 14 13 14 14 15 17 21 22 24 27 28 26 24 23 21 18 18 16 18 19 19 17 14 15 15 16 17 18 20 19 16 14 14 12 9 5 3
8 9 3 3 2 8 10 11 6 5 10 11 13 14 16 16 17 17 22 26 26 27 28 27 25 23 22 21 19 17 16 14 17 16 14 15 16 18 19 20 19 21 15 16 15 13 10 7 6
10 7 6 6 7 7 3 3 5 7 9 13 15 17 16 17 17 17 22 26 28 27 26 27 26 25 24 23 21 21 20 18 17 17 15 16 18 18 20 20 20 20 17 16 15 13 11 8 7
6 4 6 8 8 5 7 6 6 5 8 12 16 17 18 17 18 19 21 26 26 26 26 24 25 26 24 25 24 22 20 17 15 16 17 17 16 18 19 18 24 22 19 18 16 15 12 10 8
4 7 4 4 3 7 3 6 4 5 4 2 8 16 18 18 18 18 23 24 26 27 27 27 27 27 26 26 26 25 22 20 16 18 18 18 17 19 20 21 25 21 20 19 18 17 17 12 10
10 9 6 5 5 4 4 5 8 2 3 6 7 7 10 17 18 18 19 25 27 28 29 28 29 29 28 28 27 28 26 23 22 19 20 20 20 21 26 26 26 22 20 19 19 18 14 14 11
15 11 4 5 4 4 4 5 3 2 5 7 6 6 7 11 16 19 20 24 26 28 28 28 29 28 28 27 26 25 25 25 26 27 23 23 25 28 25 28 22 21 20 21 20 18 12 10 10
7 8 1 2 1 2 4 4 11 2 4 3 2 2 2 5 11 17 19 22 24 25 27 28 25 25 26 25 24 24 24 25 27 20 20 18 24 26 23 21 21 23 21 16 19 13 10 11 12
6 10 5 4 4 5 4 4 4 2 4 3 2 5 5 2 3 7 11 19 21 21 21 21 22 22 22 22 22 22 22 21 18 17 19 20 24 18 20 21 26 22 22 24 18 14 12 11 12
6 6 2 1 3 3 3 4 0 2 1 1 1 3 3 3 1 4 6 11 14 16 16 17 17 18 18 19 19 20 20 19 19 20 20 24 24 24 22 27 25 26 24 18 14 10 9 13 14
6 9 11 5 5 3 3 6 8 8 6 5 5 4 4 4 1 1 3 6 8 10 11 12 13 14 15 15 16 17 18 17 16 19 21 21 21 23 21 23 25 26 25 20 15 13 13 14 16

GFSSGP_925_spd_063.txt.gz
Wind_Speed
6 6 9 10 7 8 17 21 15 7 10 9 9 9 17 21 4 5 35 3 9 22 27 28 29 31 34 34 34 34 32 30 29 28 28 30 31 32 31 31 30 27 27 26 25 23 23 22 22
8 6 10 8 9 13 14 11 1 6 13 13 8 8 14 13 9 8 11 11 10 22 27 27 31 32 35 35 34 33 31 30 30 31 32 32 30 30 30 31 30 26 25 24 24 23 22 21 21
6 8 9 11 13 15 11 2 11 7 4 9 8 6 2 6 4 1 4 10 13 22 28 28 36 36 37 36 35 34 32 30 31 33 32 32 30 29 29 30 30 26 26 24 23 22 21 21 19
7 8 7 9 17 14 6 11 5 8 5 7 10 5 4 8 5 10 8 7 14 21 29 32 34 36 35 35 33 31 32 32 33 33 31 32 30 30 31 32 29 26 25 23 22 22 19 19 17
12 8 10 15 16 7 6 4 8 10 7 6 7 19 9 6 10 11 13 5 16 18 11 38 33 32 33 33 31 30 31 32 32 31 32 33 33 34 33 32 29 25 25 24 22 20 18 17 16
9 4 12 13 4 4 3 6 2 7 8 4 12 13 9 8 10 11 8 14 18 14 9 13 30 25 26 26 27 27 28 29 29 31 33 34 32 31 30 29 27 26 24 23 20 19 17 15 14
12 11 14 13 10 6 3 4 1 6 8 9 8 11 6 8 11 14 17 18 13 13 17 29 22 30 30 30 22 19 21 25 26 29 32 33 31 29 27 26 26 25 23 21 19 17 15 14 14
7 8 16 11 7 2 2 2 4 9 14 8 6 7 3 7 14 18 19 24 25 26 39 39 41 34 32 28 22 16 15 22 28 29 30 31 28 28 27 25 24 23 21 19 18 15 13 13 12
10 11 12 4 6 4 8 1 8 1 11 4 6 11 12 19 20 24 20 22 29 25 31 42 45 40 40 34 35 38 26 24 26 28 29 28 25 24 21 21 23 21 20 18 16 13 12 11 12
11 12 9 8 9 8 11 9 5 6 15 13 7 5 14 15 18 18 17 16 16 22 20 30 42 39 41 32 43 36 29 27 23 25 24 22 20 20 19 21 19 18 17 16 14 13 12 7 6
12 13 8 5 6 11 12 6 9 13 4 17 2 11 9 10 13 15 13 17 18 20 23 25 29 31 30 30 32 28 29 24 25 24 21 20 15 20 19 18 16 16 14 12 12 8 4 5 5
9 13 11 10 7 10 12 11 8 11 14 6 13 15 9 10 8 13 17 17 17 17 17 24 26 29 28 32 26 28 25 24 24 19 22 19 16 18 18 16 14 13 10 10 7 6 6 7 7
11 13 10 9 12 10 8 11 7 2 8 16 13 12 8 7 10 13 14 17 20 20 22 26 26 19 23 23 26 27 24 22 21 18 19 18 18 16 17 15 15 13 11 10 8 8 7 6 5
7 9 14 12 13 7 11 11 8 11 13 14 13 11 9 8 10 14 19 19 18 20 21 23 18 21 28 28 26 22 20 17 14 14 15 17 16 15 14 15 14 12 12 10 8 7 6 5 5
11 14 18 12 13 13 9 15 22 13 12 15 14 13 11 10 12 15 16 19 23 22 19 20 20 23 25 21 18 17 16 16 15 15 16 15 14 15 13 14 13 12 11 11 8 8 7 5 4
15 16 17 8 10 8 9 3 25 11 13 13 12 11 12 10 15 17 19 24 25 23 27 28 27 22 17 19 19 17 16 16 19 18 16 16 15 15 14 14 13 12 12 11 10 10 8 7 7
16 16 8 12 12 6 11 8 24 11 9 12 11 12 11 10 12 21 24 25 27 33 29 30 26 22 19 18 17 15 18 18 18 17 17 17 15 15 14 14 14 15 12 12 11 9 9 8 7
11 14 14 8 8 8 13 16 13 6 10 11 11 12 12 13 14 19 19 22 28 27 26 25 23 21 19 18 16 16 16 18 18 18 18 17 17 16 15 14 14 14 14 12 11 11 10 8 7
11 11 9 8 5 7 8 19 9 12 8 9 11 13 12 13 14 21 22 22 23 25 26 25 24 23 20 18 18 19 19 19 19 19 18 15 15 16 16 15 16 17 16 14 14 12 10 9 7
11 13 12 3 3 6 6 18 5 8 9 11 13 13 15 15 15 19 23 26 26 27 27 24 24 23 22 21 20 19 19 20 20 19 17 15 14 15 18 18 18 18 17 17 16 14 12 12 9
11 14 2 2 17 13 14 17 9 8 11 12 11 11 12 16 18 18 22 25 27 29 29 27 26 26 24 21 19 18 17 17 19 20 19 17 18 18 19 19 19 21 19 19 19 17 16 13 10
13 11 8 10 10 8 15 3 18 13 13 13 14 14 17 17 17 20 22 27 28 28 29 28 27 26 26 24 22 22 21 21 20 21 20 17 18 19 19 19 20 20 21 20 22 19 17 15 13
14 5 7 11 12 15 14 7 10 12 10 14 17 18 18 19 20 20 22 28 30 30 29 30 29 28 26 26 25 22 21 20 19 20 20 19 20 20 21 23 24 21 22 21 21 20 18 15 13
6 7 10 11 11 11 7 12 6 10 11 7 15 16 18 18 18 20 24 27 28 29 29 28 28 29 28 26 27 25 24 23 22 22 17 17 19 18 21 22 24 26 24 24 21 18 16 14 12
11 13 9 8 3 8 10 6 7 13 4 1 2 7 16 18 17 17 19 22 28 31 31 30 29 29 29 29 28 29 27 25 23 20 18 17 18 20 21 25 26 26 25 22 20 17 16 16 12
16 16 7 8 6 2 6 6 4 7 3 1 3 5 6 9 16 20 20 24 28 30 32 31 31 30 29 29 29 27 27 27 25 23 28 28 27 23 20 22 24 25 24 19 20 19 20 16 13
12 15 9 7 2 3 6 7 6 6 4 3 1 4 5 5 11 17 20 24 26 28 30 31 29 29 29 31 27 27 26 27 23 22 23 26 20 22 24 27 28 24 19 23 23 21 17 17 12
8 10 8 7 4 8 6 8 5 7 4 6 5 5 5 4 2 7 13 23 25 25 26 26 26 25 24 24 24 24 23 24 22 18 21 20 16 21 23 25 22 24 27 24 21 20 17 12 9
12 10 9 4 7 5 5 4 4 3 6 4 1 2 3 4 5 4 6 13 22 22 22 24 24 24 24 25 27 24 20 21 24 19 19 16 15 16 19 20 24 22 23 21 15 17 14 11 12
13 18 17 9 11 7 8 11 4 6 8 6 7 3 3 2 2 5 5 7 10 15 19 19 20 20 21 20 18 20 15 16 17 18 17 15 15 15 20 24 21 24 24 22 20 13 9 11 13

GFSSGP_925_spd_066.txt.gz
Wind_Speed
8 9 10 16 6 8 16 18 20 22 9 8 8 3 10 20 14 4 2 7 2 31 10 22 30 32 32 32 32 32 30 29 28 27 28 30 34 33 31 30 30 29 27 25 25 24 24 24 24
9 17 16 9 10 12 13 10 10 13 8 8 5 4 10 20 7 4 7 2 8 12 20 20 27 33 33 32 32 31 30 30 28 29 31 32 35 34 32 31 30 29 28 25 24 22 23 23 23
11 14 8 11 13 14 16 3 9 8 11 6 9 9 8 10 16 5 16 10 19 29 27 25 29 31 35 33 33 32 31 30 30 32 32 33 34 35 31 30 30 29 27 24 23 21 22 21 21
10 11 7 9 14 17 17 17 3 8 19 23 14 14 7 26 6 11 13 4 16 24 16 23 30 35 39 35 33 32 32 31 31 31 30 29 31 34 31 30 29 28 26 23 22 21 20 19 18
16 8 11 16 19 18 11 9 10 11 8 13 19 13 7 22 15 14 19 16 21 24 13 15 11 32 38 39 37 35 34 34 31 31 29 28 30 33 31 30 29 27 25 23 22 19 18 17 17
10 11 13 13 13 7 12 4 6 5 9 16 6 8 2 7 7 8 13 27 27 29 21 22 10 34 25 40 40 37 37 34 32 30 30 32 34 33 31 29 28 26 24 22 20 18 16 16 17
13 11 15 18 18 6 11 7 8 6 7 4 10 5 6 6 12 12 13 18 23 28 26 22 26 25 38 38 34 28 36 34 33 32 32 35 37 34 30 27 27 26 23 21 19 17 15 15 17
11 10 19 17 11 8 7 11 5 7 10 2 17 6 6 11 17 15 16 18 21 19 18 26 28 29 23 28 30 19 24 30 32 32 34 33 32 30 27 26 26 24 21 19 18 15 14 15 16
12 11 14 13 11 10 9 8 10 4 7 17 19 14 10 17 15 19 22 21 22 21 22 32 32 29 29 27 29 29 15 23 27 29 29 31 29 26 24 25 24 22 20 17 16 13 13 15 16
10 12 19 10 10 12 8 14 5 4 14 10 23 4 12 15 15 16 14 14 17 19 18 21 23 27 31 29 32 34 26 27 25 29 29 29 29 23 20 23 22 20 17 16 16 13 11 9 9
14 14 17 15 7 10 15 16 7 10 5 7 9 8 11 13 15 16 14 15 15 17 20 25 29 31 26 27 31 30 31 25 28 28 25 30 23 19 21 20 19 18 16 17 14 9 6 6 5
15 12 15 16 13 11 12 13 16 4 4 13 15 12 11 11 11 15 17 17 20 21 21 26 31 29 26 28 27 27 27 23 30 19 27 25 22 18 20 16 15 15 11 13 9 8 7 6 5
12 14 13 18 11 14 12 10 15 10 18 14 15 11 13 9 14 16 17 18 18 19 20 23 23 21 28 31 27 25 22 29 20 20 19 21 21 16 18 15 13 13 12 9 8 7 8 7 6
15 14 14 16 19 11 12 5 5 18 27 13 11 11 11 10 13 18 18 17 18 19 23 22 22 25 33 34 25 27 22 21 19 18 18 18 20 16 17 18 15 15 15 11 10 8 8 9 5
16 17 17 18 17 12 14 10 3 7 15 7 11 9 9 8 15 17 21 20 23 20 25 22 16 27 26 24 31 26 23 20 17 17 18 17 16 17 14 16 15 13 11 12 11 12 9 8 9
17 17 16 14 6 13 12 7 5 9 4 11 11 11 11 13 17 19 18 21 20 25 23 21 19 27 27 26 23 19 19 20 19 19 19 17 17 17 15 18 16 14 13 14 11 12 10 11 11
16 15 19 16 10 14 8 2 8 16 11 16 12 12 10 16 18 23 21 23 27 23 23 24 25 32 30 29 33 24 26 20 19 18 18 19 20 18 20 17 19 17 15 14 13 12 13 11 9
16 11 20 12 9 12 11 15 13 12 21 24 14 13 11 17 20 25 26 26 26 28 34 33 36 35 28 28 22 18 20 19 19 21 21 21 24 20 20 18 17 18 18 17 18 14 12 10 10
16 13 15 4 4 4 9 9 16 19 21 17 15 15 16 13 20 33 31 32 32 34 35 34 32 28 26 26 21 21 23 24 22 23 24 27 25 25 22 18 18 21 20 20 18 15 13 13 8
12 14 15 2 2 3 11 7 21 17 13 11 14 15 15 15 20 21 24 32 37 34 35 31 28 28 26 27 24 23 22 24 24 24 25 25 24 22 23 22 21 23 22 21 19 19 16 16 15
13 14 3 18 4 13 13 13 9 2 11 8 13 14 18 16 18 20 25 25 30 31 30 30 30 29 29 27 28 26 26 26 27 27 24 25 23 21 22 21 21 22 22 21 23 24 22 22 19
14 10 11 11 10 7 6 9 11 11 11 13 11 12 13 16 17 18 21 28 27 33 34 33 34 34 33 29 27 27 22 20 22 23 26 24 24 22 20 22 23 22 23 22 22 26 29 24 20
13 6 11 10 12 14 10 5 11 13 15 14 14 12 14 11 14 20 20 28 32 30 35 33 31 34 33 33 27 27 23 23 24 24 22 22 22 18 20 19 22 23 22 27 21 26 28 25 22
10 9 9 12 11 11 14 6 9 5 10 11 18 17 15 18 17 17 29 32 31 32 31 34 30 28 28 32 32 27 27 24 20 21 21 21 19 19 20 21 26 29 29 28 26 23 23 25 17
9 10 7 6 8 8 6 9 7 12 12 14 8 19 19 16 17 18 20 22 30 33 33 32 33 30 31 28 30 31 25 27 24 22 25 27 25 26 24 28 30 28 28 27 26 23 23 19 16
14 14 8 6 3 4 12 6 5 10 10 5 1 2 9 16 14 15 17 24 30 34 35 34 33 33 30 31 28 27 29 23 24 25 21 31 28 29 25 32 30 30 27 27 25 22 22 20 15
14 13 16 9 9 5 5 14 6 9 5 8 4 2 7 6 8 17 16 19 28 32 34 36 32 31 31 32 32 31 34 33 29 30 27 31 31 21 25 25 28 29 27 23 24 24 21 19 19
16 9 10 6 4 6 6 7 3 8 6 8 8 6 6 2 2 6 15 21 25 30 33 34 34 30 31 29 32 33 33 32 29 27 28 19 19 20 20 25 27 25 21 23 24 20 19 18 15
11 11 11 13 7 1 4 2 2 7 6 7 6 7 5 5 6 1 4 9 25 26 30 33 32 30 28 33 32 33 29 30 26 22 18 17 17 18 19 19 20 21 24 24 23 23 20 17 15
17 17 15 6 8 5 2 5 4 11 5 8 7 6 4 4 6 7 4 1 2 21 23 28 29 27 25 24 22 30 28 19 17 13 11 14 17 15 18 17 20 23 21 22 25 21 16 16 14

GFSSGP_925_spd_069.txt.gz
Wind_Speed
7 6 5 2 3 2 7 12 15 11 3 3 3 4 4 4 2 3 17 16 21 27 30 23 16 23 26 29 30 32 32 31 31 31 36 39 38 38 36 34 34 32 30 28 27 27 29 27 27
6 3 1 3 2 4 7 15 9 1 6 2 1 3 4 9 13 9 3 12 22 22 22 23 23 37 29 29 31 31 33 32 32 36 38 38 37 36 36 35 34 32 29 27 27 27 27 26 23
8 4 2 3 4 8 9 15 10 7 17 11 8 8 7 7 14 11 26 5 16 22 27 16 29 44 36 35 35 35 36 34 35 40 38 38 38 37 36 35 33 31 28 27 28 27 25 24 21
1 3 4 2 14 17 15 14 5 5 7 13 2 8 5 6 7 16 24 4 11 8 12 16 32 44 39 36 37 36 36 36 38 42 41 40 38 37 35 34 32 30 28 28 27 26 23 22 20
3 2 3 6 13 16 15 4 5 5 4 6 1 3 6 2 12 13 15 3 14 15 15 19 24 23 16 35 39 39 38 38 39 41 41 39 39 37 36 33 31 29 27 26 24 23 21 21 19
2 3 6 11 14 15 3 7 7 4 6 4 2 4 3 4 12 13 4 2 12 17 16 19 16 13 18 49 44 42 42 41 40 39 41 39 39 37 35 33 31 28 26 25 22 21 20 20 19
7 3 7 10 15 12 4 7 5 4 7 3 4 4 3 7 5 2 4 4 11 17 19 15 15 8 15 25 38 33 33 37 39 38 39 39 38 36 34 32 29 27 24 22 21 20 19 20 20
4 2 8 10 12 7 4 2 4 4 7 9 3 5 5 1 1 12 9 10 12 13 21 28 32 26 18 15 22 26 24 32 32 36 40 39 36 33 32 32 28 25 23 21 19 19 20 22 21
3 3 8 14 15 3 2 2 3 5 8 4 2 1 9 15 8 11 9 11 11 14 16 23 26 32 32 38 35 31 22 23 28 33 37 37 35 32 31 29 27 23 21 20 18 20 21 19 16
1 4 11 17 10 6 0 6 5 5 4 5 11 12 10 19 13 8 8 7 16 17 17 20 30 33 35 41 37 39 25 23 26 29 32 33 33 32 30 26 25 22 19 19 19 18 16 12 11
8 10 16 12 11 6 5 7 13 7 11 16 4 15 11 13 10 10 8 9 13 20 23 23 30 30 35 37 41 39 30 31 30 30 32 30 32 31 29 26 22 21 19 19 16 13 10 13 10
5 15 9 8 9 5 5 2 8 14 8 18 5 7 5 11 9 12 12 15 17 20 24 28 30 28 37 38 36 35 32 30 30 31 30 30 30 30 28 23 21 19 17 15 11 10 9 8 7
9 11 8 10 10 8 7 6 8 6 11 16 4 4 6 8 9 10 12 13 18 22 24 23 29 29 33 37 36 33 28 30 22 30 26 27 28 28 24 20 19 16 14 10 9 7 7 7 8
11 13 9 8 9 9 8 6 6 7 5 15 15 7 7 8 11 11 13 15 16 21 23 25 26 30 34 37 33 32 26 28 21 27 21 22 23 23 20 18 15 14 12 11 11 6 8 9 7
11 12 10 8 11 10 8 3 6 5 10 11 12 11 11 12 18 16 16 15 20 22 24 24 21 27 32 37 35 27 27 21 23 22 22 21 19 19 20 18 15 16 16 13 11 9 9 12 6
8 9 6 12 11 12 9 3 6 11 11 8 14 9 9 11 18 17 18 17 19 24 24 21 20 31 34 38 35 27 27 24 20 22 21 19 16 18 17 20 17 14 17 14 14 16 12 11 11
5 10 13 19 17 6 6 3 10 9 9 8 10 12 12 9 14 18 21 22 26 26 27 23 29 35 27 32 31 27 23 27 22 20 20 19 19 19 18 18 18 20 17 18 18 16 14 15 15
8 9 11 7 1 6 3 7 5 8 9 7 3 5 10 13 13 21 22 22 24 26 25 29 30 33 35 33 27 26 23 21 20 19 20 24 22 19 21 20 20 20 22 22 19 17 18 16 16
16 18 8 5 5 7 6 6 9 9 11 10 12 10 15 15 16 25 25 23 24 26 30 26 29 35 34 27 32 32 28 24 22 25 24 25 23 24 22 24 22 26 25 24 21 21 19 18 18
18 12 9 2 7 2 5 5 10 10 6 12 18 16 18 14 17 22 28 27 27 32 30 32 38 36 32 30 32 29 31 30 26 27 26 27 23 25 26 27 25 25 24 22 23 26 24 24 21
12 5 7 6 5 7 4 7 5 9 7 13 18 21 18 25 21 20 25 30 31 31 33 34 33 34 31 33 31 27 24 27 29 29 29 29 29 29 30 30 29 24 27 25 27 27 27 23 21
5 10 10 4 4 3 5 5 3 6 13 14 20 19 18 24 22 22 26 30 35 37 36 35 33 31 34 35 33 30 26 23 27 33 30 34 31 33 33 33 30 29 29 29 28 26 29 26 22
9 5 1 5 5 4 4 2 5 9 10 8 11 20 18 24 24 24 25 34 37 38 38 38 36 38 36 35 34 36 31 33 30 33 36 35 33 34 32 31 28 26 27 29 30 27 30 23 13
8 2 3 3 1 4 4 4 7 5 9 13 7 19 18 21 23 24 33 36 36 36 35 37 37 39 41 41 40 33 35 37 36 36 37 40 38 37 34 33 31 30 31 30 31 29 26 23 25
6 2 2 4 2 5 5 6 9 10 7 9 14 18 18 18 22 22 23 26 33 38 39 39 38 38 41 44 43 46 40 43 41 36 36 34 35 40 40 36 33 30 32 31 29 26 25 25 26
6 8 5 5 3 3 6 5 6 8 7 5 10 19 18 18 18 24 25 32 37 40 42 42 41 39 42 46 49 49 46 40 40 39 40 44 42 41 39 35 31 29 29 27 21 23 21 20 21
5 6 7 6 2 4 4 7 6 4 5 6 6 10 14 14 17 20 24 33 37 41 43 45 45 43 40 42 41 46 48 41 41 44 36 43 40 40 37 31 31 28 24 21 21 23 22 21 17
7 4 3 3 4 3 8 7 2 4 8 7 6 5 6 8 9 15 18 30 36 40 44 45 45 45 44 38 39 40 42 40 35 37 36 28 32 30 30 25 23 24 24 23 21 20 20 19 18
5 9 4 6 6 5 2 4 4 7 6 7 8 8 8 7 5 5 4 23 38 38 39 42 41 39 38 40 42 41 35 36 34 26 19 17 28 34 26 23 24 25 24 22 21 21 21 21 20
14 10 8 4 5 4 5 5 6 10 5 9 9 9 9 9 8 3 5 6 22 30 36 37 39 40 41 40 39 39 35 28 21 20 23 31 28 27 25 22 21 21 21 20 20 21 22 20 16

GFSSGP_925_spd_072.txt.gz
Wind_Speed
4 2 2 3 4 4 4 7 3 10 6 3 4 4 13 10 4 4 3 8 11 16 22 24 28 29 20 9 24 28 30 31 33 36 39 38 38 39 39 38 36 34 32 31 31 30 29 26 24
1 2 3 2 4 0 5 6 3 5 4 3 5 5 6 4 2 3 3 8 12 15 20 27 30 35 26 13 19 32 32 33 35 39 41 43 42 40 40 38 35 34 33 31 30 29 28 28 26
1 3 3 3 3 4 4 3 5 4 6 4 5 4 5 2 3 6 3 6 16 23 15 24 33 12 12 32 33 34 37 37 39 41 41 41 40 41 40 38 35 33 31 28 28 30 29 24 23
3 5 4 3 7 11 7 21 19 6 8 2 4 6 2 3 6 8 12 3 14 13 23 32 22 19 19 23 36 30 40 42 44 41 40 41 40 40 39 37 35 32 30 29 31 29 27 23 27
3 3 3 2 8 6 12 16 11 8 3 2 2 3 1 3 3 6 10 2 7 13 15 21 22 23 22 23 27 38 42 46 46 45 41 40 40 40 38 36 34 33 31 31 30 28 27 26 29
3 3 2 3 8 6 10 7 6 3 5 1 4 5 4 9 1 5 5 5 14 17 23 30 37 21 6 16 7 41 39 50 42 46 42 41 40 39 37 34 33 31 30 28 27 27 28 28 24
6 3 4 4 14 14 6 6 2 4 4 4 2 5 5 3 9 10 7 8 14 18 19 22 23 16 14 13 15 43 32 38 46 43 42 40 39 38 36 34 31 29 27 27 25 25 26 27 23
5 4 3 6 10 12 11 3 2 5 6 1 3 2 5 3 10 12 9 12 18 21 24 20 19 19 17 17 17 30 30 25 37 41 39 38 37 36 35 32 30 27 26 25 23 24 23 24 24
4 2 5 7 5 8 9 4 7 3 7 4 5 3 4 4 9 12 8 13 17 22 25 24 20 22 22 25 34 37 34 23 29 38 39 37 36 34 33 31 28 26 25 24 24 23 20 22 24
4 3 8 7 8 8 3 1 1 5 3 3 3 2 2 3 6 7 5 9 15 17 19 22 26 30 35 39 42 46 43 28 27 35 37 35 34 34 32 29 27 25 24 25 25 22 18 18 18
4 7 11 18 16 9 5 4 4 10 2 8 7 9 7 6 7 7 5 8 11 17 20 26 31 34 38 35 40 44 39 30 28 30 30 32 33 33 32 30 28 25 24 23 19 15 16 16 14
2 8 10 16 18 7 3 6 2 0 9 9 13 17 13 9 6 7 8 9 15 19 22 27 28 29 33 36 32 39 40 33 33 29 28 32 33 33 32 29 27 25 23 20 16 16 15 13 13
6 10 9 8 11 6 5 4 6 4 6 1 8 11 13 8 8 9 9 12 16 20 23 27 27 32 33 33 37 36 35 37 38 37 32 34 35 33 30 29 26 24 20 15 15 12 11 11 13
5 7 9 8 10 5 4 4 2 9 8 8 12 8 8 12 13 13 13 13 16 20 22 25 28 33 37 39 39 35 33 35 35 35 33 34 33 32 28 28 25 22 17 13 13 9 11 11 11
4 9 9 10 5 7 8 3 6 0 7 10 7 8 9 11 16 13 16 18 18 20 20 26 28 34 31 35 36 34 35 31 36 32 30 30 31 28 29 24 22 20 17 14 13 10 10 11 10
6 4 4 7 4 12 8 13 5 7 9 8 8 8 8 9 14 15 15 16 18 21 23 23 25 31 35 37 35 34 37 28 33 30 28 26 26 27 25 23 21 18 17 16 15 13 13 12 11
2 5 6 10 11 9 7 6 5 9 9 9 10 9 8 9 10 15 16 17 21 24 23 18 25 31 32 31 34 30 29 27 30 26 27 25 24 26 22 20 18 19 20 19 17 15 14 17 15
6 4 5 7 12 4 1 4 9 11 7 10 7 6 7 9 11 15 18 16 18 24 27 20 25 29 34 34 29 28 22 25 26 25 23 28 25 25 20 18 20 21 23 21 19 19 19 17 17
5 6 8 13 21 5 7 6 15 8 10 8 8 8 9 11 10 15 21 22 21 23 23 21 25 30 32 31 29 30 26 27 25 28 28 27 26 24 22 22 24 24 25 23 23 23 21 21 18
11 12 15 15 14 3 4 5 8 12 12 14 15 9 8 9 12 14 17 20 24 28 28 25 29 32 32 32 33 26 28 30 29 26 28 28 27 24 25 26 28 27 26 26 27 26 23 21 19
15 13 13 15 5 5 2 3 3 11 5 8 13 9 6 14 15 15 20 23 24 28 30 30 34 35 36 32 31 27 30 29 31 30 30 29 28 29 30 31 30 28 29 29 27 25 25 23 20
12 12 14 6 2 4 3 5 5 5 10 11 16 13 12 15 14 15 19 24 28 33 33 30 36 38 39 31 32 30 28 23 26 31 30 31 33 33 31 31 30 30 29 30 30 26 28 27 21
12 13 9 6 4 1 4 2 6 4 8 12 15 17 17 18 18 19 19 28 31 33 37 37 37 37 36 36 32 33 29 30 28 32 33 35 34 34 35 35 33 32 33 33 31 29 28 30 27
16 7 1 5 2 3 3 5 5 5 6 5 16 19 20 20 20 18 28 28 29 33 36 34 34 35 36 36 39 36 34 33 32 34 35 38 36 37 39 37 36 37 36 34 31 30 27 31 31
14 5 1 3 3 6 1 3 8 9 8 10 20 20 22 22 21 19 19 24 30 34 38 37 37 36 36 36 39 41 40 41 39 40 39 38 40 40 40 39 41 40 37 31 30 28 30 28 28
8 8 5 5 4 4 4 6 6 7 14 8 15 23 24 23 21 22 24 30 35 39 40 40 39 38 39 39 42 42 41 39 43 41 41 41 40 41 42 43 43 39 34 28 28 27 29 28 25
5 5 8 7 2 2 4 7 9 3 2 5 8 17 22 23 22 23 22 32 35 37 41 43 42 41 41 43 41 41 41 41 38 44 43 46 42 41 37 39 40 41 32 29 27 27 27 24 22
8 7 4 1 5 3 5 5 5 1 3 3 6 11 16 20 22 22 21 30 35 39 42 41 42 42 46 44 41 41 40 44 45 35 42 41 39 35 36 34 34 33 31 28 26 26 25 23 23
1 3 3 5 6 4 3 5 6 7 7 8 8 9 12 15 14 15 18 29 36 36 35 40 39 40 38 40 39 38 39 42 43 39 31 30 21 23 20 33 38 34 30 28 28 27 25 24 24
7 11 9 5 5 5 3 5 3 9 7 7 8 9 9 11 11 14 17 24 29 32 35 36 38 39 27 24 21 20 21 29 30 30 27 24 22 15 34 38 37 32 29 30 29 28 25 25 24

GFSSGP_925_spd_075.txt.gz
Wind_Speed
3 3 2 3 4 5 3 5 3 6 6 3 6 3 5 4 2 3 3 5 9 14 17 18 21 20 22 26 29 30 35 35 37 39 40 38 38 38 39 40 39 36 34 31 30 28 28 28 25
6 4 2 2 4 3 5 4 4 4 4 6 4 1 1 3 2 2 1 2 4 16 20 19 15 9 16 20 24 31 29 29 35 37 38 37 36 35 36 38 38 36 34 32 29 26 24 21 22
5 2 3 4 3 3 4 5 6 4 6 5 4 4 3 5 1 3 5 9 11 23 22 26 23 8 7 6 14 20 27 22 35 38 38 37 37 31 36 39 38 36 33 30 28 24 26 28 26
4 5 4 4 5 7 6 10 10 3 4 2 1 3 3 1 3 1 8 10 8 22 16 21 29 35 15 15 15 22 25 30 26 38 40 39 40 32 36 38 37 35 33 29 25 25 28 29 26
3 3 4 2 5 5 6 7 12 6 4 1 1 3 1 2 3 3 4 6 10 13 17 22 23 16 17 18 16 20 30 32 32 41 40 38 38 34 36 35 36 35 32 29 26 27 31 28 27
4 3 4 3 5 5 7 8 4 4 1 2 3 2 3 9 6 5 3 1 7 9 13 20 26 21 16 14 11 20 28 37 32 40 39 39 37 34 35 35 36 35 35 33 28 29 30 28 26
6 4 4 4 5 7 4 0 5 3 6 3 2 3 4 4 4 7 7 5 8 11 17 21 25 22 15 17 27 28 32 45 44 40 40 40 39 35 35 33 35 35 35 33 30 28 28 27 24
5 4 2 4 4 8 5 3 5 4 4 0 1 4 3 3 8 11 12 14 12 15 22 25 24 22 21 16 15 20 52 41 39 38 39 41 35 33 33 32 33 33 32 33 30 28 25 24 22
4 3 3 5 2 7 4 3 4 2 3 2 3 2 9 13 13 15 16 14 15 16 14 16 17 18 18 11 17 32 37 41 39 37 38 39 37 33 33 32 32 33 32 32 29 28 26 25 22
4 4 7 7 6 11 11 2 5 3 2 4 4 4 12 13 13 13 9 10 15 18 17 17 18 19 24 25 33 42 40 35 35 36 40 39 36 33 31 30 31 32 32 31 29 25 24 24 24
5 6 4 12 11 6 8 4 5 6 6 7 7 5 8 10 10 11 10 12 15 17 19 21 24 27 32 34 40 40 41 33 30 37 40 39 36 33 32 31 30 31 30 28 27 24 21 19 19
2 8 5 9 7 2 4 5 6 7 4 3 5 7 12 10 9 11 12 17 17 16 20 24 26 26 29 33 36 37 34 34 34 39 39 39 36 33 31 30 29 30 28 24 22 22 20 18 17
4 6 6 8 11 7 5 5 7 7 2 4 5 5 7 9 11 12 14 15 19 20 22 24 28 28 30 30 31 32 39 35 34 34 38 37 33 31 29 28 28 27 24 21 21 20 17 16 16
4 5 9 7 10 4 7 4 1 7 7 2 7 10 8 10 11 12 12 15 17 20 23 23 27 29 33 32 35 32 32 34 37 34 33 35 37 34 32 29 27 24 21 20 18 17 16 14 13
4 8 7 6 5 6 8 2 9 4 8 7 9 7 10 8 15 14 17 17 18 20 24 24 29 30 31 35 37 30 29 32 36 38 36 36 35 34 31 28 26 23 19 19 16 15 15 15 13
4 1 3 3 3 5 6 9 8 8 9 9 9 7 9 9 15 16 20 18 19 20 24 24 26 33 29 27 28 29 30 34 38 40 34 33 33 31 30 27 25 22 19 18 16 16 16 14 14
2 4 6 10 4 3 3 10 5 7 7 7 8 8 9 8 10 16 20 21 21 21 21 25 24 30 28 26 25 26 30 31 32 34 30 31 32 30 28 28 25 22 20 18 17 17 16 17 15
6 5 5 6 6 6 5 12 4 5 7 7 7 8 8 10 10 16 19 20 21 24 23 24 25 31 28 25 22 22 24 27 32 31 30 30 30 28 27 25 25 23 20 19 19 17 16 15 15
4 3 5 8 15 3 10 6 10 5 6 8 8 8 8 10 7 18 19 20 21 24 25 20 27 26 30 26 28 24 24 26 31 29 27 28 26 29 26 26 23 22 20 22 20 19 19 16 16
6 5 10 11 18 4 9 9 6 7 9 11 10 9 8 8 12 11 19 21 21 22 24 21 23 29 30 28 26 21 25 26 32 29 26 26 27 26 26 26 24 22 21 22 22 22 21 18 16
8 10 8 11 7 5 5 5 4 4 5 6 8 5 7 13 15 11 14 20 20 22 24 23 24 28 28 28 24 21 19 23 26 27 28 27 26 26 27 25 24 24 24 26 26 27 26 22 19
11 11 13 9 3 5 3 5 4 6 10 7 10 9 9 11 11 10 12 18 23 25 26 27 26 27 30 30 28 25 22 17 24 27 27 28 29 28 28 27 26 28 28 29 29 27 29 26 22
12 7 9 9 6 3 1 1 7 2 6 11 17 14 12 14 15 14 14 20 22 26 30 31 28 28 29 32 29 30 22 22 23 25 26 28 29 31 31 31 30 31 32 32 31 32 32 31 27
6 4 4 1 3 3 5 5 5 6 9 9 10 15 13 14 15 14 17 17 19 22 27 32 31 32 33 36 36 32 34 29 29 26 30 33 33 33 33 37 35 33 35 35 35 34 34 33 31
5 3 3 2 1 5 3 3 8 8 8 9 10 13 13 12 13 13 15 15 20 23 27 30 31 32 35 38 39 38 38 37 38 37 34 35 35 38 40 38 39 38 41 40 38 37 34 32 31
8 9 5 5 4 4 0 5 6 7 6 9 12 13 13 12 13 16 17 20 24 28 30 32 32 34 36 38 38 40 41 41 41 41 38 39 41 41 40 40 38 40 40 40 39 37 30 27 30
5 5 10 6 3 2 4 7 8 8 8 6 10 8 9 12 14 17 16 24 27 29 35 38 35 36 38 39 38 39 42 41 37 39 41 41 40 39 36 35 36 38 39 39 35 25 29 30 29
10 8 4 1 5 4 3 5 7 8 8 6 6 10 12 12 12 12 14 20 27 32 33 35 38 40 40 37 37 35 34 38 36 31 33 38 35 32 30 32 34 34 33 35 31 33 33 30 29
4 4 2 4 4 6 1 6 7 10 9 8 8 9 12 13 13 14 13 22 28 27 29 33 35 38 37 34 28 26 26 29 30 35 35 33 30 25 26 27 27 25 32 34 30 32 30 30 27
5 6 6 5 3 1 5 7 4 8 6 3 7 9 10 13 15 15 15 19 22 27 28 35 38 37 34 28 26 30 40 46 40 42 37 34 34 23 21 28 34 38 39 36 32 35 32 29 26

GFSSGP_925_spd_078.txt.gz
Wind_Speed
6 4 3 4 4 5 2 5 2 4 3 1 5 4 2 1 0 3 4 4 2 11 18 20 19 19 22 21 20 26 35 40 41 41 41 38 36 34 34 32 33 34 32 30 29 29 28 27 25
8 6 4 2 4 3 4 4 6 7 3 3 3 2 2 3 1 1 2 5 3 10 18 23 24 24 20 16 13 17 29 39 39 39 38 38 37 35 35 34 33 34 32 29 29 29 28 26 25
6 3 3 4 3 4 4 6 8 4 5 4 2 2 1 3 2 4 4 3 6 10 20 25 28 31 26 14 3 9 21 31 37 39 39 37 38 36 35 35 33 32 31 28 26 24 26 25 24
3 5 4 4 3 6 6 6 7 6 2 5 4 2 1 3 2 4 7 7 1 12 13 23 26 29 30 24 25 8 15 21 30 35 37 36 36 34 34 35 33 31 29 27 26 30 27 24 24
4 3 4 1 4 5 5 6 3 4 2 1 2 2 4 3 5 7 8 8 4 9 16 22 26 24 21 21 31 33 29 30 31 36 36 35 34 34 34 36 31 29 27 27 29 30 29 26 26
4 3 3 3 4 5 6 6 4 2 3 2 2 1 5 3 4 4 6 4 3 6 13 22 24 19 17 26 27 31 36 33 33 34 37 36 37 34 34 37 31 29 27 30 31 30 28 27 28
6 4 5 3 4 6 4 4 2 3 3 5 4 3 1 3 4 3 2 3 3 6 9 28 25 23 24 26 28 32 34 35 38 38 39 35 39 36 36 36 33 29 27 29 32 30 29 29 28
5 4 4 4 3 7 3 3 2 4 6 1 4 7 4 3 5 4 2 1 3 9 13 25 28 24 22 22 23 30 38 38 40 43 40 36 38 36 38 36 33 29 29 30 32 30 27 27 27
4 4 3 5 6 6 4 2 1 1 2 1 3 0 2 9 9 8 6 3 5 8 15 23 27 19 13 8 5 18 42 39 35 37 40 39 40 37 35 37 35 31 31 31 31 29 26 26 25
3 4 8 7 5 5 7 4 4 3 2 5 3 4 7 9 8 8 8 7 8 9 11 15 22 19 16 7 6 14 32 41 40 39 40 40 39 37 36 35 35 32 30 29 29 28 27 26 25
5 6 5 6 9 5 5 4 5 6 5 10 6 12 10 6 7 7 7 10 11 11 11 12 13 16 15 15 24 28 38 44 42 37 40 39 39 38 37 35 34 32 30 30 31 30 27 24 22
3 7 5 6 5 3 4 3 4 8 9 1 6 15 12 10 8 9 9 12 14 13 12 13 14 18 19 24 26 32 29 39 43 37 34 39 39 37 36 35 34 30 28 29 28 27 25 22 19
5 5 6 8 9 7 4 8 5 9 6 6 8 12 11 9 9 10 10 13 15 16 15 15 19 20 21 24 28 30 35 41 37 37 35 37 37 36 34 33 33 28 26 25 26 25 23 21 21
4 4 8 7 9 5 5 1 2 10 9 8 8 9 10 10 10 8 9 12 16 17 19 18 20 22 22 25 28 27 35 39 37 37 39 39 39 36 33 31 30 26 24 24 22 20 20 21 18
4 7 8 6 5 7 6 5 8 9 10 10 9 10 9 10 12 12 15 14 15 18 20 20 21 24 24 26 23 24 31 39 35 35 37 37 36 33 31 31 26 23 23 22 19 19 20 19 17
2 1 3 2 5 2 6 9 13 7 11 9 11 10 9 12 12 13 13 14 17 18 21 21 22 25 20 25 23 24 25 32 33 34 36 36 33 34 34 28 27 23 22 20 20 21 19 17 16
2 5 5 9 5 3 5 10 7 4 6 8 9 9 11 11 12 13 14 14 17 19 20 20 21 24 22 22 22 23 22 23 28 27 28 26 29 30 29 30 27 22 20 19 19 19 18 16 15
5 5 5 7 2 2 3 11 11 4 6 7 8 8 9 12 13 15 15 15 16 18 20 21 21 25 25 21 20 22 21 19 30 27 24 26 29 28 27 26 25 22 20 21 18 17 16 16 13
4 4 4 5 4 4 8 7 16 3 5 8 8 9 10 12 8 15 16 18 17 19 20 22 24 27 28 26 22 24 25 25 26 34 35 28 29 26 24 25 24 22 23 20 18 17 16 15 14
6 4 11 12 11 8 8 12 11 4 6 7 9 8 9 7 8 13 17 18 19 20 20 21 22 28 29 28 24 17 25 27 31 31 32 30 30 27 27 27 25 25 24 22 23 21 17 14 16
13 13 10 10 7 4 5 7 7 3 5 4 7 7 8 13 15 12 13 18 19 20 21 21 22 24 27 25 25 18 23 19 27 32 30 27 26 27 26 25 25 25 26 26 26 24 22 19 19
7 11 10 7 2 4 2 5 7 6 7 5 7 9 11 13 12 14 13 18 20 22 22 23 24 25 25 27 31 25 25 18 20 31 31 26 27 26 26 27 28 28 30 27 28 24 25 22 21
11 9 10 6 6 1 5 2 7 2 6 9 8 11 12 14 16 16 18 22 21 21 26 27 28 25 29 29 32 31 26 28 27 30 29 29 29 30 29 28 31 30 30 30 27 26 27 28 28
1 4 4 1 2 4 9 6 5 5 7 6 6 7 11 14 15 13 19 19 19 21 26 29 28 27 29 34 33 34 33 30 28 31 32 33 33 32 32 32 32 31 30 29 29 30 30 32 33
6 4 2 1 1 6 6 4 10 7 9 8 10 10 9 14 15 15 16 15 22 27 30 29 30 29 31 34 36 38 38 33 33 35 36 34 33 34 35 32 32 32 32 32 32 33 33 34 34
11 10 5 6 5 4 2 6 6 8 7 8 9 10 7 10 13 17 18 21 25 27 31 32 32 30 34 36 36 37 35 36 34 32 32 33 34 34 32 32 30 32 33 35 34 35 36 37 34
6 13 8 5 2 2 4 6 8 8 7 7 9 6 8 11 14 17 17 23 26 28 32 35 31 32 33 36 35 32 33 33 31 34 32 33 34 32 29 29 30 30 30 33 33 34 36 35 28
8 7 4 1 5 4 4 4 6 8 12 9 8 8 8 8 10 13 14 20 26 27 29 33 31 33 33 33 32 30 30 31 32 31 34 36 36 36 36 35 33 30 28 29 29 32 32 31 32
5 14 3 4 5 6 3 6 7 8 8 9 9 8 8 8 10 13 14 21 22 23 29 35 37 34 34 36 32 29 28 30 35 41 44 46 45 43 41 42 38 33 32 33 30 32 27 27 30
9 9 10 5 4 2 3 8 5 6 7 3 9 8 6 7 7 9 11 16 22 25 28 32 30 33 30 31 31 40 41 42 49 52 49 40 40 47 43 37 32 36 35 34 32 33 35 29 31

GFSSGP_925_spd_081.txt.gz
Wind_Speed
8 6 4 3 2 0 1 2 2 3 3 3 2 3 2 2 4 5 3 3 1 7 12 14 16 18 20 22 27 32 33 36 39 39 38 36 38 37 37 37 33 30 29 26 26 24 24 25 25
9 6 3 2 2 3 2 2 7 8 4 2 4 3 3 3 2 2 4 2 4 10 17 16 18 20 22 22 27 28 28 31 37 41 38 39 40 37 35 36 34 32 29 26 25 25 25 25 25
6 3 1 3 2 3 2 5 9 5 8 5 3 2 2 3 4 2 4 2 2 8 17 22 21 22 26 24 23 25 25 24 34 37 38 38 38 38 36 37 34 34 29 25 25 25 25 24 23
3 2 3 2 4 4 4 5 5 7 1 4 1 4 3 2 4 3 2 4 4 10 19 22 24 26 27 27 26 25 27 12 31 35 36 37 38 39 37 37 34 33 30 27 25 24 24 24 24
4 1 2 1 3 4 5 6 4 4 3 5 7 3 4 2 3 0 1 4 3 11 19 28 27 30 32 22 22 23 21 18 24 31 32 36 38 40 37 36 35 34 29 24 24 23 24 26 25
2 1 2 3 4 4 5 6 2 3 2 2 5 2 3 3 2 3 3 2 4 10 16 27 32 32 28 21 21 20 25 27 32 26 30 36 39 41 40 36 34 31 30 30 27 24 25 26 27
3 2 3 3 3 5 4 2 3 4 3 5 3 3 2 2 2 1 2 2 2 7 15 20 29 30 28 24 21 24 22 24 28 34 37 39 39 41 40 37 34 32 32 30 29 26 27 27 28
4 3 3 4 3 4 3 2 2 4 5 2 3 6 4 1 5 3 3 2 1 5 8 22 27 30 27 22 23 25 26 31 36 41 39 40 43 41 40 38 32 32 32 31 30 28 28 27 27
3 2 5 5 7 4 3 4 2 1 3 3 5 3 2 6 6 5 3 2 2 3 10 21 24 25 25 20 20 23 26 34 38 39 44 42 41 38 38 35 33 32 33 32 30 29 29 29 27
4 4 9 6 5 5 2 4 6 3 3 6 5 5 6 7 6 6 5 4 5 6 8 18 26 20 15 17 18 22 29 33 39 39 47 39 41 40 37 35 32 31 33 32 30 29 29 26 22
5 9 7 6 11 7 6 5 3 4 6 12 9 12 11 11 10 10 7 7 7 7 7 11 16 19 16 14 14 18 17 33 36 34 41 40 39 38 38 36 34 31 32 27 27 28 21 21 21
4 9 8 5 6 4 4 3 4 8 10 1 7 11 13 11 10 11 8 8 8 8 7 8 11 15 16 13 13 14 21 33 38 39 42 42 37 36 37 39 36 35 30 26 25 22 21 23 23
6 6 8 10 5 7 3 12 8 12 15 5 8 11 12 11 13 10 7 7 7 10 9 10 11 12 12 16 15 13 30 34 36 36 36 41 40 37 41 39 36 32 31 31 28 26 24 21 21
5 7 10 7 7 6 8 6 5 16 7 9 11 12 12 13 13 10 7 8 9 11 10 12 13 12 14 17 11 21 22 41 34 32 39 42 44 43 41 36 31 30 30 28 27 27 22 18 18
3 8 10 11 13 10 8 6 9 9 8 11 11 12 11 12 13 12 10 10 11 12 13 15 14 14 16 18 16 26 32 34 31 35 37 40 40 39 38 33 29 25 27 25 26 24 21 19 16
2 2 5 2 2 2 8 11 12 3 9 11 12 11 11 13 14 13 10 9 12 12 16 17 17 18 18 18 18 25 35 37 32 29 32 39 40 35 36 34 29 28 25 22 20 21 20 19 17
3 9 8 8 4 3 7 6 6 3 8 11 11 12 12 13 14 13 11 11 13 13 16 19 20 20 18 20 16 31 33 30 39 36 33 32 35 36 37 38 33 26 21 19 20 19 19 18 16
9 7 5 9 1 2 4 14 17 7 10 12 14 12 14 14 15 15 13 12 13 15 18 22 23 25 21 22 18 20 30 31 29 34 36 33 32 36 36 35 29 21 23 21 20 19 19 15 16
7 7 9 6 4 2 9 11 17 9 6 10 12 13 14 15 12 15 15 14 13 15 16 21 23 27 25 26 23 23 23 28 27 26 25 23 27 30 30 25 17 23 25 24 21 22 19 16 16
10 7 18 11 8 7 9 15 16 12 7 8 15 15 16 13 11 14 15 17 16 17 17 21 24 28 28 26 22 23 24 24 28 24 19 26 24 23 23 22 29 30 25 23 24 23 16 12 20
16 18 16 14 6 9 7 8 7 3 4 5 10 14 14 17 16 14 16 19 18 19 19 22 23 27 28 26 25 22 23 22 26 27 24 30 20 23 24 27 28 28 26 24 24 25 22 15 17
17 12 15 14 7 7 2 6 7 12 11 7 10 14 16 17 16 15 16 21 22 21 22 20 24 28 29 32 30 28 31 23 28 34 33 38 30 26 30 31 29 28 27 26 27 28 26 19 14
14 6 12 16 12 7 12 6 3 3 7 11 8 15 17 18 19 19 19 23 24 22 24 24 23 22 27 33 33 33 25 25 31 32 36 38 37 34 34 33 30 29 28 28 28 27 28 28 21
3 8 1 1 3 7 14 6 7 6 8 6 7 7 14 17 18 17 20 22 23 23 24 25 26 24 25 28 30 30 29 25 28 33 35 32 32 35 34 31 31 31 30 29 29 31 30 31 30
7 5 2 3 5 8 8 9 14 6 8 10 13 11 9 16 17 17 18 19 24 26 28 28 28 27 27 28 29 30 26 27 26 31 32 29 28 28 31 31 30 29 29 31 31 31 32 33 32
15 11 5 7 5 6 6 7 8 10 9 8 9 11 5 14 17 20 20 23 26 27 29 29 29 28 28 30 30 30 30 27 23 24 24 29 30 31 30 30 31 32 33 33 34 34 32 29 31
7 11 15 4 2 3 4 4 7 9 7 6 8 8 9 13 17 20 19 24 26 28 30 31 32 29 29 29 30 30 31 33 30 31 32 35 35 33 32 32 33 33 31 31 30 31 31 31 31
9 11 6 8 7 11 4 3 7 2 5 7 9 11 5 10 14 16 17 23 26 26 28 30 31 33 31 30 29 31 32 33 31 33 35 34 34 34 35 34 32 31 31 30 28 28 28 26 28
9 10 4 6 7 8 4 5 8 12 7 7 9 8 3 10 11 13 15 21 24 24 26 29 30 30 30 31 30 29 29 30 32 34 38 41 39 38 38 37 35 34 34 32 31 29 30 29 33
12 18 18 7 5 5 6 11 2 7 5 5 8 6 0 4 11 13 14 18 22 25 26 29 28 29 30 31 31 32 34 37 40 44 49 41 34 33 37 34 36 34 36 34 31 32 31 33 32

GFSSGP_925_spd_084.txt.gz
Wind_Speed
7 4 3 5 6 6 4 8 1 4 3 1 4 6 5 7 5 6 3 4 2 6 9 13 14 17 20 22 30 33 32 31 33 35 36 34 34 31 33 34 34 34 30 25 23 24 24 24 25
8 6 5 2 7 8 6 3 7 3 3 3 4 6 7 9 1 1 2 2 1 5 11 13 16 17 18 23 26 30 32 32 35 35 35 35 35 34 35 34 32 31 30 26 24 24 24 23 27
7 6 5 4 5 8 3 4 4 3 5 7 4 5 3 1 2 2 3 1 1 5 13 12 17 18 18 21 24 26 28 33 32 32 34 35 36 36 36 34 31 32 29 27 25 25 24 24 26
7 6 4 7 9 4 4 1 3 6 3 6 7 5 3 0 3 2 3 2 2 5 11 13 16 19 20 19 24 15 17 24 23 24 23 38 38 37 33 33 32 33 30 28 25 25 23 24 24
7 3 7 9 9 5 6 2 3 6 3 4 7 4 4 5 6 5 2 0 2 5 13 17 19 20 23 22 25 31 29 28 27 18 36 37 40 38 36 35 34 33 32 30 27 24 24 24 25
6 4 8 10 7 5 6 5 3 4 3 4 6 7 5 7 8 5 2 1 2 6 13 21 21 24 24 23 23 25 32 24 28 11 45 40 39 40 38 37 36 33 32 31 26 25 25 24 25
13 8 11 10 10 9 10 5 4 6 6 6 2 8 1 7 7 6 3 1 1 5 11 20 23 22 21 16 13 20 23 19 17 25 32 34 39 39 39 37 37 33 29 28 27 26 24 24 25
8 6 10 10 10 12 9 4 3 6 5 2 3 5 6 6 8 7 5 3 1 4 10 17 25 22 18 15 19 15 15 19 24 25 29 28 33 38 39 38 36 34 30 30 28 26 25 25 26
7 8 11 13 11 9 8 5 4 3 8 4 6 9 3 8 9 7 5 4 4 5 9 14 23 29 27 16 17 21 22 22 20 29 29 32 32 35 38 32 35 34 33 30 30 26 26 26 27
12 11 14 6 10 8 9 8 9 7 9 9 10 12 8 9 9 8 7 6 7 7 9 12 19 27 26 17 19 20 20 27 29 32 35 39 36 34 29 32 35 36 33 30 30 28 27 23 20
12 18 13 10 9 11 12 12 9 12 13 10 10 9 13 13 11 9 8 6 8 6 7 11 18 23 21 21 19 16 16 21 25 34 50 47 41 36 30 31 31 34 30 26 26 27 20 18 18
14 16 17 13 11 14 17 15 15 16 17 12 11 9 10 13 11 11 9 8 7 7 6 9 12 16 17 14 14 15 12 15 20 15 30 44 43 37 30 30 28 31 28 27 24 21 16 17 15
19 18 14 15 15 15 16 18 20 23 18 16 11 9 11 11 11 10 8 7 7 7 7 7 10 13 14 14 12 12 12 17 28 28 35 45 35 32 31 27 28 29 26 25 23 18 17 16 15
7 13 17 15 15 14 16 20 14 22 13 10 12 14 11 11 11 10 10 9 9 7 8 8 9 10 7 8 12 13 17 29 38 37 41 42 38 32 30 26 24 25 26 22 21 20 18 16 14
12 16 18 18 19 18 16 21 24 22 8 12 12 11 11 11 12 12 10 9 10 9 9 9 9 8 7 7 11 12 24 31 39 39 39 38 39 36 32 26 25 25 24 22 19 18 17 15 14
11 14 16 4 6 6 10 18 13 7 9 11 12 11 11 12 12 12 10 10 11 10 10 10 9 10 8 11 19 25 24 35 35 38 40 31 34 37 30 31 32 23 22 22 17 17 16 15 14
15 15 17 13 12 10 13 15 6 6 8 10 9 12 12 11 12 13 12 11 12 12 12 11 11 12 11 15 24 32 35 39 35 31 27 26 31 35 34 33 30 28 26 22 16 15 15 14 13
17 18 15 16 3 11 14 18 14 14 9 10 9 12 13 13 14 15 15 12 12 13 12 12 13 14 14 17 29 30 29 32 36 24 20 27 33 33 27 27 27 22 19 17 16 16 13 13 12
15 15 18 17 2 8 12 15 17 17 10 13 10 12 14 13 12 17 17 15 13 13 13 16 16 15 18 19 26 27 28 26 29 27 26 30 28 24 26 25 26 20 21 21 19 15 14 10 9
20 19 20 18 5 10 17 18 18 16 17 13 12 13 14 14 15 15 20 19 17 16 16 20 21 22 22 21 21 25 29 27 27 28 30 31 23 25 25 22 23 25 22 17 14 14 14 12 14
19 21 20 17 11 14 18 21 23 17 13 9 10 12 13 16 17 17 19 21 20 19 19 21 22 26 23 23 26 25 29 26 28 30 31 30 24 24 23 29 22 26 18 16 17 16 15 14 14
20 19 19 18 16 13 2 10 10 9 14 12 11 12 13 15 16 17 18 21 22 21 20 20 22 25 26 26 26 28 35 30 29 30 31 32 25 23 23 23 21 21 18 18 19 19 18 16 16
18 14 14 14 14 15 16 10 11 9 16 16 16 13 13 15 17 18 19 22 23 21 23 22 23 24 26 26 30 32 27 30 25 25 27 32 28 21 22 21 22 18 21 20 19 18 19 18 19
6 11 10 7 8 10 17 12 12 11 13 10 6 9 12 14 17 17 20 22 22 22 23 25 25 24 29 30 29 31 32 28 25 25 30 34 29 24 19 21 19 19 19 18 17 18 18 20 20
16 10 5 8 7 9 4 11 15 4 6 7 9 8 9 12 16 18 20 20 24 26 25 26 26 26 27 31 30 30 27 31 31 32 30 32 32 28 22 18 20 21 19 19 19 18 19 21 22
18 17 7 9 9 7 6 7 12 8 13 13 8 5 5 11 16 20 21 20 25 28 28 27 28 26 28 30 30 30 31 29 29 31 32 32 33 32 24 21 23 21 21 22 20 20 22 21 23
15 19 16 15 13 8 9 7 12 12 9 9 10 10 10 11 16 20 21 23 25 28 30 31 30 30 30 31 30 31 33 34 31 34 37 35 32 32 29 28 26 26 25 24 22 22 23 24 25
20 7 10 11 7 11 9 11 7 5 9 8 5 7 8 10 16 18 20 23 28 28 28 30 31 32 31 31 31 32 33 34 33 32 33 35 33 32 30 30 29 27 25 24 23 24 25 25 25
12 14 12 10 14 11 11 7 6 14 11 4 10 7 3 8 14 15 17 23 25 26 28 30 31 31 31 31 31 30 32 34 35 34 34 35 33 32 32 29 28 27 26 25 25 27 26 24 25
9 18 19 12 13 10 14 14 5 3 1 3 8 5 5 4 10 13 15 19 25 28 29 30 31 32 32 31 31 32 32 33 35 38 38 37 36 34 31 29 29 29 29 28 28 28 26 25 23

GFSSGP_925_spd_087.txt.gz
Wind_Speed
8 6 9 10 7 8 14 4 5 4 5 0 3 7 10 12 9 5 5 4 3 3 5 5 13 12 10 18 24 26 25 24 27 28 30 29 30 29 27 27 28 30 28 25 26 24 20 20 23
8 7 10 8 8 12 10 10 5 5 3 1 5 8 8 10 7 6 3 3 1 3 6 7 13 14 14 14 20 25 26 26 30 31 31 30 30 29 29 29 29 30 28 25 25 24 21 22 27
8 10 9 10 13 13 9 8 5 1 4 7 5 3 6 3 5 4 4 2 0 1 6 6 13 16 15 17 18 20 25 27 32 34 33 32 31 31 31 32 30 29 28 27 26 24 22 24 26
10 8 7 10 17 12 7 5 3 6 5 6 10 5 7 3 1 3 3 2 2 3 5 9 12 14 14 14 15 18 15 19 28 31 32 32 30 33 33 33 30 29 28 27 27 23 23 24 25
13 8 12 17 17 10 4 5 4 9 4 5 8 14 3 7 5 5 4 2 4 5 5 8 12 12 14 13 18 24 14 28 20 17 17 27 27 32 37 34 31 26 28 28 26 25 24 24 25
8 7 13 15 16 4 5 5 4 9 9 5 7 12 7 11 8 6 4 4 4 5 6 8 11 14 14 17 22 21 21 29 18 34 26 23 26 28 35 34 32 29 28 27 25 26 25 24 26
15 13 16 20 17 11 8 9 8 7 9 12 12 10 3 11 9 7 6 5 4 5 7 8 11 13 14 17 16 22 29 23 29 33 29 28 38 40 34 35 34 32 29 28 27 27 27 26 27
13 13 22 19 14 14 5 7 9 8 12 5 3 9 8 11 10 8 6 5 4 5 6 8 11 10 11 11 16 15 17 23 25 31 23 21 38 39 35 34 34 32 29 28 26 27 27 27 27
9 13 16 20 17 9 3 8 11 7 11 10 6 12 7 8 8 9 7 6 5 5 6 8 11 14 12 12 13 15 18 16 16 25 22 19 31 40 36 31 37 31 28 28 27 28 27 28 27
16 13 21 19 12 9 10 11 14 14 14 17 15 13 7 8 10 12 11 11 9 8 6 6 10 13 16 16 12 14 16 17 20 19 17 21 27 31 30 33 35 32 29 29 28 27 26 24 23
18 19 21 19 9 13 15 14 17 15 19 17 13 11 6 12 13 13 12 11 9 8 7 7 9 13 13 15 11 12 12 21 26 20 22 27 32 26 27 34 32 32 29 26 24 28 21 21 22
20 22 19 21 19 13 18 17 19 19 18 16 17 11 11 11 13 12 12 11 8 7 8 6 8 12 15 15 18 12 12 16 21 26 29 28 34 33 31 30 28 26 28 26 26 21 20 19 19
21 20 20 19 16 18 18 20 21 21 19 19 16 17 13 13 13 13 13 11 8 9 7 7 7 9 13 12 12 14 14 11 19 23 29 32 40 39 34 33 28 26 26 25 24 19 20 18 17
15 18 20 21 22 19 20 22 20 23 18 17 16 15 14 14 13 13 13 11 9 8 11 8 6 5 6 10 14 11 12 12 18 23 31 46 44 39 36 29 29 25 26 25 21 20 19 17 16
17 19 20 21 21 22 20 25 24 25 20 18 16 16 12 12 12 13 13 11 10 9 10 9 7 5 6 7 8 12 11 16 25 33 33 43 52 40 38 28 27 24 24 23 19 20 17 17 16
13 18 19 18 25 19 21 25 21 18 16 16 16 13 9 12 12 14 12 12 11 10 11 10 8 7 6 5 8 10 15 22 37 41 37 41 43 37 34 24 21 24 22 21 20 19 18 16 16
15 18 20 20 17 13 13 18 15 4 7 12 12 11 10 12 13 14 14 12 11 11 11 11 10 10 7 11 15 21 28 25 32 37 37 41 38 35 28 21 21 23 23 20 20 19 17 16 16
18 21 20 20 20 16 14 20 17 14 16 15 14 11 11 13 14 16 15 13 12 11 12 12 13 12 10 20 24 27 30 32 32 31 34 38 32 37 27 27 30 25 21 18 19 17 16 16 15
21 24 23 18 12 5 11 18 18 16 16 15 15 16 13 14 13 16 17 15 13 13 15 15 16 17 15 23 23 26 28 28 30 39 40 34 27 31 27 29 26 25 23 21 20 18 16 14 12
24 26 24 20 22 11 14 20 20 20 19 18 18 16 13 14 13 15 19 17 15 16 16 17 17 20 20 23 25 25 28 28 29 30 29 28 29 28 24 26 29 29 24 23 20 18 17 14 14
25 24 21 24 22 16 14 21 23 23 24 21 20 14 13 15 16 17 17 20 17 17 18 19 19 20 19 26 29 25 25 23 22 26 28 26 29 29 21 23 27 25 22 21 18 16 16 15 16
22 21 22 20 19 15 17 15 17 15 12 19 15 15 16 14 16 18 18 21 22 20 18 19 20 22 22 29 29 33 31 26 25 28 29 27 27 21 23 21 19 24 21 15 19 18 16 14 13
21 16 17 21 20 17 20 15 16 17 19 15 15 18 16 14 16 19 19 23 23 21 21 22 21 22 24 25 30 31 30 27 24 24 28 27 21 22 26 20 22 18 17 21 19 16 14 14 13
17 16 16 14 12 16 18 16 13 14 16 13 12 13 16 14 15 18 21 23 23 22 22 23 24 25 26 28 30 32 31 30 26 26 25 25 23 27 24 21 21 17 19 20 19 15 15 17 15
17 14 9 11 11 13 17 13 13 10 5 4 8 7 10 12 14 17 20 19 24 25 24 25 27 27 28 30 30 32 33 33 31 33 29 28 27 24 26 27 22 21 20 18 17 17 19 20 19
18 17 8 11 10 10 20 9 10 13 13 15 12 8 3 7 12 18 20 19 24 27 27 26 29 28 30 31 30 32 30 35 30 28 31 31 32 34 31 28 25 23 22 22 20 20 22 22 22
17 17 19 22 17 9 9 8 8 11 10 8 7 9 11 14 14 18 19 21 25 28 29 31 28 29 30 31 31 31 32 34 35 31 32 31 35 36 33 26 27 24 24 23 23 24 23 22 23
24 15 12 12 16 17 13 17 14 5 9 11 9 6 8 12 14 16 18 20 25 27 28 29 30 30 31 31 31 32 33 31 34 34 37 35 37 39 34 33 25 27 26 25 26 24 25 25 26
14 20 16 12 13 11 9 7 10 4 8 5 5 6 6 8 11 17 17 22 25 26 28 29 30 30 31 33 31 31 33 34 33 34 36 37 38 39 38 34 32 29 27 26 27 27 27 27 27
13 16 18 12 16 12 14 15 9 2 5 7 5 5 4 3 8 14 17 17 24 27 28 29 30 31 32 33 34 34 33 34 35 34 33 37 37 39 36 34 30 31 29 28 28 29 29 28 29

GFSSGP_925_spd_093.txt.gz
Wind_Speed
10 8 6 2 3 2 5 9 3 2 6 3 7 7 2 4 1 3 10 9 11 10 9 9 11 13 14 13 12 13 15 15 15 17 18 19 20 21 22 21 21 21 25 24 22 23 25 27 29
10 5 4 2 3 2 6 7 9 9 7 9 8 5 3 2 6 9 10 12 14 10 8 11 10 12 14 15 16 15 16 15 15 16 16 18 21 22 21 22 24 26 26 25 24 24 25 28 30
10 9 2 4 3 6 6 1 5 6 9 6 3 5 6 6 11 13 19 15 14 12 9 8 9 10 13 15 17 17 19 19 18 18 15 5 8 22 24 26 29 29 26 24 23 24 26 29 31
2 4 4 0 9 15 12 8 3 4 5 7 4 3 3 3 10 18 20 19 14 11 11 9 11 11 14 15 16 18 19 21 24 24 16 5 15 15 26 30 31 29 27 24 24 24 28 28 29
5 1 2 4 9 12 14 4 7 6 2 5 6 3 4 5 23 24 21 17 18 12 10 9 9 11 14 17 18 18 19 24 28 26 7 15 27 22 22 28 32 31 28 25 24 30 28 32 34
2 3 1 5 13 15 12 14 7 6 3 1 5 4 6 25 23 18 16 16 17 13 10 7 8 10 13 15 17 20 22 25 28 25 10 23 25 29 22 26 31 31 29 26 29 32 32 33 32
5 1 6 9 15 18 14 6 8 7 7 1 2 8 4 8 22 17 13 12 13 12 7 6 6 8 10 14 15 19 25 23 22 15 13 11 12 14 36 31 30 31 27 26 34 32 32 31 28
4 3 7 11 9 12 15 3 4 7 4 2 4 3 5 7 24 18 14 11 9 10 9 5 5 8 9 12 15 18 22 22 16 13 21 14 11 12 24 28 25 30 29 28 33 33 32 29 24
2 4 9 13 10 17 10 1 4 5 5 1 3 5 12 28 24 20 14 15 13 10 11 10 7 9 8 11 15 18 18 16 16 16 17 13 17 26 32 30 31 31 28 29 32 34 33 28 22
8 4 14 8 14 15 8 6 4 4 5 4 7 5 22 27 26 19 17 16 18 16 14 13 12 9 12 12 15 17 18 18 21 19 19 19 23 28 32 36 30 28 27 29 31 32 34 29 24
7 15 16 15 18 15 8 9 7 1 4 7 9 9 15 14 18 16 20 25 27 22 19 18 15 12 14 14 15 17 17 20 19 20 22 24 19 25 33 28 31 30 28 30 30 30 33 30 25
15 16 17 19 17 18 11 6 7 6 7 6 7 4 15 16 15 14 18 24 24 24 24 18 11 17 15 16 17 17 20 20 20 22 27 22 17 16 35 38 35 32 31 32 32 32 34 29 25
17 17 17 18 14 13 11 12 11 10 11 9 8 6 6 11 12 22 29 23 30 32 25 19 11 13 16 14 20 20 21 22 21 26 28 21 22 28 31 35 35 33 31 33 33 31 33 29 20
15 15 18 12 12 11 12 9 5 15 9 10 11 11 10 10 11 12 19 23 28 31 24 18 13 12 12 18 17 16 18 20 25 28 32 23 29 32 37 39 35 34 35 37 33 30 35 25 18
15 15 17 13 8 6 9 9 9 15 9 10 14 11 11 11 11 11 24 23 33 26 24 20 16 12 12 14 16 15 16 17 30 34 31 31 34 30 42 41 38 36 37 36 27 30 31 21 17
7 8 11 4 9 8 5 22 13 17 17 19 19 15 12 11 11 19 25 28 28 28 25 21 17 14 13 13 12 14 15 19 23 34 34 35 36 40 45 44 38 38 42 33 31 32 28 22 21
4 10 16 9 8 10 11 23 14 17 20 19 12 12 10 10 7 18 29 32 29 28 27 23 18 16 15 15 13 13 16 18 22 29 33 38 39 39 43 40 38 43 39 29 38 32 31 26 23
8 10 10 11 10 16 14 19 17 17 13 10 9 8 9 8 10 20 32 35 30 29 28 24 20 17 15 14 12 12 14 17 20 25 30 36 39 43 40 40 45 43 37 37 37 33 31 29 26
12 13 15 12 10 13 13 16 21 25 10 8 8 9 10 10 11 23 30 35 34 32 30 25 22 18 18 16 18 17 17 20 23 27 28 34 39 43 42 42 46 42 37 41 36 31 30 32 27
18 19 20 17 12 13 17 21 20 27 8 8 8 10 11 8 11 15 27 29 30 34 31 26 22 20 23 21 20 18 20 18 23 24 25 34 35 48 46 45 44 43 40 38 36 30 27 28 29
18 16 13 13 4 4 10 20 15 24 11 7 9 10 11 16 16 17 18 26 31 32 33 28 22 24 24 23 21 23 21 24 23 26 27 24 30 45 49 46 40 39 37 36 34 30 30 27 25
17 14 17 18 2 4 4 12 20 22 24 19 17 16 15 10 17 20 17 17 27 29 32 27 25 25 27 29 27 29 24 19 18 29 26 24 28 40 41 38 31 33 32 33 34 26 25 28 24
11 11 14 4 2 4 7 7 7 18 21 19 11 17 20 12 21 21 21 24 29 35 34 30 28 27 29 32 30 27 21 18 20 24 32 33 29 28 30 33 31 29 29 32 30 23 23 23 26
2 3 2 3 3 7 11 10 4 12 18 17 17 15 12 12 23 22 23 29 27 31 33 32 29 28 32 32 30 30 27 27 25 25 24 26 26 30 31 34 34 34 35 37 31 27 26 27 28
2 4 2 2 4 6 9 11 16 21 22 22 22 22 15 16 21 21 21 18 26 30 31 32 31 26 33 32 32 30 28 30 29 31 27 31 29 31 30 36 35 39 40 37 35 32 31 31 25
8 7 4 6 4 3 6 6 5 17 25 25 12 8 10 9 19 23 23 20 27 31 33 31 32 27 32 32 33 33 29 28 27 29 26 28 31 34 36 36 38 37 37 37 35 33 36 32 28
7 9 11 8 7 2 4 11 18 16 10 15 11 6 8 11 19 22 20 19 28 32 34 35 34 30 31 33 33 32 30 28 27 31 27 25 27 30 34 33 35 36 37 36 32 33 35 35 34
10 5 6 5 4 10 8 13 8 20 15 16 7 5 5 9 17 21 21 21 29 33 34 35 35 33 33 32 33 35 33 30 30 31 30 27 30 30 36 38 34 37 35 29 30 33 38 35 32
7 11 4 4 2 3 2 4 6 4 10 17 19 6 8 6 4 12 19 22 31 32 34 34 33 32 32 32 31 32 34 33 32 31 34 31 34 35 35 39 39 37 35 34 30 35 33 32 33
4 14 14 7 7 8 9 14 5 7 9 16 19 20 5 5 5 8 18 20 25 29 32 34 33 32 33 32 32 29 32 35 36 35 34 35 35 36 35 36 35 36 38 36 36 36 33 35 35

GFSSGP_925_spd_096.txt.gz
Wind_Speed
9 7 1 3 3 4 4 7 5 8 3 3 4 6 5 2 3 3 13 13 16 17 14 12 13 14 15 16 16 19 20 19 18 18 20 21 24 25 26 27 27 27 27 25 26 25 26 28 32
9 5 2 2 3 1 5 5 6 5 6 6 6 5 4 0 2 8 13 17 16 16 14 13 13 15 15 16 16 16 18 19 20 20 20 21 22 23 23 24 24 25 26 25 26 25 27 30 32
7 3 3 4 3 5 5 3 3 5 7 6 5 2 8 7 2 16 12 22 19 17 17 15 14 16 17 18 17 17 19 18 20 23 26 24 21 19 19 19 23 27 28 25 25 26 29 32 32
4 5 4 2 9 9 6 6 8 4 4 2 6 4 5 5 16 16 27 24 21 17 17 14 14 15 18 20 20 19 21 22 24 27 26 23 22 21 14 16 19 26 28 27 26 28 32 33 31
2 3 1 3 9 7 6 5 10 8 4 5 4 5 4 2 12 26 26 23 22 20 18 17 15 15 17 18 20 21 23 26 28 29 27 24 23 23 21 13 17 23 27 26 27 31 32 34 33
2 2 2 5 10 7 8 7 8 8 5 5 5 8 5 16 31 28 25 23 19 20 18 16 15 15 16 17 19 21 25 28 30 30 28 21 19 22 14 16 26 24 26 27 28 33 35 35 34
5 3 5 5 5 11 7 8 6 6 4 4 4 7 1 5 26 28 25 22 19 17 15 12 12 12 14 17 19 20 25 28 29 29 24 15 18 24 22 32 25 28 30 27 33 33 34 36 37
5 3 4 5 5 12 3 10 5 7 6 1 7 5 5 8 27 24 21 19 17 16 15 13 11 12 13 15 16 19 24 26 26 29 21 18 18 22 33 34 38 32 31 29 36 36 36 34 29
5 1 6 7 8 10 4 5 6 8 3 3 6 8 8 25 28 23 19 17 17 17 16 14 13 12 12 10 14 17 21 24 23 21 19 19 15 14 25 36 40 37 32 37 37 36 35 29 22
5 5 10 6 8 11 8 4 6 4 7 4 4 5 20 29 26 20 18 18 23 22 21 18 18 15 14 14 15 17 21 22 21 21 26 20 18 18 22 31 34 30 31 38 38 36 34 26 27
6 12 13 12 9 10 11 9 3 3 5 8 8 2 11 15 16 17 20 25 34 27 24 24 20 18 18 18 16 18 20 21 21 23 25 20 18 19 26 32 32 32 30 35 34 36 33 28 32
7 8 8 14 13 11 18 8 8 6 12 8 10 5 12 12 14 15 17 25 26 27 28 26 22 22 21 18 18 17 21 22 25 24 24 23 22 25 25 28 39 36 35 38 37 36 32 27 23
9 12 14 16 14 15 16 16 15 11 13 9 9 9 15 17 17 23 29 28 26 30 30 29 24 24 22 21 19 20 24 26 27 24 24 27 22 21 26 24 34 36 36 37 36 36 34 27 25
6 11 14 11 15 9 9 10 3 11 7 8 9 12 12 17 20 23 16 23 27 32 34 29 22 23 25 21 22 23 23 24 25 27 28 27 21 19 23 43 39 37 36 38 37 37 35 26 20
10 13 13 6 6 6 8 13 10 9 8 9 11 12 12 13 22 19 27 30 35 35 36 29 23 19 22 24 21 22 23 26 26 28 31 30 25 28 27 38 37 35 37 38 36 37 32 23 20
3 4 4 4 4 6 7 23 11 11 9 11 13 15 14 13 13 25 30 33 33 37 35 29 24 20 18 20 21 21 21 22 27 29 32 33 29 32 36 38 37 39 39 39 37 37 32 23 25
3 12 9 5 5 5 7 13 8 10 7 9 12 18 16 16 11 15 32 37 41 42 37 32 26 23 19 17 17 18 20 22 26 30 33 35 34 37 41 40 40 42 42 39 37 39 32 26 26
8 7 5 5 3 8 15 19 10 7 7 12 14 21 14 11 13 21 33 34 38 39 37 32 28 25 21 19 18 17 18 21 25 29 35 37 37 40 44 40 41 46 47 38 38 40 30 28 27
3 5 7 1 5 5 10 20 12 7 11 15 16 16 12 10 6 24 29 32 34 36 37 35 31 27 25 22 18 16 18 20 24 26 33 34 37 43 46 45 41 40 41 42 40 40 36 30 27
9 11 17 13 10 12 13 20 11 7 10 10 10 16 13 4 8 15 24 28 33 35 35 35 32 29 26 24 20 17 19 18 23 22 25 34 35 35 45 43 41 36 33 39 41 36 32 26 30
12 13 12 17 10 7 4 19 14 13 11 13 18 14 14 10 16 15 16 24 28 32 36 37 33 30 26 23 21 16 17 15 17 23 26 28 33 40 42 47 47 33 35 41 39 39 32 27 29
15 16 19 16 7 9 4 18 12 12 18 20 20 17 16 10 16 19 17 17 29 30 33 36 33 29 27 26 24 22 16 13 13 20 21 27 33 36 40 42 43 39 37 40 42 41 35 31 27
14 17 15 17 6 4 3 3 8 1 12 20 18 17 17 10 17 22 20 26 29 32 34 35 32 28 28 27 25 26 17 15 22 21 21 22 23 31 39 48 46 47 45 42 40 38 33 35 30
5 7 5 2 4 4 6 4 21 3 10 16 17 13 17 7 14 21 21 25 27 28 32 33 29 27 31 29 27 26 23 22 22 23 23 21 23 25 30 38 38 42 44 41 33 29 28 27 27
5 2 2 2 1 6 7 7 15 15 15 20 24 21 22 15 11 18 20 18 25 29 29 29 29 27 31 31 29 29 28 27 23 27 25 24 24 27 28 30 33 38 39 38 30 27 22 22 23
8 8 5 6 5 7 6 6 5 6 12 21 16 15 20 18 14 21 22 20 26 30 30 30 30 28 31 31 29 30 30 28 24 24 22 21 24 30 31 33 36 38 40 37 29 26 19 23 24
7 8 7 4 3 3 4 5 6 5 12 21 21 24 17 18 20 22 19 18 26 30 33 33 32 29 31 31 27 28 30 27 27 28 23 25 23 23 31 36 36 33 38 43 35 31 31 29 30
11 7 1 2 6 13 6 6 8 9 16 16 21 16 15 9 17 17 18 19 27 30 30 30 31 32 32 32 29 29 29 28 28 26 26 27 29 27 32 35 37 35 38 39 37 35 36 33 34
4 1 1 1 4 5 2 4 6 7 9 19 20 21 15 12 6 14 17 20 26 27 30 31 30 31 31 33 31 29 30 29 26 30 30 30 32 31 33 36 37 39 35 39 40 39 39 36 33
3 3 5 4 5 5 3 5 9 8 12 5 16 19 20 17 7 10 12 15 21 25 28 31 30 31 33 32 31 30 30 30 30 28 33 31 33 35 37 38 39 37 39 39 40 39 37 37 36

GFSSGP_925_spd_099.txt.gz
Wind_Speed
9 5 3 3 3 4 4 7 3 6 4 3 4 4 6 3 4 4 8 21 10 19 19 19 19 19 20 21 20 19 17 19 24 28 32 33 32 32 30 29 25 24 23 22 24 24 25 25 29
9 7 3 2 4 1 5 5 7 6 5 3 4 4 1 0 2 5 8 19 22 20 20 21 20 19 19 20 19 19 19 19 21 25 29 30 30 31 29 27 25 24 23 22 23 24 24 26 30
10 3 3 4 4 6 5 5 2 7 5 2 3 2 6 4 5 11 7 26 24 21 20 21 21 20 20 20 20 20 19 20 22 24 26 27 29 25 28 26 24 24 24 22 22 25 26 30 32
5 4 4 2 9 6 6 4 5 9 7 3 1 4 2 3 11 15 18 27 24 21 20 19 20 21 21 20 20 20 21 22 24 25 26 27 27 27 24 24 23 23 23 22 22 23 28 32 32
4 3 1 3 7 5 5 7 4 8 5 6 4 5 2 3 9 20 30 27 25 22 20 19 18 19 21 21 20 20 21 24 26 27 27 27 27 26 27 26 21 22 25 24 22 25 29 31 32
3 3 2 6 7 5 4 8 5 10 12 6 4 7 4 3 14 27 29 26 24 24 22 20 19 17 19 21 22 22 24 25 28 29 26 26 25 26 28 27 23 28 24 26 24 26 30 31 31
6 4 5 4 6 8 4 5 4 7 6 6 7 7 3 3 15 27 26 25 23 22 22 21 20 18 18 19 20 23 26 27 28 28 27 26 26 26 21 23 30 30 25 26 27 29 31 31 30
5 4 3 5 4 11 4 6 2 6 6 5 6 5 5 5 23 22 21 23 23 23 21 20 19 19 18 19 22 22 26 28 30 29 30 28 22 20 24 22 27 31 25 28 26 32 33 31 28
5 2 5 7 7 6 6 8 3 6 4 3 5 8 5 26 26 23 19 19 22 23 22 20 20 19 20 19 21 22 24 27 28 28 30 28 23 23 23 26 31 33 35 26 31 34 35 29 28
6 5 11 7 7 10 4 4 10 6 9 6 4 3 6 30 28 20 17 19 25 27 26 23 21 19 18 17 19 19 21 25 27 32 30 27 21 18 22 28 32 40 39 39 40 36 37 30 30
7 9 6 6 7 7 5 5 3 5 8 8 8 3 7 7 16 16 18 21 29 31 27 26 24 21 21 20 19 19 21 23 25 25 23 23 21 18 15 28 37 37 35 33 37 40 35 29 30
4 6 13 6 7 5 12 3 6 6 15 12 11 5 8 11 15 14 15 24 27 29 30 27 25 25 24 22 23 22 22 23 23 23 25 27 20 19 20 28 32 32 31 38 40 40 32 29 32
6 3 6 8 8 9 12 16 10 15 17 12 11 7 12 14 18 24 29 24 25 28 31 30 27 27 26 25 24 23 23 26 27 26 26 27 22 20 21 24 29 33 37 42 42 37 29 30 35
4 10 15 10 15 9 13 15 4 8 10 9 8 10 10 15 19 22 18 23 27 30 33 33 29 28 26 26 26 25 22 24 26 27 28 28 25 27 23 30 27 39 39 39 42 38 33 32 34
6 7 7 7 5 8 5 14 11 10 10 9 10 10 10 15 18 17 31 30 36 36 36 37 33 29 27 26 25 24 22 22 23 27 26 27 28 27 26 26 26 38 43 43 41 39 32 28 30
4 2 2 5 8 7 9 23 8 9 9 11 10 9 9 7 15 26 31 32 32 34 38 38 35 30 30 26 26 25 23 23 23 25 26 28 29 25 26 34 37 36 42 42 42 40 33 27 30
3 4 5 4 4 4 8 11 4 4 5 7 8 9 10 11 12 24 31 35 39 42 38 39 36 31 28 29 26 24 23 24 26 25 25 29 29 26 24 26 33 42 37 39 42 39 35 31 31
7 4 4 5 4 5 9 16 7 8 6 9 9 10 9 10 16 12 28 34 34 38 38 39 35 29 26 26 25 22 21 21 22 26 28 30 31 29 29 33 38 36 35 36 36 40 34 34 33
4 4 4 0 4 6 8 14 11 8 9 9 8 9 10 11 10 10 18 25 28 32 36 38 36 32 29 26 23 21 21 22 22 24 27 30 31 36 36 38 35 33 32 39 38 37 35 31 29
6 6 5 5 8 7 14 25 15 7 7 9 9 10 10 9 5 4 13 21 30 34 34 36 37 32 29 24 20 18 21 22 20 24 25 29 33 39 38 40 38 38 29 31 42 34 27 27 33
7 9 3 10 2 6 7 22 9 5 6 8 8 10 13 12 9 8 10 19 24 30 34 36 33 29 26 28 24 17 17 15 18 20 21 22 31 36 39 43 42 41 33 30 37 37 31 25 26
12 6 13 7 3 4 4 13 12 4 11 7 13 14 19 12 9 11 14 14 26 29 30 32 28 26 26 28 26 24 15 9 13 19 22 23 20 33 40 44 42 38 31 33 34 35 30 32 25
6 7 9 9 5 1 4 3 4 4 5 12 13 12 14 15 11 13 17 23 25 27 31 32 26 24 28 28 26 25 19 16 15 18 19 22 23 22 37 44 39 42 38 32 35 35 32 32 29
2 4 4 1 3 5 6 7 16 6 5 6 7 13 21 14 9 13 18 19 20 19 26 28 27 27 26 28 27 25 22 19 18 17 16 18 20 25 27 36 44 39 36 36 39 41 35 35 30
3 1 3 2 2 7 10 7 14 9 14 8 7 13 19 15 9 10 15 16 23 28 27 27 28 26 27 28 28 26 24 23 22 22 18 17 18 22 28 34 34 38 43 39 40 38 31 35 33
8 8 5 6 4 8 7 7 5 1 6 8 13 17 20 21 16 16 20 19 25 30 30 29 29 26 28 26 30 27 25 24 21 23 21 19 18 21 26 28 35 38 38 37 34 36 30 30 30
5 9 8 8 2 3 4 6 5 3 11 15 19 23 25 25 22 14 18 20 27 32 33 33 30 27 28 25 30 29 27 25 24 24 24 16 19 25 27 30 31 34 35 36 41 34 27 30 29
14 6 3 2 7 13 3 3 5 7 10 13 17 25 28 24 24 3 12 17 27 29 29 29 29 29 28 25 30 30 29 27 25 25 24 25 22 23 26 33 36 38 34 37 40 38 32 25 26
4 4 5 5 5 8 9 5 6 4 1 7 12 20 23 22 18 2 8 11 17 23 29 30 27 28 28 27 29 28 30 29 28 28 27 30 27 24 26 29 30 31 34 39 41 37 33 35 33
2 2 5 4 5 2 3 7 7 2 6 4 4 14 21 20 15 13 10 13 14 17 24 28 27 28 27 26 27 29 29 29 29 28 29 29 30 29 29 31 32 34 36 38 36 35 37 34 34

GFSSGP_925_spd_102.txt.gz
Wind_Speed
9 8 5 4 3 4 3 6 3 5 6 3 4 4 7 4 6 4 2 21 13 20 23 22 22 23 23 22 22 21 22 23 27 28 30 32 32 32 32 30 28 27 24 24 24 23 22 23 27
12 10 3 3 4 2 5 4 5 6 7 5 2 2 2 2 2 3 10 24 15 20 21 22 22 23 24 23 22 22 22 24 26 29 31 32 32 31 30 28 24 25 23 24 23 23 23 25 24
14 4 3 4 4 6 5 6 6 4 7 3 2 2 3 2 2 8 7 27 20 21 21 22 23 23 24 24 23 22 24 24 26 30 31 32 31 30 30 28 23 21 20 22 21 23 24 26 27
6 4 4 3 7 6 6 4 2 9 6 2 5 4 3 3 4 12 14 26 26 23 21 22 24 23 23 24 24 24 24 25 28 29 31 30 29 28 29 26 26 18 21 19 20 22 25 29 29
5 3 2 2 6 5 7 5 3 6 4 5 5 4 3 1 5 15 24 28 28 24 22 22 23 23 22 22 22 22 23 25 26 28 29 29 29 28 26 26 19 25 22 21 19 24 27 30 30
4 3 2 6 6 4 5 8 3 4 6 8 4 6 4 3 9 17 28 29 26 25 24 22 22 22 22 22 21 20 22 25 26 27 28 27 27 27 26 24 26 26 29 24 20 24 31 30 31
6 4 5 4 5 4 5 5 4 3 6 4 1 8 3 3 10 18 26 26 24 23 23 22 22 22 22 22 22 23 23 25 25 25 26 28 27 26 26 27 28 29 23 26 29 31 33 34 31
5 4 5 6 5 7 5 2 4 3 5 6 3 4 5 4 17 22 22 21 21 21 22 23 22 22 23 22 22 24 25 24 24 24 24 25 26 27 27 28 24 21 26 28 30 34 36 33 31
4 2 5 7 8 6 3 1 1 3 2 4 3 4 4 6 23 24 19 19 20 22 25 24 23 23 22 22 22 25 25 25 26 27 29 28 26 27 26 23 23 24 26 28 29 32 30 31 29
4 5 11 6 7 6 2 2 1 3 6 5 4 1 3 20 20 19 17 19 21 26 28 27 25 25 23 24 23 25 25 28 28 30 31 31 29 28 24 22 27 30 29 30 31 33 30 30 30
6 8 3 6 6 4 3 4 4 1 6 8 7 3 5 5 9 9 12 18 24 22 28 30 26 25 24 24 25 26 27 27 28 31 32 33 30 25 22 24 25 31 30 31 31 33 35 33 32
5 6 7 4 6 3 6 2 4 7 9 11 8 5 6 9 12 14 18 26 28 32 33 31 28 26 24 23 24 28 27 27 28 31 32 31 30 24 20 21 24 30 37 35 34 35 41 36 35
6 4 5 7 7 6 6 13 9 7 12 12 9 6 10 10 15 22 28 22 23 32 36 33 30 29 27 25 26 27 27 27 25 26 28 29 26 26 22 21 23 29 33 39 39 41 39 37 36
3 11 16 8 11 5 9 17 4 6 7 10 8 10 10 11 16 15 13 25 31 36 36 35 33 31 30 28 29 27 26 27 28 28 27 27 29 26 21 21 23 23 28 39 38 41 38 36 35
5 10 8 6 5 7 5 11 13 10 9 10 10 8 7 11 12 14 28 27 36 39 39 38 36 33 32 29 30 29 26 24 27 27 27 28 29 27 22 23 24 27 25 33 39 38 35 33 33
3 3 3 3 10 6 9 25 3 9 6 7 8 7 5 7 10 24 30 34 34 34 39 39 39 35 32 30 30 29 27 24 24 24 24 28 31 28 27 25 25 33 35 35 39 37 34 34 34
3 4 5 2 8 5 10 12 2 4 6 7 7 8 8 7 9 22 25 31 35 41 37 40 41 39 34 30 28 27 25 23 23 24 25 27 28 28 28 25 25 36 39 39 41 35 36 33 33
7 4 4 4 2 3 8 16 6 8 5 8 9 9 9 9 12 12 18 24 32 36 37 39 39 39 35 30 25 23 23 23 22 24 25 25 26 27 27 26 29 38 40 41 41 38 35 34 33
2 5 5 1 3 3 7 14 6 9 8 8 8 9 9 10 10 15 15 13 21 29 32 38 37 40 36 30 27 24 23 22 22 22 24 25 25 28 27 26 30 33 35 36 39 38 37 27 31
6 6 5 4 6 5 8 25 9 7 8 9 11 8 10 8 9 7 9 9 23 25 28 30 33 40 37 28 25 18 22 21 23 24 22 21 25 29 30 28 32 30 35 36 35 37 27 23 35
6 9 3 8 4 3 5 19 9 7 5 7 7 8 6 9 11 11 7 14 19 23 28 29 34 38 33 28 25 19 17 15 19 21 22 21 27 26 34 34 39 36 42 36 37 38 30 27 29
10 8 9 6 2 3 4 8 0 6 6 4 8 7 7 9 15 11 8 9 21 25 23 25 30 33 32 31 28 22 19 13 15 19 22 22 23 22 33 36 37 41 40 34 36 39 34 34 28
5 8 8 6 5 1 3 4 5 3 7 9 7 8 8 9 13 14 11 19 18 21 22 26 28 26 30 30 27 23 17 18 16 19 20 22 19 15 39 35 41 42 38 35 37 35 34 37 31
5 3 3 2 3 3 8 7 3 4 2 3 3 7 8 10 15 15 17 12 18 21 24 26 28 27 26 27 26 26 23 21 19 18 18 17 18 19 24 31 42 44 37 31 38 36 34 35 32
3 5 1 1 1 5 6 5 8 5 4 4 6 8 8 11 14 17 16 7 15 23 27 29 30 27 28 29 28 28 26 22 21 17 17 17 18 17 22 27 34 41 40 40 37 38 34 38 36
7 7 4 5 4 3 4 6 5 4 5 4 1 3 5 16 17 19 18 11 18 26 29 31 30 29 30 30 27 29 26 23 22 21 17 17 17 18 20 29 34 38 33 37 41 39 35 32 33
5 5 7 2 1 1 4 6 5 4 5 6 7 9 12 17 21 23 23 13 21 25 30 31 31 27 29 29 25 29 27 23 22 20 18 17 14 14 20 28 33 39 41 40 38 35 33 36 28
6 5 3 1 3 5 4 3 5 2 5 6 7 10 13 19 25 24 22 6 13 18 22 24 29 29 29 29 23 30 28 25 22 21 21 19 18 17 19 25 29 32 35 40 40 36 35 36 33
2 3 4 4 5 3 7 5 5 4 4 5 1 5 10 18 26 23 17 10 14 19 22 25 27 27 28 27 23 27 28 26 23 23 23 23 20 21 23 25 30 32 32 39 40 34 36 38 35
3 2 6 3 3 2 2 11 5 5 8 6 4 2 6 13 22 23 18 12 14 19 22 25 26 25 25 26 24 27 29 27 25 25 25 25 24 24 25 26 28 31 33 35 39 41 39 38 32

GFSSGP_925_spd_105.txt.gz
Wind_Speed
12 11 8 4 2 0 3 4 2 4 3 3 6 4 7 2 5 2 1 19 16 20 20 19 20 20 23 23 22 21 22 24 25 26 29 29 30 30 29 28 27 27 26 22 22 23 23 22 26
16 13 4 3 3 4 4 3 7 8 3 3 4 4 3 4 2 2 10 17 18 22 22 21 21 21 22 22 22 22 22 23 25 27 29 29 29 30 29 27 27 26 26 25 22 20 21 25 28
14 6 3 3 3 7 4 6 7 3 8 4 3 3 2 2 4 7 7 22 21 22 23 23 22 24 23 22 22 23 23 23 26 28 29 31 30 30 28 27 24 25 23 22 21 20 21 25 25
5 2 3 3 12 5 5 2 4 7 1 4 2 3 1 3 4 10 15 25 24 23 24 24 24 25 24 24 23 22 22 24 26 28 30 30 30 30 25 27 24 23 20 22 24 22 25 26 25
4 1 3 4 8 4 8 6 7 9 5 3 2 2 3 3 5 12 19 28 26 23 23 24 25 24 22 24 24 24 22 22 25 27 29 29 30 30 29 27 21 21 19 20 24 25 27 27 27
3 1 3 13 13 4 6 6 3 5 7 4 4 8 4 2 8 15 21 27 25 23 22 21 23 24 23 22 23 23 24 24 24 25 27 28 27 28 27 27 30 17 22 24 26 28 30 29 29
4 4 6 4 7 5 5 6 5 4 2 1 2 5 2 3 8 16 21 24 24 22 21 20 23 22 22 22 22 22 22 25 26 27 26 26 25 25 28 28 23 23 23 22 25 28 31 31 30
3 3 5 6 14 10 5 7 4 5 3 3 3 1 2 3 8 13 20 21 21 21 21 22 23 23 22 22 22 22 23 24 25 27 27 26 25 24 25 24 24 26 24 20 24 29 31 32 32
4 5 10 14 10 7 4 3 1 1 2 4 0 2 4 1 11 11 13 18 19 22 23 24 24 24 24 24 22 22 23 21 22 23 24 25 24 25 24 24 24 26 22 21 26 32 31 33 33
6 8 13 6 10 5 2 3 2 2 4 4 4 1 3 4 12 15 17 18 19 23 26 25 25 24 23 23 23 25 25 25 25 27 25 28 27 26 26 26 27 25 19 21 24 28 29 32 31
7 15 7 7 11 5 8 8 4 5 9 8 8 4 2 5 9 16 19 22 25 21 22 28 27 25 25 24 24 24 26 28 28 27 30 31 29 28 29 30 25 22 22 23 23 26 29 32 32
7 8 11 4 7 7 9 5 8 10 11 13 10 6 6 9 12 18 22 25 22 22 23 27 30 28 26 25 28 27 27 28 30 31 30 32 31 30 30 27 26 24 26 26 27 29 33 32 33
9 9 7 11 13 10 9 16 17 12 12 15 10 9 12 12 16 20 24 19 20 24 24 30 32 31 29 28 29 29 29 31 28 29 30 31 33 35 30 30 23 19 22 28 32 32 35 34 27
4 11 15 13 16 9 14 18 7 8 15 14 10 14 12 10 14 13 17 24 23 26 27 26 30 32 30 31 29 28 27 29 28 28 30 33 33 33 32 27 20 19 23 29 37 39 40 34 23
4 8 9 11 9 8 6 16 15 18 16 16 16 13 12 11 9 16 21 22 27 29 27 31 34 34 33 29 30 28 27 28 28 27 27 29 28 30 28 27 21 19 20 34 41 42 39 32 23
4 4 9 4 15 9 10 22 4 1 9 9 10 8 7 6 7 13 16 21 23 25 27 32 34 38 37 34 33 31 30 28 27 28 28 26 26 27 23 23 22 23 25 31 42 40 38 34 25
5 8 5 4 11 7 16 17 2 5 2 4 4 5 7 10 11 16 17 19 21 25 28 28 31 37 38 32 34 31 30 28 27 24 27 26 27 24 21 23 25 28 29 28 30 37 37 29 24
12 7 8 9 4 7 12 16 10 12 5 6 10 11 11 12 15 15 14 17 22 23 24 26 29 32 34 32 30 27 28 27 27 25 26 24 25 26 26 25 28 31 32 33 37 39 37 32 29
5 12 15 3 2 4 13 18 11 10 13 14 15 13 13 14 14 8 12 18 20 20 19 23 26 28 33 33 29 27 27 27 26 25 24 25 25 27 27 29 29 27 38 41 37 37 42 25 26
15 17 14 5 7 7 16 21 15 13 17 19 16 14 14 10 9 11 15 14 14 16 18 21 25 28 33 31 29 20 24 23 25 25 25 26 27 27 27 30 30 30 32 42 45 39 30 24 30
14 18 13 13 4 7 8 19 14 5 11 11 11 11 6 6 7 12 13 17 15 16 16 18 23 25 30 27 26 17 21 15 22 23 22 25 27 25 26 28 29 29 33 35 43 40 32 22 26
16 11 12 10 5 8 2 8 5 10 7 4 6 3 3 5 7 11 14 14 17 17 16 17 20 25 28 29 28 25 23 18 18 21 20 23 24 24 29 30 31 35 34 35 36 38 31 32 25
8 9 12 11 10 6 8 6 2 3 6 1 1 5 3 7 10 12 14 18 23 12 15 18 21 25 28 30 27 25 19 15 13 15 15 22 23 23 30 29 32 37 37 41 44 42 37 38 31
7 5 3 3 3 6 10 9 3 7 6 2 2 2 4 7 10 12 17 20 21 10 13 17 22 26 29 29 28 29 22 18 16 15 17 17 23 23 25 30 32 42 41 39 37 37 36 36 34
6 7 3 4 5 6 9 9 7 4 1 3 2 5 6 8 10 12 16 17 22 17 16 18 23 26 29 30 31 29 22 18 17 17 17 18 22 22 19 32 36 42 45 46 39 35 32 33 32
11 11 5 6 5 1 5 6 2 2 8 4 2 4 7 9 10 13 14 16 22 25 19 21 24 25 28 30 29 25 21 18 16 16 14 16 17 18 19 29 33 38 40 39 38 35 33 37 32
5 9 1 2 2 2 4 5 4 6 3 2 2 2 8 12 14 16 16 17 25 27 18 22 23 24 26 26 25 23 21 19 18 16 16 16 15 16 20 26 31 34 38 34 36 34 37 39 38
5 8 6 2 4 6 5 6 5 10 6 4 2 6 9 11 16 16 16 18 29 28 18 22 24 24 25 25 21 21 20 19 17 16 17 15 13 14 16 23 31 36 36 40 42 39 35 39 38
5 4 2 3 4 3 3 2 3 5 3 2 3 2 7 12 16 18 18 29 32 29 18 23 25 24 25 25 22 22 19 19 17 16 16 16 14 12 14 21 28 31 32 37 38 40 38 34 35
3 7 9 4 4 4 6 7 2 4 6 3 3 3 5 11 16 17 18 24 35 14 18 21 22 23 24 24 21 21 17 18 18 17 17 16 17 15 15 20 25 28 29 36 38 37 37 36 31

GFSSGP_925_spd_108.txt.gz
Wind_Speed
13 8 6 6 6 6 10 6 4 5 5 3 5 7 10 7 4 2 3 13 13 16 15 15 17 18 19 18 17 18 19 20 24 25 26 26 25 26 27 25 23 21 20 21 22 22 21 22 24
12 10 7 3 8 11 10 8 10 7 2 2 5 9 6 7 1 4 10 12 16 16 15 16 17 18 21 20 18 18 20 22 24 24 26 27 26 27 27 25 25 24 21 21 21 21 20 23 25
12 9 5 5 10 14 8 8 6 4 3 6 7 6 2 2 3 5 8 16 17 16 16 15 16 19 22 22 21 19 20 22 23 24 26 27 27 28 26 24 23 23 20 20 18 17 19 26 26
12 7 4 10 17 12 9 4 6 1 5 7 2 6 3 1 3 10 14 17 18 16 15 16 17 20 22 22 22 21 21 21 23 24 26 27 27 28 27 26 25 22 20 20 19 17 20 26 27
10 4 10 14 22 16 11 6 7 5 2 4 3 8 3 4 5 11 18 18 18 16 15 15 18 20 22 22 22 21 21 22 23 24 26 28 28 27 27 27 25 25 22 22 14 22 24 27 27
8 6 9 17 21 9 12 12 9 11 6 4 5 12 8 5 8 12 16 17 16 16 15 15 21 21 22 22 21 21 21 21 23 25 26 28 27 27 26 27 25 23 20 17 20 23 26 29 28
16 11 17 19 17 13 9 9 13 12 7 8 2 7 2 5 5 10 15 17 15 15 15 16 18 18 20 20 22 22 21 21 22 24 26 28 27 26 25 27 25 25 18 19 20 24 26 29 29
11 10 21 18 17 21 9 5 6 12 10 3 4 5 4 3 6 9 14 17 16 16 15 16 16 17 17 17 20 21 21 21 21 22 24 24 23 24 26 28 27 25 16 21 20 23 23 27 29
12 11 17 20 18 15 4 9 6 1 6 3 4 1 5 2 6 12 13 17 17 17 17 17 16 17 17 16 17 21 20 20 22 22 24 23 20 20 23 24 24 21 20 19 17 20 24 26 28
15 16 25 17 16 8 5 10 7 9 13 9 6 3 1 1 5 12 17 19 21 20 20 19 19 19 18 17 16 19 19 19 18 19 20 21 20 20 22 22 24 22 23 22 17 22 25 25 28
14 26 17 15 16 16 16 12 11 12 14 13 10 4 4 4 6 10 15 20 23 20 19 20 20 20 20 19 18 19 21 19 20 20 19 19 19 17 21 19 21 21 24 14 17 22 25 26 25
20 21 22 18 18 14 16 15 17 15 18 16 10 10 10 11 10 10 13 18 21 22 23 21 21 22 22 20 20 17 23 23 20 21 26 18 17 17 18 18 19 21 21 19 20 25 26 25 28
24 22 16 19 20 18 16 19 19 20 12 18 16 10 14 12 13 13 14 17 18 21 23 23 22 24 23 23 20 20 18 21 24 23 22 25 22 21 19 21 23 22 18 19 22 22 26 24 29
13 19 24 18 17 17 17 20 19 14 15 22 18 16 14 14 15 13 14 18 20 22 23 22 24 26 25 25 23 22 20 19 19 22 24 26 23 24 22 22 25 24 20 19 24 26 31 29 31
18 20 18 17 13 15 12 24 26 23 23 25 23 19 18 16 16 15 18 16 18 21 20 24 25 26 29 28 24 24 22 20 20 22 28 20 24 23 22 22 25 24 23 21 24 27 31 31 29
15 19 20 19 23 21 13 27 5 6 8 15 16 14 11 14 12 14 15 16 16 17 19 22 23 26 30 29 26 24 22 21 22 26 26 22 21 20 21 21 21 23 22 25 30 33 36 35 33
18 17 20 15 10 15 21 17 15 7 8 9 8 8 8 8 10 13 15 13 13 16 18 20 22 26 29 30 27 24 23 26 21 19 21 24 19 19 18 19 20 24 26 26 30 36 38 36 32
17 17 16 10 8 15 17 19 8 9 10 8 8 10 11 12 14 17 11 10 13 15 17 19 21 25 27 28 27 23 25 26 21 21 19 18 20 20 20 19 21 24 25 28 28 27 30 36 31
17 12 15 14 7 13 16 19 19 16 14 14 15 16 17 16 15 12 7 9 12 16 17 19 20 23 26 29 29 26 29 26 22 22 20 20 20 20 21 24 21 25 30 30 31 26 29 29 29
12 13 20 14 8 11 16 21 19 17 18 19 19 18 18 15 11 7 6 7 10 15 16 15 18 21 26 27 27 23 25 22 21 23 19 20 20 21 23 26 25 28 28 35 34 31 30 24 30
19 21 18 18 11 14 19 24 24 23 20 20 16 13 11 8 7 5 4 6 9 11 14 16 18 21 25 27 26 21 20 15 18 22 22 24 21 22 24 27 29 30 33 34 35 36 31 31 32
21 20 18 13 9 14 6 10 5 4 12 11 10 9 7 6 4 3 6 8 10 13 13 15 16 20 24 28 29 31 27 22 20 21 19 22 22 24 26 27 24 29 30 32 38 41 35 34 33
15 13 12 15 16 15 19 9 12 6 14 11 10 8 6 4 2 3 6 10 12 12 11 11 14 19 22 27 28 30 26 22 19 20 20 21 23 26 24 27 26 28 30 34 35 33 34 32 27
8 8 9 8 10 12 18 14 11 11 12 9 7 6 3 2 4 5 7 9 12 13 11 10 14 18 22 25 29 31 28 23 20 20 19 19 23 23 25 27 27 28 31 35 38 36 37 36 27
13 15 6 7 6 10 6 12 12 5 5 8 6 5 4 1 4 7 10 10 12 14 14 11 15 18 22 25 26 28 26 23 21 20 18 17 20 20 21 27 29 31 32 32 36 36 40 42 35
21 17 6 8 9 10 9 8 5 8 9 6 4 1 1 2 4 6 10 12 14 18 18 14 16 18 21 25 24 24 24 21 17 17 16 17 18 18 22 31 27 31 36 34 35 34 33 37 36
15 14 10 6 1 3 8 5 4 8 9 7 7 4 5 7 8 11 15 13 15 23 24 19 16 19 23 25 24 22 23 19 16 15 14 15 15 15 18 23 28 32 35 38 37 36 34 31 34
10 13 9 9 6 8 7 10 5 12 11 10 9 6 3 6 11 13 14 16 22 22 26 21 18 22 24 25 24 22 22 19 16 15 15 15 13 14 16 20 28 31 35 37 37 31 33 33 30
10 11 9 8 9 4 2 3 4 7 6 6 5 3 5 8 10 12 15 20 25 23 32 18 19 23 25 25 25 22 22 20 17 16 16 16 13 15 15 15 23 30 33 34 36 36 32 33 32
14 16 15 8 9 10 10 5 4 3 1 3 5 5 7 7 10 13 15 20 26 23 37 12 16 22 24 25 26 22 20 20 19 18 17 16 15 14 13 14 18 24 29 33 35 33 32 34 33

GFSSGP_925_spd_114.txt.gz
Wind_Speed
11 10 9 12 6 8 15 18 20 6 3 2 9 4 6 13 9 6 16 20 20 20 20 17 16 14 14 13 13 12 13 14 14 13 14 15 15 15 16 15 15 15 12 12 11 10 11 11 12
9 11 13 7 8 12 14 22 22 3 10 10 3 9 4 3 16 14 13 20 20 20 20 17 16 14 14 14 12 12 11 12 14 15 15 16 16 16 17 16 16 15 14 13 12 11 10 12 14
13 15 9 5 13 16 15 20 9 12 12 6 4 6 4 3 14 9 27 23 21 18 17 16 16 16 15 14 12 10 10 11 14 16 16 18 18 18 18 17 17 16 14 14 15 12 10 12 13
10 7 7 11 21 21 24 20 2 7 5 5 8 6 5 11 8 17 23 23 22 19 16 16 16 16 15 14 13 11 10 11 13 14 16 17 18 18 18 18 17 16 15 14 16 14 12 15 15
16 7 11 15 21 24 22 23 1 6 3 11 11 12 10 12 11 27 24 22 22 20 17 15 15 14 15 15 13 12 10 11 12 14 15 17 18 18 19 19 18 17 14 14 14 13 13 16 16
8 8 14 16 23 25 22 21 9 7 9 8 7 10 4 18 14 25 22 21 22 18 15 17 16 15 16 15 14 13 12 12 12 14 14 16 18 16 20 20 20 18 16 15 14 13 12 15 17
17 13 18 22 22 24 22 19 12 11 11 10 7 10 7 16 18 24 20 20 22 17 13 16 18 18 17 16 15 14 14 13 13 13 15 16 15 16 18 20 19 17 16 13 13 10 9 15 16
14 15 26 21 19 25 22 17 5 8 13 13 12 11 7 10 23 20 24 20 19 17 15 13 17 19 19 18 17 16 15 14 13 13 15 14 14 16 18 18 18 18 16 15 14 7 12 15 12
20 16 20 26 24 22 20 22 8 5 11 15 14 9 11 8 15 15 22 22 20 18 17 16 16 16 17 17 18 18 17 15 15 14 15 15 16 16 18 18 19 18 17 16 12 9 14 16 21
20 18 29 24 22 20 23 22 12 7 13 14 11 6 12 8 12 15 17 18 23 20 20 20 19 18 17 16 15 20 19 19 18 16 15 17 17 16 16 17 21 19 20 17 13 13 13 17 17
25 29 23 25 24 25 24 20 18 11 14 12 12 11 9 9 12 14 18 21 23 24 22 22 22 22 22 18 18 17 17 17 17 17 18 15 16 19 18 18 21 22 21 17 16 15 15 17 19
29 30 27 28 26 24 22 21 22 14 15 13 14 16 16 13 9 10 15 23 27 28 26 24 25 24 24 20 22 21 23 19 18 20 21 19 20 19 18 17 20 23 22 23 17 19 17 15 21
32 29 28 27 25 24 22 25 19 18 16 11 15 12 7 11 9 14 17 20 21 30 33 33 30 29 26 25 22 21 25 22 20 20 23 24 20 20 19 18 18 20 21 22 23 21 19 19 20
25 28 29 26 27 25 24 24 20 20 15 16 15 14 15 10 13 15 19 18 20 20 32 36 35 33 28 26 23 24 21 23 22 22 22 23 23 23 21 20 19 19 21 22 23 24 21 21 20
25 28 28 27 29 26 23 25 30 20 18 19 20 18 17 17 17 16 25 23 20 19 14 35 35 33 29 26 28 20 22 20 24 23 26 23 26 21 21 21 19 21 18 20 22 21 19 20 21
24 25 25 33 26 23 23 32 25 21 21 23 22 19 18 18 20 26 27 25 23 24 22 23 28 34 32 26 24 26 20 22 19 24 29 26 25 24 23 20 21 22 19 19 19 20 23 22 25
24 25 33 26 25 25 24 33 23 20 22 25 24 22 20 20 21 21 20 23 27 22 22 21 31 30 30 27 24 25 26 22 23 21 21 27 28 28 24 22 20 18 21 20 21 19 24 26 25
36 29 22 25 23 25 28 29 21 20 19 18 18 13 18 20 23 26 29 27 23 24 21 20 22 31 29 25 28 22 25 27 23 23 22 23 26 28 31 25 17 21 19 21 20 22 22 23 27
26 26 27 26 25 25 26 27 24 24 17 17 14 19 12 9 11 13 13 16 12 8 4 2 7 19 27 24 23 25 24 25 26 24 23 23 26 28 28 27 22 20 21 23 23 20 21 23 25
30 28 27 19 17 2 6 17 16 15 19 17 15 11 14 11 10 9 15 17 9 3 1 5 8 10 15 22 25 24 26 24 24 24 22 26 29 27 26 26 28 24 25 23 23 26 20 20 28
28 27 23 25 5 14 10 15 20 17 16 15 16 18 18 13 12 12 13 16 13 6 3 8 11 15 18 23 24 23 16 17 22 29 29 26 28 29 27 27 27 27 27 27 26 27 26 18 24
26 26 26 20 7 4 12 8 17 15 17 17 17 15 9 10 9 10 8 10 12 7 5 1 8 12 14 19 23 26 21 17 21 23 27 24 25 26 27 25 29 27 28 28 27 27 27 24 20
24 18 21 11 6 8 13 10 20 20 22 19 27 25 16 10 13 6 9 10 11 9 9 3 5 12 14 15 25 26 22 21 20 22 24 34 29 30 28 27 28 26 28 28 28 26 28 30 25
21 4 7 5 7 8 20 15 15 17 26 23 19 9 9 11 9 8 9 8 2 5 6 1 8 15 12 15 16 24 25 23 20 23 27 28 26 31 29 29 29 27 29 29 27 27 31 31 28
14 13 5 4 7 13 14 15 18 15 14 20 11 15 16 13 8 6 6 4 11 15 16 12 13 17 20 16 19 19 22 25 25 26 27 26 26 27 29 30 28 29 29 27 28 31 32 33 33
16 16 6 7 7 9 19 11 17 23 17 15 12 16 15 11 8 4 8 10 15 18 22 23 24 26 20 28 21 23 17 22 26 29 25 29 28 26 26 29 29 29 28 28 30 32 32 33 34
21 18 16 2 7 4 8 17 5 22 8 14 13 15 9 8 9 9 10 13 14 14 16 19 20 25 23 28 31 24 25 24 24 26 23 26 23 22 27 29 27 30 31 27 27 30 31 31 32
16 17 13 7 3 3 5 15 4 6 19 17 12 12 10 8 10 7 10 10 8 10 15 19 23 23 25 30 34 24 27 26 29 24 25 24 25 23 27 28 29 30 28 28 26 26 29 30 30
9 13 11 11 9 2 1 1 13 6 13 5 8 10 15 15 14 12 10 14 17 16 16 20 22 23 27 30 38 25 23 23 25 24 24 24 23 21 24 26 27 27 26 28 25 26 28 31 30
12 13 16 7 10 5 1 3 9 11 12 12 22 15 16 12 12 12 11 14 17 20 21 24 26 25 28 32 27 19 22 22 23 25 24 22 22 20 23 25 26 28 30 29 28 28 28 30 29

GFSSGP_925_spd_117.txt.gz
Wind_Speed
7 7 2 2 3 2 4 10 16 18 6 4 4 8 3 2 4 5 13 28 30 28 25 23 21 18 17 17 16 16 15 13 12 13 13 14 14 15 15 16 17 15 14 13 10 11 10 10 11
9 7 4 1 3 2 6 18 16 16 5 6 7 7 8 2 6 13 11 26 29 28 25 23 20 18 17 16 16 15 14 13 13 13 14 14 15 14 15 16 17 17 13 14 12 11 12 13 13
8 8 3 4 4 6 6 5 2 4 6 4 3 4 2 4 12 10 27 27 28 27 24 22 20 19 18 18 16 15 15 14 14 14 14 15 15 14 14 15 16 16 13 14 12 11 13 15 14
3 2 4 3 9 12 16 22 14 7 3 5 3 5 4 14 6 22 30 29 28 24 23 22 21 20 19 18 17 16 15 15 15 14 14 15 15 15 14 14 15 15 12 14 11 11 11 13 13
6 3 3 5 10 12 15 20 14 13 6 6 4 2 7 3 36 42 32 28 28 24 24 24 22 21 20 18 17 15 15 15 15 15 14 15 15 14 15 15 14 13 11 12 10 10 9 10 11
2 3 2 10 14 14 15 19 16 9 6 7 6 3 1 26 35 39 37 31 26 26 23 24 23 21 20 19 17 15 15 15 15 15 14 15 15 15 15 16 15 13 13 12 12 11 7 9 11
6 4 7 10 12 15 18 12 7 11 6 3 9 5 6 8 34 38 36 32 28 24 23 24 24 22 20 19 18 16 15 15 15 16 15 14 15 15 15 17 16 14 12 13 13 10 8 9 12
3 4 12 11 11 19 20 13 8 3 2 2 7 5 6 5 36 37 35 32 27 23 20 23 24 23 22 20 19 17 16 15 15 17 18 16 16 16 15 17 16 16 13 13 14 12 7 10 13
7 11 18 16 17 19 18 18 6 2 3 1 2 6 9 28 35 33 32 30 24 20 18 22 24 24 22 21 19 18 17 16 15 16 18 18 18 18 17 17 17 17 16 16 15 13 10 12 14
6 11 22 9 15 18 20 20 13 3 5 4 1 7 18 24 24 19 20 20 28 25 20 19 23 25 23 22 21 20 20 20 19 18 18 19 19 19 19 19 19 19 18 17 17 14 15 16 18
13 28 11 14 18 22 22 22 17 4 7 8 10 13 13 10 13 13 18 28 30 30 25 23 23 24 24 23 23 23 22 21 20 20 20 19 19 19 18 19 22 21 20 20 20 17 17 17 20
21 26 18 23 20 19 22 13 13 5 9 7 12 15 15 13 12 11 15 24 28 33 33 28 25 25 24 24 22 21 24 24 23 23 21 20 20 22 21 20 22 24 24 23 22 20 17 19 21
27 19 22 20 23 29 26 24 16 20 6 9 4 4 9 12 12 22 29 28 36 34 38 36 34 33 29 28 25 21 23 25 24 23 23 22 21 23 23 23 23 25 25 25 23 22 21 21 22
14 22 24 21 28 27 27 25 7 21 6 9 6 6 4 9 10 13 16 16 22 34 39 43 42 40 37 33 29 26 28 25 23 23 24 25 25 24 24 25 23 24 25 27 25 25 24 23 21
22 22 20 28 32 27 16 19 31 9 8 8 8 8 7 9 10 10 23 20 20 23 35 40 44 43 40 36 33 30 25 30 27 27 24 26 27 27 27 26 25 24 22 22 24 26 23 23 20
26 16 22 41 24 20 15 29 27 9 10 12 11 9 9 10 10 17 22 26 28 26 23 45 41 43 40 38 38 30 26 27 30 26 27 25 27 27 27 26 25 25 23 23 25 26 26 25 26
22 25 33 28 12 17 19 28 16 11 15 16 14 13 12 13 10 18 22 24 31 31 31 37 41 44 43 38 35 36 26 24 27 31 30 30 29 29 25 27 27 26 26 24 25 25 27 27 27
26 25 15 17 14 19 21 28 7 10 10 18 15 17 16 18 20 21 29 32 35 36 30 31 44 48 45 40 35 31 33 26 21 26 30 30 34 29 27 27 24 25 26 26 26 26 25 26 25
23 19 21 17 15 19 27 25 18 12 16 14 13 15 12 20 17 28 29 35 25 21 22 22 33 36 38 37 33 26 31 33 33 25 24 26 31 32 30 29 26 27 29 28 27 26 26 21 24
25 24 23 17 15 18 17 8 17 9 9 21 15 10 9 8 10 19 25 17 20 20 18 20 26 32 33 33 33 27 31 31 35 35 30 28 29 31 29 32 32 25 29 27 27 28 22 19 24
27 24 22 17 2 5 8 7 9 5 6 11 20 11 8 10 8 7 7 20 25 21 17 14 15 19 30 30 29 20 27 18 28 33 31 29 28 28 29 33 33 31 32 29 28 28 27 17 25
23 23 25 23 18 4 3 4 7 11 9 6 7 2 6 7 9 5 11 7 21 18 16 14 10 7 6 3 28 32 27 20 29 31 34 27 21 29 31 31 33 36 32 30 30 29 28 22 20
22 24 24 25 9 6 5 3 6 6 6 12 9 9 7 6 7 8 12 15 17 16 18 16 11 11 11 12 12 23 31 32 28 29 30 30 29 26 35 34 34 33 35 31 30 29 29 31 22
26 22 13 3 6 2 8 6 5 5 10 8 13 13 11 6 8 14 16 26 26 30 30 29 25 21 17 19 17 11 25 29 23 23 25 27 30 29 34 32 34 33 34 33 31 30 31 32 28
22 14 6 1 2 4 12 7 14 8 11 18 18 13 5 15 14 13 17 13 21 25 28 25 26 25 23 22 24 21 19 28 28 30 29 28 30 29 33 34 34 35 34 31 30 30 31 30 30
12 8 5 2 5 4 4 7 7 14 19 17 15 14 12 14 16 17 14 12 19 21 25 25 26 27 27 27 29 28 24 26 31 30 28 31 30 32 33 35 35 35 32 29 30 30 30 30 29
9 11 3 0 2 3 5 4 7 13 4 12 20 16 9 17 17 16 14 16 20 22 24 25 26 25 27 31 32 35 30 24 29 31 29 27 30 29 35 36 35 33 32 29 30 31 30 30 30
11 6 4 3 1 4 4 4 3 8 14 12 19 18 15 20 19 17 15 19 23 26 26 25 22 21 24 28 29 30 27 29 31 33 28 25 28 31 32 33 33 32 32 31 31 30 29 31 31
3 5 4 1 4 1 2 3 7 9 11 18 17 21 13 16 16 16 15 22 24 25 24 21 20 21 24 28 31 33 35 34 31 34 27 26 29 33 34 30 32 31 32 32 32 31 29 30 29
13 6 5 3 4 2 6 3 8 18 11 18 19 18 12 14 15 15 14 18 19 18 18 19 21 22 25 29 31 33 34 26 32 31 30 28 31 33 31 30 30 29 32 31 31 29 28 28 27

GFSSGP_925_spd_120.txt.gz
Wind_Speed
8 3 2 3 3 5 4 8 4 14 7 4 6 3 8 3 5 4 4 20 30 34 31 27 25 24 23 23 21 19 19 19 18 18 19 19 19 19 19 19 18 16 14 14 14 12 11 12 12
1 0 2 2 5 3 6 6 12 14 10 11 6 2 4 3 2 9 12 24 33 34 31 29 25 24 23 22 21 19 19 18 18 18 18 19 19 19 19 19 18 16 13 11 11 12 12 13 15
6 0 2 4 4 7 7 6 7 7 14 7 1 2 6 7 5 14 16 34 34 33 30 28 26 25 23 22 20 20 19 19 19 19 19 19 18 18 19 19 18 16 15 10 10 11 13 14 15
4 4 3 2 10 8 8 5 5 10 10 9 2 4 4 6 22 19 37 36 34 31 29 28 27 25 24 23 22 20 20 20 19 19 19 19 18 18 19 19 18 16 14 11 10 11 13 13 13
1 3 2 4 8 9 7 7 8 12 6 15 5 3 4 4 20 40 40 38 35 32 30 29 27 26 25 25 23 22 21 21 21 20 20 20 19 18 18 18 17 15 13 13 11 11 11 12 12
1 2 2 7 15 7 5 16 2 9 15 14 5 8 6 19 32 33 41 39 35 34 31 29 27 26 26 25 23 22 21 22 21 21 21 21 20 19 18 18 17 15 13 14 11 10 10 12 11
4 2 6 7 3 5 10 4 3 9 15 13 6 6 3 13 31 39 39 36 35 34 33 30 28 26 25 25 24 22 21 21 22 20 20 20 20 19 18 18 17 16 15 15 14 11 8 9 11
4 3 4 6 10 10 14 7 3 9 10 3 5 6 7 13 35 36 36 34 33 33 32 31 29 27 26 25 23 22 21 21 21 21 20 20 20 20 18 19 18 17 16 16 15 13 9 10 11
1 3 12 11 7 12 11 9 3 9 7 7 3 6 14 28 30 30 30 27 29 29 30 30 30 28 27 26 25 23 22 21 21 21 20 19 20 20 20 20 19 19 18 17 16 15 10 10 13
6 9 10 6 13 15 17 17 11 6 10 8 3 4 22 32 35 29 24 23 25 28 30 31 31 30 28 27 26 25 23 22 22 22 22 22 21 21 20 20 21 21 20 19 17 16 12 13 15
6 23 10 14 9 16 20 23 13 7 19 11 7 9 19 22 23 22 25 33 38 35 29 30 31 31 30 30 28 27 27 25 24 23 22 22 22 21 21 21 22 22 22 21 19 18 15 16 16
14 17 15 14 17 19 18 8 17 7 11 11 4 8 20 19 20 19 22 27 29 37 35 31 31 31 31 30 30 29 29 27 26 25 23 23 24 23 23 23 23 25 25 24 23 21 18 18 17
20 17 21 15 22 25 17 28 25 30 9 11 4 9 7 15 18 27 35 33 37 36 38 38 35 35 34 33 31 31 30 29 27 26 26 25 26 26 26 25 25 27 26 26 24 23 22 20 19
11 15 19 20 30 24 22 24 13 35 7 13 10 10 11 10 10 14 22 27 29 36 39 39 40 40 39 39 36 34 31 30 29 29 28 27 26 27 28 27 27 27 28 26 25 25 24 22 21
9 15 19 24 29 27 13 23 30 26 11 12 12 9 10 10 12 10 29 30 33 34 42 40 42 41 41 41 38 36 33 29 30 29 28 28 28 27 28 28 28 29 28 27 26 25 24 23 21
15 12 18 27 13 23 13 30 35 19 14 22 12 10 9 10 9 19 22 29 38 36 34 39 37 42 42 41 38 36 34 32 31 29 28 28 29 29 29 29 29 27 27 27 28 27 26 26 24
11 16 21 26 8 11 19 28 36 12 16 21 15 11 10 9 10 19 22 22 25 34 39 40 41 42 45 44 41 39 37 35 34 32 31 30 30 31 30 30 29 27 26 27 27 27 30 29 27
22 14 18 17 16 12 20 23 31 10 14 22 16 10 9 10 13 21 30 29 27 30 30 42 45 47 46 43 38 37 34 34 32 34 31 30 31 31 32 30 28 28 28 28 28 30 30 30 27
19 21 21 24 23 19 22 23 28 13 11 17 15 10 10 12 13 17 31 36 34 32 28 33 42 45 37 30 30 30 32 29 31 33 33 32 31 31 31 30 28 30 31 31 29 28 30 26 24
20 22 23 22 23 21 22 26 24 19 18 19 16 11 12 8 9 12 18 24 32 31 27 28 37 34 37 34 30 25 32 35 31 30 32 34 34 34 33 32 31 34 32 31 31 31 20 17 27
25 29 20 21 20 20 17 8 15 7 16 9 5 7 9 12 12 13 14 13 20 18 19 28 35 35 33 31 30 24 25 19 28 29 29 30 33 35 37 35 32 32 30 32 33 33 28 18 23
25 19 20 22 18 10 2 7 5 6 9 6 6 2 6 9 7 7 7 8 18 19 21 22 22 24 22 22 24 24 23 20 29 34 38 35 31 32 34 36 33 32 34 33 33 31 31 23 18
17 18 19 22 19 12 15 3 7 6 5 9 9 5 5 7 3 13 18 23 27 33 34 35 35 34 27 20 6 16 22 22 23 31 32 35 34 32 34 35 35 33 34 35 34 32 31 31 23
9 16 17 17 6 12 19 10 6 6 13 7 5 5 5 15 20 20 21 28 26 25 32 29 28 26 23 21 18 16 11 11 18 23 26 32 33 34 34 34 34 36 36 37 37 34 31 32 31
7 7 1 4 6 7 17 9 17 6 5 7 7 2 5 16 14 15 17 15 20 25 24 25 26 25 23 21 20 16 13 14 12 21 28 30 32 29 30 31 35 37 37 35 35 34 30 32 31
7 11 5 4 3 4 13 8 6 11 13 5 4 10 15 20 12 18 16 15 21 22 25 28 27 26 27 25 24 23 20 18 18 16 26 32 33 33 33 34 35 36 36 35 34 35 34 32 31
1 6 17 2 7 2 5 4 6 10 11 10 20 22 21 20 13 19 17 20 22 25 27 29 28 26 28 28 29 29 27 24 24 19 22 31 34 31 32 35 38 38 38 36 35 35 32 31 31
7 4 3 3 2 3 1 3 3 10 19 20 19 18 20 17 17 15 13 18 21 22 20 21 22 22 23 27 27 27 29 27 27 25 24 29 37 32 30 32 37 34 38 37 36 33 31 29 30
7 3 5 2 1 3 3 2 5 10 13 21 17 16 18 18 16 13 12 17 18 18 21 21 23 24 29 29 29 31 32 30 27 29 30 30 36 34 32 32 34 36 37 36 36 32 31 29 29
5 11 7 2 3 2 2 2 14 16 17 18 17 16 16 19 16 13 12 16 17 19 21 27 29 25 24 27 29 30 32 31 28 29 30 31 35 32 31 33 35 37 36 36 34 32 29 29 28

GFSSGP_925_spd_126.txt.gz
Wind_Speed
0 3 5 5 4 5 5 7 2 5 3 1 2 4 7 3 7 6 8 28 32 35 37 34 33 31 28 26 25 25 26 27 28 29 29 28 27 26 25 24 23 21 20 18 16 16 15 15 14
5 5 4 3 5 2 6 4 8 4 5 10 8 3 3 6 3 2 11 20 32 39 39 36 33 31 30 27 25 25 25 26 27 28 27 27 26 25 24 23 22 20 19 18 16 15 16 15 13
6 3 4 4 4 6 6 5 6 5 9 4 6 3 3 4 4 5 5 23 30 41 39 37 34 32 30 28 26 26 25 26 26 27 26 26 26 25 24 22 21 20 18 17 16 16 16 16 16
2 5 4 4 8 8 8 6 4 9 3 1 6 8 5 2 2 5 17 26 35 40 39 36 33 31 30 29 28 27 27 26 27 27 26 25 25 24 23 22 21 19 17 17 18 18 17 17 16
4 3 2 2 6 8 4 5 4 7 7 3 2 7 7 4 5 6 22 32 40 41 38 35 33 31 29 29 29 28 27 27 27 27 26 25 25 24 23 22 21 19 17 17 18 18 17 16 17
3 3 1 5 5 7 7 5 4 5 3 12 2 6 6 7 5 12 21 31 36 40 37 35 32 30 29 28 30 29 28 28 27 27 26 25 25 24 22 21 20 18 17 17 18 18 17 16 16
5 3 5 3 3 5 7 2 3 6 5 7 3 6 6 6 6 20 23 28 32 35 35 35 33 31 30 28 29 29 29 28 28 28 27 26 24 23 22 21 19 18 17 17 18 18 17 16 15
4 3 2 5 4 7 8 3 2 4 6 5 0 3 6 2 6 18 24 25 30 32 34 34 32 31 32 31 29 28 28 28 28 28 27 26 24 23 22 21 20 18 17 16 17 17 16 16 15
3 1 3 4 5 4 6 6 2 4 4 3 3 2 8 15 16 19 22 23 26 30 32 32 32 31 30 31 30 28 27 28 28 27 27 26 25 24 23 22 21 19 17 16 16 16 14 15 15
3 3 4 6 4 7 7 10 11 7 14 7 10 2 14 6 17 17 18 21 23 29 33 33 31 30 27 27 32 31 29 28 28 28 28 27 26 25 24 22 21 19 18 16 16 15 14 14 16
2 5 3 2 5 6 5 11 6 10 25 7 13 6 3 5 9 12 18 26 45 36 34 34 32 30 29 25 27 28 30 31 30 30 30 28 27 26 24 23 22 21 20 19 17 16 16 14 15
6 5 3 5 7 8 9 8 14 21 29 8 12 10 4 8 9 13 17 22 25 38 40 34 33 32 31 28 26 25 29 31 32 32 31 31 30 28 26 26 25 24 23 21 21 19 17 15 14
6 3 7 9 10 8 9 11 17 32 15 16 13 16 9 9 12 22 24 17 19 24 32 39 37 36 33 31 26 28 27 27 28 30 33 32 30 31 29 27 27 26 24 23 22 21 20 17 16
5 13 14 9 11 11 16 20 10 10 11 16 17 20 13 12 13 20 23 24 26 28 33 37 43 42 38 35 31 27 26 30 28 29 34 33 31 28 30 29 28 28 26 24 23 22 21 19 17
5 12 16 8 5 5 6 17 13 17 16 24 21 21 16 12 21 19 29 31 35 36 35 40 43 42 43 40 37 33 29 28 31 31 29 34 31 28 28 30 29 28 26 24 24 22 21 19 19
6 5 7 1 5 6 4 27 7 6 6 12 19 17 18 17 13 27 31 33 34 32 32 43 40 44 44 45 42 39 37 33 30 29 30 29 30 29 27 28 29 27 26 25 24 24 22 21 20
3 7 7 10 4 6 7 17 3 15 18 20 19 20 19 20 13 26 31 33 33 38 35 37 42 44 48 45 41 40 40 36 33 30 29 28 28 29 27 26 27 25 26 26 25 25 24 23 21
5 7 6 12 6 11 18 25 31 24 20 24 20 22 23 23 24 23 31 34 36 36 40 42 42 44 45 35 33 33 34 36 35 34 33 32 31 29 28 27 26 25 27 26 26 26 25 24 24
8 11 15 22 21 24 21 24 23 29 20 24 20 21 25 24 24 23 30 38 37 35 38 40 40 42 34 32 32 28 32 35 38 37 36 33 33 30 29 28 27 27 29 28 27 27 25 24 21
12 11 22 22 23 18 25 29 26 24 29 23 23 23 25 26 23 19 26 29 34 39 38 39 41 40 41 36 35 26 30 29 29 35 36 31 32 31 31 31 29 30 30 29 28 28 21 20 23
16 10 19 19 23 25 23 28 31 20 22 29 27 29 27 27 25 18 15 20 30 29 37 37 39 38 41 36 29 22 20 16 22 29 33 34 33 32 33 32 31 32 32 32 32 30 28 18 23
12 6 14 17 12 11 6 15 29 22 23 26 20 23 25 27 24 20 11 7 6 9 14 17 21 24 29 31 31 30 23 18 21 25 26 33 35 34 34 34 30 34 34 34 32 31 33 28 18
10 9 12 14 14 10 19 6 17 16 23 21 20 22 24 23 20 9 12 15 19 22 23 20 22 20 20 25 29 28 24 23 18 18 18 10 19 29 29 31 31 34 35 35 36 34 32 34 26
14 10 11 4 2 5 9 6 17 6 9 11 11 10 8 15 18 17 18 24 23 27 29 28 30 26 23 23 21 21 17 15 17 17 12 17 14 26 28 28 33 37 37 36 36 35 32 33 31
3 4 4 5 2 7 7 10 12 21 21 15 3 15 17 17 18 18 18 16 27 25 25 26 28 28 28 27 22 18 14 11 12 12 19 20 27 30 30 31 36 38 38 36 36 35 34 33 33
9 5 2 5 5 17 17 6 7 14 20 18 17 18 20 19 19 19 19 16 24 23 24 25 25 27 26 21 19 16 13 10 8 6 6 14 24 27 26 27 31 33 35 38 35 35 34 34 35
1 4 5 5 9 6 5 5 1 14 18 17 18 20 18 18 17 18 18 21 23 22 25 24 21 22 24 23 19 20 15 11 8 4 4 10 18 21 21 25 28 30 35 37 37 36 34 30 33
2 5 2 1 4 5 3 5 12 10 14 16 17 17 16 16 17 16 15 19 18 18 20 22 21 21 19 20 21 19 16 13 12 11 12 14 18 19 26 25 28 32 30 33 37 33 35 32 31
4 3 3 4 4 4 5 3 13 14 13 14 16 15 15 16 14 14 13 16 16 19 22 22 22 21 21 25 23 20 20 19 17 16 17 18 21 22 24 28 31 30 31 33 31 30 29 31 30
1 4 3 3 4 4 3 4 11 14 15 14 14 14 15 16 14 15 13 17 16 24 24 17 23 27 26 28 26 26 22 21 19 19 19 20 23 24 25 25 30 32 32 33 33 30 28 31 32

GFSSGP_925_spd_129.txt.gz
Wind_Speed
1 2 3 3 2 1 3 5 3 3 2 3 6 6 5 2 4 3 9 12 19 35 38 36 34 31 29 27 27 28 28 31 32 32 32 30 28 27 27 26 24 22 21 20 18 17 16 16 15
4 4 3 2 3 2 4 3 10 6 3 12 6 3 4 4 5 9 3 13 24 37 39 37 35 33 30 27 27 28 29 31 32 32 30 29 28 27 26 25 24 22 20 19 18 17 17 16 15
4 3 1 2 2 7 5 6 5 2 7 4 5 2 4 4 4 4 4 17 23 35 38 36 36 33 30 28 28 28 29 31 32 31 30 29 28 26 26 25 24 22 20 18 18 17 16 15 15
2 2 3 3 9 7 3 2 1 9 3 1 5 8 5 6 4 3 4 18 20 30 36 36 35 32 29 28 27 29 29 31 31 30 29 29 28 27 25 23 22 21 20 19 18 18 18 17 17
4 2 2 3 7 8 5 5 5 11 9 5 11 6 9 6 10 4 12 18 22 27 33 36 34 32 30 29 28 28 29 29 30 30 29 29 28 27 25 24 22 20 20 20 19 19 18 17 17
2 1 3 6 8 8 9 5 4 7 5 7 4 6 6 7 12 5 6 19 21 27 29 35 33 31 31 30 30 29 29 29 29 29 29 29 28 27 25 24 22 21 20 20 19 19 18 18 17
1 2 3 2 3 7 9 0 5 9 12 10 2 7 4 9 14 6 9 13 25 27 29 30 32 31 30 30 29 29 29 30 29 28 28 28 27 26 25 23 22 20 20 20 19 18 16 17 16
3 1 1 2 5 9 7 5 6 8 10 6 3 3 6 12 15 5 9 13 18 26 28 29 29 28 29 30 29 29 29 30 30 29 28 27 26 25 25 23 20 20 20 20 19 18 16 16 15
3 3 5 6 7 6 6 11 10 8 11 10 6 10 14 16 13 4 5 10 15 23 27 29 28 28 28 29 30 29 29 29 29 30 29 27 26 25 24 23 22 20 20 21 20 18 16 15 14
4 4 7 4 3 5 8 12 15 10 14 15 15 11 11 8 8 9 11 17 19 22 26 26 27 27 25 24 28 29 28 27 28 28 30 29 28 26 23 23 22 20 20 20 19 18 17 15 15
2 5 3 1 4 8 8 15 12 18 16 9 10 14 15 22 20 13 15 19 21 16 20 23 26 27 27 24 28 32 27 25 24 27 28 26 27 26 25 24 21 20 20 18 19 18 16 16 16
4 6 2 4 5 9 12 12 17 23 21 18 18 19 20 18 20 19 18 21 20 17 23 21 23 26 28 24 25 28 31 29 29 30 32 27 24 25 23 21 21 20 20 19 18 18 16 16 15
6 3 7 9 16 15 16 20 21 28 24 24 25 22 21 20 22 27 24 21 22 21 22 24 23 24 26 25 26 26 30 32 31 30 34 33 29 28 27 22 22 21 20 20 20 18 18 16 15
3 10 15 12 14 12 16 18 10 6 17 19 18 20 21 18 18 27 27 23 23 27 25 26 27 27 27 26 26 24 26 30 30 32 34 32 29 28 29 27 22 21 21 20 20 21 18 16 15
6 11 9 8 1 3 8 17 17 15 7 11 14 14 17 18 22 25 30 25 26 28 32 32 32 29 31 28 27 25 26 25 29 28 32 35 30 27 29 29 25 21 25 23 22 20 19 16 15
5 3 5 1 13 4 3 21 12 4 11 18 23 25 23 21 21 26 28 29 28 30 29 37 38 35 32 30 27 26 26 27 27 28 26 35 33 27 27 28 30 24 25 24 22 20 18 16 15
4 8 9 9 6 6 6 25 5 15 26 28 24 23 25 26 26 28 28 33 32 32 34 35 39 41 38 32 28 27 26 27 26 26 28 31 35 30 29 28 29 28 25 25 22 22 18 17 16
6 9 8 14 2 8 18 30 33 27 25 27 26 25 24 28 32 28 29 34 34 33 36 38 40 42 42 33 28 25 25 27 27 28 31 33 35 35 31 29 27 27 25 25 23 21 21 18 16
7 13 17 23 18 17 22 26 30 34 24 28 27 27 26 27 31 35 31 32 33 33 36 37 36 37 36 34 32 29 30 26 26 26 26 29 32 34 33 24 24 28 32 32 28 23 20 18 19
7 13 18 24 13 14 22 24 34 31 30 27 29 29 28 28 28 29 31 33 33 32 33 36 39 39 39 36 35 29 30 27 26 25 26 28 28 32 32 32 31 30 29 29 29 26 20 17 23
9 11 17 16 26 21 12 17 19 24 19 22 24 27 28 29 28 27 25 29 34 27 34 37 39 40 41 37 31 24 17 17 21 26 26 29 29 30 30 30 33 34 33 31 32 30 23 19 24
10 12 16 13 14 10 12 9 24 21 24 21 23 22 25 28 30 26 27 21 26 24 28 33 33 36 36 36 32 34 31 23 26 25 25 23 25 24 21 20 24 29 31 30 32 33 30 21 19
8 6 14 18 16 13 4 5 12 25 26 26 24 24 21 25 25 24 22 23 5 6 14 22 21 22 25 32 31 30 25 20 18 20 20 24 24 23 22 15 12 23 28 28 30 31 31 28 22
11 10 18 6 2 5 7 3 20 15 22 23 23 16 18 21 4 11 14 15 17 18 20 21 25 20 21 22 21 23 21 15 14 16 24 22 24 25 24 16 10 34 32 32 32 33 33 30 28
1 11 5 2 3 6 7 12 8 19 19 21 18 17 18 19 18 18 18 16 21 20 26 25 28 26 25 24 20 19 16 15 12 9 13 18 17 21 23 33 29 26 38 38 35 33 32 31 30
8 4 3 5 5 13 13 4 5 21 16 19 17 15 18 19 18 20 20 18 23 22 33 29 31 28 26 25 20 18 15 12 8 7 8 9 11 11 21 33 27 33 37 42 38 34 32 32 32
1 4 3 4 9 5 4 3 4 25 22 18 19 20 20 20 19 19 19 23 24 28 33 31 27 25 24 20 20 18 12 10 5 1 3 6 8 11 13 14 20 26 34 38 37 34 32 30 33
2 5 2 3 5 7 5 4 11 21 22 22 19 20 20 19 19 18 19 23 26 30 30 27 29 23 21 18 18 13 13 9 5 5 4 4 8 12 14 16 18 19 26 30 33 34 33 30 29
5 4 4 3 4 4 6 4 10 14 15 17 18 19 20 19 18 17 16 24 26 26 27 27 24 20 24 19 18 17 9 10 12 7 9 10 12 13 15 17 18 21 24 27 30 32 32 32 29
5 8 4 4 3 5 7 3 9 12 13 14 15 17 16 13 14 14 17 23 25 24 24 23 22 24 22 18 15 14 16 16 15 16 15 14 16 17 16 17 18 20 22 25 29 30 32 31 29